[[{"header":{"parameterUnit":"m.s-1","parameterCategory":1,"la1":31.0,"la2":29.5877,"lo1":-88.7671,"lo2":-86.6584,"dy":0.0162,"dx":0.0185,"nx":115,"ny":88,"refTime":"2023-10-06T06:00:00:Z","depth":0,"parameterNumber":2,"parameterNumberName":"U-component_of_WINDS"},"data":[0.0,0.0,0.0,0.0,0.0,0.0,0.0,0.0,0.0,0.0,0.0,0.0,0.0,0.0,0.0,0.0,0.0,0.0,0.0,0.0,0.0,0.0,0.0,0.0,0.0,0.0,0.0,0.0,0.0,0.0,0.0,0.0,0.0,0.0,0.0,0.0,0.0,0.0,0.0,0.0,0.0,0.0,0.0,0.0,0.0,0.0,0.0,0.0,0.0,0.0,0.0,0.0,0.0,0.0,0.0,0.0,0.0,0.0,0.0,0.0,0.0,0.0,0.0,0.0,0.0,0.0,0.0,0.0,0.0,0.0,0.0,0.0,0.0,0.0,0.0,0.0,0.0,0.0,0.0,0.0,0.0,0.0,0.0,0.0,0.0,0.0,0.0,0.0,0.0,0.0,0.0,0.0,0.0,0.0,0.0,0.0,0.0,0.0,0.0,0.0,0.0,0.0,0.0,0.0,0.0,0.0,0.0,0.0,0.0,0.0,0.0,0.0,0.0,0.0,0.0,0.0,0.0,0.0,0.0,0.0,0.0,0.0,0.0,0.0,0.0,0.0,0.0,0.0,0.0,0.0,0.0,0.0,0.0,0.0,0.0,0.0,0.0,0.0,0.0,0.0,0.0,0.0,0.0,0.0,0.0,0.0,0.0,0.0,0.0,0.0,0.0,0.0,0.0,0.0,0.0,0.0,0.0,0.0,0.0,0.0,0.0,0.0,0.0,0.0,0.0,0.0,0.0,0.0,0.0,0.0,0.0,0.0,0.0,0.0,0.0,0.0,0.0,0.0,0.0,0.0,0.0,0.0,0.0,0.0,0.0,0.0,0.0,0.0,0.0,0.0,0.0,0.0,0.0,0.0,0.0,0.0,0.0,0.0,0.0,0.0,0.0,0.0,0.0,0.0,0.0,0.0,0.0,0.0,0.0,0.0,0.0,0.0,0.0,0.0,0.0,0.0,0.0,0.0,0.0,0.0,0.0,0.0,0.0,0.0,0.0,0.0,0.0,0.0,0.0,0.0,0.0,0.0,0.0,0.0,0.0,0.0,0.0,0.0,0.0,0.0,0.0,0.0,0.0,0.0,0.0,0.0,0.0,0.0,0.0,0.0,0.0,0.0,0.0,0.0,0.0,0.0,0.0,0.0,0.0,0.0,0.0,0.0,0.0,0.0,0.0,0.0,0.0,0.0,0.0,0.0,0.0,0.0,0.0,0.0,0.0,0.0,0.0,0.0,0.0,0.0,0.0,0.0,0.0,0.0,0.0,0.0,0.0,0.0,0.0,0.0,0.0,0.0,0.0,0.0,0.0,0.0,0.0,0.0,0.0,0.0,0.0,0.0,0.0,0.0,0.0,0.0,0.0,0.0,0.0,0.0,0.0,0.0,0.0,0.0,0.0,0.0,0.0,0.0,0.0,0.0,0.0,0.0,0.0,0.0,0.0,0.0,0.0,0.0,0.0,0.0,0.0,0.0,0.0,0.0,0.0,0.0,0.0,0.0,0.0,0.0,0.0,0.0,0.0,0.0,0.0,0.0,0.0,0.0,0.0,0.0,0.0,0.0,0.0,0.0,0.0,0.0,0.0,0.0,0.0,0.0,0.0,0.0,0.0,0.0,0.0,0.0,0.0,0.0,0.0,0.0,0.0,0.0,0.0,0.0,0.0,0.0,0.0,0.0,0.0,0.0,0.0,0.0,0.0,0.0,0.0,0.0,0.0,0.0,0.0,0.0,0.0,0.0,0.0,0.0,0.0,0.0,0.0,0.0,0.0,0.0,0.0,0.0,0.0,0.0,0.0,0.0,0.0,0.0,0.0,0.0,0.0,0.0,0.0,0.0,0.0,0.0,0.0,0.0,0.0,0.0,0.0,0.0,0.0,0.0,0.0,0.0,0.0,0.0,0.0,0.0,0.0,0.0,0.0,0.0,0.0,0.0,0.0,0.0,0.0,0.0,0.0,0.0,0.0,0.0,0.0,0.0,0.0,0.0,0.0,0.0,0.0,0.0,0.0,0.0,0.0,0.0,0.0,0.0,0.0,0.0,0.0,0.0,0.0,0.0,0.0,0.0,0.0,0.0,0.0,0.0,0.0,0.0,0.0,0.0,0.0,0.0,0.0,0.0,0.0,0.0,0.0,0.0,0.0,0.0,0.0,0.0,0.0,0.0,0.0,0.0,0.0,0.0,0.0,0.0,0.0,0.0,0.0,0.0,0.0,0.0,0.0,0.0,0.0,0.0,0.0,0.0,0.0,0.0,0.0,0.0,0.0,0.0,0.0,0.0,0.0,0.0,0.0,0.0,0.0,0.0,0.0,0.0,0.0,0.0,0.0,0.0,0.0,0.0,0.0,0.0,0.0,0.0,0.0,0.0,0.0,0.0,0.0,0.0,0.0,0.0,0.0,0.0,0.0,0.0,0.0,0.0,0.0,0.0,0.0,0.0,0.0,0.0,0.0,0.0,0.0,0.0,0.0,0.0,0.0,0.0,0.0,0.0,0.0,0.0,0.0,0.0,0.0,0.0,0.0,0.0,0.0,0.0,0.0,0.0,0.0,0.0,0.0,0.0,0.0,0.0,0.0,0.0,0.0,0.0,0.0,0.0,0.0,0.0,0.0,0.0,0.0,0.0,0.0,0.0,0.0,0.0,0.0,0.0,0.0,0.0,0.0,0.0,0.0,0.0,0.0,0.0,0.0,0.0,0.0,0.0,0.0,0.0,0.0,0.0,0.0,0.0,0.0,0.0,0.0,0.0,0.0,0.0,0.0,0.0,0.0,0.0,0.0,0.0,0.0,0.0,0.0,0.0,0.0,0.0,0.0,0.0,0.0,0.0,0.0,0.0,0.0,0.0,0.0,0.0,0.0,0.0,0.0,0.0,0.0,0.0,0.0,0.0,0.0,0.0,0.0,0.0,0.0,0.0,0.0,0.0,0.0,0.0,0.0,0.0,0.0,0.0,0.0,0.0,0.0,0.0,0.0,0.0,0.0,0.0,0.0,0.0,0.0,0.0,0.0,0.0,0.0,0.0,0.0,0.0,0.0,0.0,0.0,0.0,0.0,0.0,0.0,0.0,0.0,0.0,0.0,0.0,0.0,0.0,0.0,0.0,0.0,0.0,0.0,0.0,0.0,0.0,0.0,0.0,0.0,0.0,0.0,0.0,0.0,0.0,0.0,0.0,0.0,0.0,0.0,0.0,0.0,0.0,0.0,0.0,0.0,0.0,0.0,0.0,0.0,0.0,0.0,0.0,0.0,0.0,0.0,0.0,0.0,0.0,0.0,0.0,0.0,0.0,0.0,0.0,0.0,0.0,0.0,0.0,0.0,0.0,0.0,0.0,0.0,0.0,0.0,0.0,0.0,0.0,0.0,0.0,0.0,0.0,0.0,0.0,0.0,0.0,0.0,0.0,0.0,0.0,0.0,0.0,0.0,0.0,0.0,0.0,0.0,0.0,0.0,0.0,0.0,0.0,0.0,0.0,0.0,0.0,0.0,0.0,0.0,0.0,0.0,0.0,0.0,0.0,0.0,0.0,0.0,0.0,0.0,0.0,0.0,0.0,0.0,0.0,0.0,0.0,0.0,0.0,0.0,0.0,0.0,0.0,0.0,0.0,0.0,0.0,0.0,0.0,0.0,0.0,0.0,0.0,0.0,0.0,0.0,0.0,0.0,0.0,0.0,0.0,0.0,0.0,0.0,0.0,0.0,0.0,0.0,0.0,0.0,0.0,0.0,0.0,0.0,0.0,0.0,0.0,0.0,0.0,0.0,0.0,0.0,0.0,0.0,0.0,0.0,0.0,0.0,0.0,0.0,0.0,0.0,0.0,0.0,0.0,0.0,0.0,0.0,0.0,0.0,0.0,0.0,0.0,0.0,0.0,0.0,0.0,0.0,0.0,0.0,0.0,0.0,0.0,0.0,0.0,0.0,0.0,0.0,0.0,0.0,0.0,0.0,0.0,0.0,0.0,0.0,0.0,0.0,0.0,0.0,0.0,0.0,0.0,0.0,0.0,0.0,0.0,0.0,0.0,0.0,0.0,0.0,0.0,0.0,0.0,0.0,0.0,0.0,0.0,0.0,0.0,0.0,0.0,0.0,0.0,0.0,0.0,0.0,0.0,0.0,0.0,0.0,0.0,0.0,0.0,0.0,0.0,0.0,0.0,0.0,0.0,0.0,0.0,0.0,0.0,0.0,0.0,0.0,0.0,0.0,0.0,0.0,0.0,0.0,0.0,0.0,0.0,0.0,0.0,0.0,0.0,0.0,0.0,0.0,0.0,0.0,0.0,2.0421,0.0,0.0,0.0,0.0,0.0,0.0,0.0,0.0,0.0,0.0,0.0,0.0,0.0,0.0,0.0,0.0,0.0,0.0,0.0,0.0,0.0,0.0,0.0,0.0,0.0,0.0,0.0,0.0,0.0,0.0,0.0,0.0,0.0,0.0,0.0,0.0,0.0,0.0,0.0,0.0,0.0,0.0,0.0,0.0,0.0,0.0,0.0,0.0,0.0,0.0,0.0,0.0,0.0,0.0,0.0,0.0,0.0,0.0,0.0,0.0,0.0,0.0,0.0,0.0,0.0,0.0,0.0,0.0,0.0,0.0,0.0,0.0,0.0,0.0,0.0,0.0,0.0,0.0,0.0,0.0,0.0,0.0,0.0,0.0,0.0,0.0,0.0,0.0,0.0,0.0,0.0,0.0,0.0,0.0,0.0,0.0,0.0,0.0,0.0,0.0,0.0,0.0,0.0,0.0,0.0,0.0,0.0,0.0,0.0,0.0,2.1785,2.1822,2.1825,2.1596,2.1139,0.0,0.0,0.0,0.0,0.0,0.0,0.0,0.0,0.0,0.0,0.0,0.0,0.0,0.0,0.0,0.0,0.0,0.0,0.0,0.0,0.0,0.0,0.0,0.0,0.0,0.0,0.0,0.0,0.0,0.0,0.0,0.0,0.0,0.0,0.0,0.0,0.0,0.0,0.0,0.0,0.0,0.0,0.0,0.0,0.0,0.0,0.0,0.0,0.0,0.0,0.0,0.0,0.0,0.0,0.0,0.0,0.0,0.0,0.0,0.0,0.0,0.0,0.0,0.0,0.0,0.0,0.0,0.0,0.0,0.0,0.0,0.0,0.0,0.0,0.0,0.0,0.0,0.0,0.0,0.0,0.0,0.0,0.0,0.0,0.0,0.0,0.0,0.0,0.0,0.0,0.0,0.0,0.0,0.0,0.0,0.0,0.0,0.0,0.0,0.0,0.0,0.0,0.0,0.0,0.0,0.0,0.0,0.0,0.0,0.0,0.0,0.0,2.3552,2.3244,2.2549,0.0,0.0,0.0,0.0,0.0,0.0,0.0,0.0,0.0,0.0,0.0,0.0,0.0,0.0,0.0,0.0,0.0,0.0,0.0,0.0,0.0,0.0,0.0,0.0,0.0,0.0,0.0,0.0,0.0,0.0,0.0,0.0,0.0,0.0,0.0,0.0,0.0,0.0,0.0,0.0,0.0,0.0,0.0,0.0,0.0,0.0,0.0,0.0,0.0,0.0,0.0,0.0,0.0,0.0,0.0,0.0,0.0,0.0,0.0,0.0,0.0,0.0,0.0,0.0,0.0,0.0,0.0,0.0,0.0,0.0,0.0,0.0,0.0,0.0,0.0,0.0,0.0,0.0,0.0,0.0,0.0,0.0,0.0,0.0,0.0,0.0,0.0,0.0,0.0,0.0,0.0,0.0,0.0,0.0,0.0,0.0,0.0,0.0,0.0,0.0,0.0,0.0,0.0,0.0,0.0,0.0,0.0,0.0,0.0,0.0,2.3678,2.5223,2.5262,0.0,2.5029,0.0,0.0,0.0,0.0,0.0,0.0,0.0,0.0,0.0,0.0,0.0,0.0,0.0,0.0,0.0,0.0,0.0,0.0,0.0,0.0,0.0,0.0,0.0,0.0,0.0,0.0,0.0,0.0,0.0,0.0,0.0,0.0,0.0,0.0,0.0,0.0,0.0,0.0,0.0,0.0,0.0,0.0,0.0,0.0,0.0,0.0,0.0,0.0,0.0,0.0,0.0,0.0,0.0,0.0,0.0,0.0,0.0,0.0,0.0,0.0,0.0,0.0,0.0,0.0,0.0,0.0,0.0,0.0,0.0,0.0,0.0,0.0,0.0,0.0,0.0,0.0,0.0,0.0,0.0,0.0,0.0,0.0,0.0,0.0,0.0,0.0,0.0,0.0,0.0,0.0,0.0,0.0,0.0,0.0,0.0,0.0,0.0,0.0,0.0,0.0,0.0,0.0,0.0,0.0,0.0,0.0,0.0,0.0,0.0,0.0,2.5722,2.6963,2.6493,2.5759,0.0,0.0,0.0,0.0,0.0,0.0,0.0,0.0,0.0,0.0,0.0,0.0,0.0,0.0,0.0,0.0,0.0,0.0,0.0,0.0,0.0,0.0,0.0,0.0,0.0,0.0,0.0,0.0,0.0,0.0,0.0,0.0,0.0,0.0,0.0,0.0,0.0,0.0,0.0,0.0,0.0,0.0,0.0,0.0,0.0,0.0,0.0,0.0,0.0,0.0,0.0,0.0,0.0,0.0,0.0,0.0,0.0,0.0,0.0,0.0,0.0,0.0,0.0,0.0,0.0,0.0,0.0,0.0,0.0,0.0,0.0,0.0,0.0,0.0,0.0,0.0,0.0,0.0,0.0,0.0,0.0,0.0,0.0,0.0,0.0,0.0,0.0,0.0,0.0,0.0,0.0,0.0,0.0,0.0,0.0,0.0,0.0,0.0,0.0,0.0,0.0,0.0,0.0,0.0,0.0,0.0,0.0,0.0,0.0,0.0,2.7151,2.7579,2.8588,2.7385,2.6262,2.526,0.0,0.0,0.0,0.0,0.0,0.0,0.0,0.0,0.0,0.0,0.0,0.0,0.0,0.0,0.0,0.0,0.0,0.0,0.0,0.0,0.0,0.0,0.0,0.0,0.0,0.0,0.0,0.0,0.0,0.0,0.0,0.0,0.0,0.0,0.0,0.0,0.0,0.0,0.0,0.0,0.0,0.0,0.0,0.0,0.0,0.0,0.0,0.0,0.0,0.0,0.0,0.0,0.0,0.0,0.0,0.0,0.0,0.0,0.0,0.0,0.0,0.0,0.0,0.0,0.0,0.0,0.0,0.0,0.0,0.0,0.0,0.0,0.0,0.0,0.0,0.0,0.0,0.0,0.0,0.0,0.0,0.0,0.0,0.0,0.0,0.0,0.0,0.0,0.0,0.0,0.0,0.0,0.0,0.0,0.0,0.0,0.0,0.0,0.0,0.0,0.0,0.0,0.0,0.0,0.0,0.0,0.0,0.0,3.1174,2.9129,2.8744,3.0287,2.804,2.7037,0.0,0.0,0.0,0.0,0.0,0.0,0.0,0.0,0.0,0.0,0.0,0.0,0.0,0.0,0.0,0.0,0.0,0.0,0.0,0.0,0.0,0.0,0.0,0.0,0.0,0.0,0.0,0.0,0.0,0.0,0.0,0.0,0.0,0.0,0.0,0.0,0.0,0.0,0.0,0.0,0.0,0.0,0.0,0.0,0.0,0.0,0.0,0.0,0.0,0.0,0.0,0.0,0.0,0.0,0.0,0.0,0.0,0.0,0.0,0.0,0.0,0.0,0.0,0.0,0.0,0.0,0.0,0.0,0.0,0.0,0.0,0.0,0.0,0.0,0.0,0.0,0.0,0.0,0.0,0.0,0.0,0.0,0.0,0.0,0.0,0.0,0.0,0.0,0.0,0.0,0.0,0.0,0.0,0.0,0.0,0.0,0.0,0.0,0.0,0.0,0.0,0.0,0.0,0.0,0.0,0.0,0.0,0.0,0.0,2.8405,2.8125,2.8514,2.9651,2.8278,2.7617,0.0,0.0,0.0,0.0,0.0,0.0,0.0,0.0,0.0,0.0,0.0,0.0,0.0,0.0,0.0,0.0,0.0,0.0,0.0,0.0,0.0,0.0,0.0,0.0,0.0,0.0,0.0,0.0,0.0,0.0,0.0,0.0,0.0,0.0,0.0,0.0,0.0,0.0,0.0,0.0,0.0,0.0,0.0,0.0,0.0,0.0,0.0,0.0,0.0,0.0,0.0,0.0,0.0,0.0,0.0,0.0,0.0,0.0,0.0,0.0,0.0,0.0,0.0,0.0,0.0,0.0,0.0,0.0,0.0,0.0,0.0,0.0,0.0,0.0,0.0,0.0,0.0,0.0,0.0,0.0,0.0,0.0,0.0,0.0,0.0,0.0,0.0,0.0,0.0,0.0,0.0,0.0,0.0,0.0,0.0,0.0,0.0,0.0,0.0,0.0,0.0,0.0,0.0,0.0,0.0,0.0,0.0,0.0,0.0,2.8261,0.0,2.9308,2.9626,2.8528,2.7671,0.0,0.0,0.0,0.0,0.0,0.0,0.0,0.0,0.0,0.0,0.0,0.0,0.0,0.0,0.0,0.0,0.0,0.0,0.0,0.0,0.0,0.0,0.0,0.0,0.0,0.0,0.0,0.0,0.0,0.0,0.0,0.0,0.0,0.0,0.0,0.0,0.0,0.0,0.0,0.0,0.0,0.0,0.0,0.0,0.0,0.0,0.0,0.0,0.0,0.0,0.0,0.0,0.0,0.0,0.0,0.0,0.0,0.0,0.0,0.0,0.0,0.0,0.0,0.0,0.0,0.0,0.0,0.0,0.0,0.0,0.0,0.0,0.0,0.0,0.0,0.0,0.0,0.0,0.0,0.0,0.0,0.0,0.0,0.0,0.0,0.0,0.0,0.0,0.0,0.0,0.0,0.0,0.0,0.0,0.0,0.0,0.0,0.0,0.0,0.0,0.0,0.0,0.0,0.0,0.0,0.0,0.0,0.0,2.8392,3.1432,3.162,3.1272,3.056,2.8853,2.7158,0.0,0.0,0.0,0.0,0.0,0.0,0.0,0.0,0.0,0.0,0.0,0.0,0.0,0.0,0.0,0.0,0.0,0.0,0.0,0.0,0.0,0.0,0.0,0.0,0.0,0.0,0.0,0.0,0.0,0.0,0.0,0.0,0.0,0.0,0.0,0.0,0.0,0.0,0.0,0.0,0.0,0.0,0.0,0.0,0.0,0.0,0.0,0.0,0.0,0.0,0.0,0.0,0.0,0.0,0.0,0.0,0.0,0.0,0.0,0.0,0.0,0.0,0.0,0.0,0.0,0.0,0.0,0.0,0.0,0.0,0.0,0.0,0.0,0.0,0.0,0.0,0.0,0.0,0.0,0.0,0.0,0.0,0.0,0.0,0.0,0.0,0.0,0.0,0.0,0.0,0.0,0.0,0.0,0.0,0.0,0.0,0.0,0.0,0.0,0.0,0.0,0.0,0.0,0.0,0.0,0.0,0.0,0.0,0.0,2.9956,3.0407,3.1653,3.3552,2.9848,2.8574,0.0,0.0,0.0,0.0,0.0,0.0,0.0,0.0,0.0,0.0,0.0,0.0,0.0,0.0,0.0,0.0,0.0,0.0,0.0,0.0,0.0,0.0,0.0,0.0,0.0,0.0,0.0,0.0,0.0,0.0,0.0,0.0,0.0,0.0,0.0,0.0,0.0,0.0,0.0,0.0,0.0,0.0,0.0,0.0,0.0,0.0,0.0,0.0,0.0,0.0,0.0,0.0,0.0,0.0,0.0,0.0,0.0,0.0,0.0,0.0,0.0,0.0,0.0,0.0,0.0,0.0,0.0,0.0,0.0,0.0,0.0,0.0,0.0,0.0,0.0,0.0,0.0,0.0,0.0,0.0,0.0,0.0,0.0,0.0,0.0,0.0,0.0,0.0,0.0,0.0,0.0,0.0,0.0,0.0,0.0,0.0,0.0,0.0,0.0,0.0,0.0,0.0,0.0,0.0,0.0,0.0,0.0,0.0,0.0,3.413,3.4168,3.4958,3.6485,3.2773,3.0927,3.124,0.0,0.0,0.0,0.0,0.0,0.0,0.0,0.0,0.0,0.0,0.0,0.0,0.0,0.0,0.0,0.0,0.0,0.0,0.0,0.0,0.0,0.0,0.0,0.0,0.0,0.0,0.0,0.0,0.0,0.0,0.0,0.0,0.0,0.0,0.0,0.0,0.0,0.0,0.0,0.0,0.0,0.0,0.0,0.0,0.0,0.0,0.0,0.0,0.0,0.0,0.0,0.0,0.0,0.0,0.0,0.0,0.0,0.0,0.0,0.0,0.0,0.0,0.0,0.0,0.0,0.0,0.0,0.0,0.0,0.0,0.0,0.0,0.0,0.0,0.0,0.0,0.0,0.0,0.0,0.0,0.0,0.0,0.0,0.0,0.0,0.0,0.0,0.0,0.0,0.0,0.0,0.0,0.0,0.0,0.0,0.0,0.0,0.0,0.0,0.0,0.0,0.0,0.0,0.0,0.0,0.0,0.0,0.0,4.2826,4.2456,4.136,3.9402,3.7417,3.4182,0.0,0.0,0.0,0.0,0.0,0.0,0.0,0.0,0.0,0.0,0.0,0.0,0.0,0.0,0.0,0.0,0.0,0.0,0.0,0.0,0.0,0.0,0.0,0.0,0.0,0.0,0.0,0.0,0.0,0.0,0.0,0.0,0.0,0.0,0.0,0.0,0.0,0.0,0.0,0.0,0.0,0.0,0.0,0.0,0.0,0.0,0.0,0.0,0.0,0.0,0.0,0.0,0.0,0.0,0.0,0.0,0.0,0.0,0.0,0.0,0.0,0.0,0.0,0.0,0.0,0.0,0.0,0.0,0.0,0.0,0.0,0.0,0.0,0.0,0.0,0.0,0.0,0.0,0.0,0.0,0.0,0.0,0.0,0.0,0.0,0.0,0.0,0.0,0.0,0.0,0.0,0.0,0.0,0.0,0.0,0.0,0.0,0.0,0.0,0.0,0.0,0.0,0.0,0.0,0.0,0.0,0.0,0.0,0.0,4.9228,5.3119,5.2723,4.7635,4.2372,3.8426,0.0,0.0,0.0,0.0,0.0,0.0,0.0,0.0,0.0,0.0,0.0,0.0,0.0,0.0,0.0,0.0,0.0,0.0,0.0,0.0,0.0,0.0,0.0,0.0,0.0,0.0,0.0,0.0,0.0,0.0,0.0,0.0,0.0,0.0,0.0,0.0,0.0,0.0,0.0,0.0,0.0,0.0,0.0,0.0,0.0,0.0,0.0,0.0,0.0,0.0,0.0,0.0,0.0,0.0,0.0,0.0,0.0,0.0,0.0,0.0,0.0,0.0,0.0,0.0,0.0,0.0,0.0,0.0,0.0,0.0,0.0,0.0,0.0,0.0,0.0,0.0,0.0,0.0,0.0,0.0,0.0,0.0,0.0,0.0,0.0,0.0,0.0,0.0,0.0,0.0,0.0,0.0,0.0,0.0,0.0,0.0,0.0,0.0,0.0,0.0,0.0,0.0,0.0,0.0,0.0,0.0,0.0,0.0,4.9086,5.3775,6.0596,6.2082,5.7785,5.0026,4.3649,0.0,0.0,0.0,0.0,0.0,0.0,0.0,0.0,0.0,0.0,0.0,0.0,0.0,0.0,0.0,0.0,0.0,0.0,0.0,0.0,0.0,0.0,0.0,0.0,0.0,0.0,0.0,0.0,0.0,0.0,0.0,0.0,0.0,0.0,0.0,0.0,0.0,0.0,0.0,0.0,0.0,0.0,0.0,0.0,0.0,0.0,0.0,0.0,0.0,0.0,0.0,0.0,0.0,0.0,0.0,0.0,0.0,0.0,0.0,0.0,0.0,0.0,0.0,0.0,0.0,0.0,0.0,0.0,0.0,0.0,0.0,0.0,0.0,0.0,0.0,0.0,0.0,0.0,0.0,0.0,0.0,0.0,0.0,0.0,0.0,0.0,0.0,0.0,0.0,0.0,0.0,0.0,0.0,0.0,0.0,0.0,0.0,0.0,0.0,0.0,0.0,0.0,0.0,0.0,0.0,0.0,0.0,0.0,5.3766,5.7476,6.5743,6.9348,6.7614,5.8231,4.8967,0.0,0.0,0.0,0.0,0.0,0.0,0.0,0.0,0.0,0.0,0.0,0.0,0.0,0.0,0.0,0.0,0.0,0.0,0.0,0.0,0.0,0.0,0.0,0.0,0.0,0.0,0.0,0.0,0.0,0.0,0.0,0.0,0.0,0.0,0.0,0.0,0.0,0.0,0.0,0.0,0.0,0.0,0.0,0.0,0.0,0.0,0.0,0.0,0.0,0.0,0.0,0.0,0.0,0.0,0.0,0.0,0.0,0.0,0.0,0.0,0.0,0.0,0.0,0.0,0.0,0.0,0.0,0.0,0.0,0.0,0.0,0.0,0.0,0.0,0.0,0.0,0.0,0.0,0.0,0.0,0.0,0.0,0.0,0.0,0.0,0.0,0.0,0.0,0.0,0.0,0.0,0.0,0.0,0.0,0.0,0.0,0.0,0.0,0.0,0.0,0.0,0.0,0.0,0.0,0.0,0.0,0.0,0.0,5.6719,6.3126,6.9371,7.2153,7.1156,5.9904,5.0808,0.0,0.0,0.0,0.0,0.0,0.0,0.0,0.0,0.0,0.0,0.0,0.0,0.0,0.0,0.0,0.0,0.0,0.0,0.0,0.0,0.0,0.0,0.0,0.0,0.0,0.0,0.0,0.0,0.0,0.0,0.0,0.0,0.0,0.0,0.0,0.0,0.0,0.0,0.0,0.0,0.0,0.0,0.0,0.0,0.0,0.0,0.0,0.0,3.2072,0.0,0.0,0.0,0.0,0.0,0.0,0.0,0.0,0.0,0.0,0.0,0.0,0.0,0.0,0.0,0.0,0.0,0.0,0.0,0.0,0.0,0.0,0.0,0.0,0.0,0.0,0.0,0.0,0.0,0.0,0.0,0.0,0.0,0.0,0.0,0.0,0.0,0.0,0.0,0.0,0.0,0.0,0.0,0.0,0.0,0.0,0.0,0.0,0.0,0.0,0.0,0.0,0.0,0.0,0.0,0.0,0.0,0.0,0.0,5.9186,6.5998,7.1243,7.3757,7.2983,6.3007,5.4224,0.0,0.0,0.0,0.0,0.0,0.0,0.0,0.0,0.0,0.0,0.0,0.0,0.0,0.0,0.0,0.0,0.0,0.0,0.0,0.0,0.0,0.0,0.0,0.0,0.0,0.0,0.0,0.0,0.0,0.0,0.0,0.0,0.0,0.0,0.0,0.0,0.0,0.0,0.0,0.0,0.0,0.0,0.0,0.0,0.0,0.0,0.0,0.0,0.0,0.0,0.0,0.0,0.0,0.0,0.0,0.0,0.0,0.0,0.0,0.0,0.0,0.0,0.0,0.0,0.0,0.0,0.0,0.0,0.0,0.0,0.0,0.0,0.0,0.0,0.0,0.0,0.0,0.0,0.0,0.0,0.0,0.0,0.0,0.0,0.0,0.0,0.0,0.0,0.0,0.0,0.0,0.0,0.0,0.0,0.0,0.0,0.0,0.0,0.0,0.0,0.0,0.0,0.0,0.0,0.0,0.0,0.0,5.4076,6.1197,6.813,7.2563,7.4686,7.4277,6.6112,5.7806,4.9765,0.0,0.0,0.0,0.0,0.0,0.0,0.0,0.0,0.0,0.0,0.0,0.0,0.0,0.0,0.0,0.0,0.0,0.0,0.0,0.0,0.0,0.0,0.0,0.0,0.0,0.0,0.0,0.0,0.0,0.0,0.0,0.0,0.0,0.0,0.0,0.0,0.0,0.0,2.7688,2.9556,0.0,0.0,0.0,0.0,0.0,0.0,0.0,0.0,3.3158,0.0,0.0,0.0,0.0,0.0,0.0,0.0,0.0,0.0,0.0,0.0,0.0,0.0,0.0,0.0,0.0,0.0,0.0,0.0,0.0,0.0,0.0,0.0,0.0,0.0,0.0,0.0,0.0,0.0,0.0,0.0,0.0,0.0,0.0,0.0,0.0,0.0,0.0,0.0,0.0,0.0,0.0,0.0,0.0,0.0,0.0,0.0,0.0,0.0,0.0,0.0,0.0,0.0,0.0,0.0,0.0,5.2487,5.6,6.247,7.2141,7.45,7.4946,7.346,6.6792,5.9356,5.1371,0.0,0.0,0.0,0.0,0.0,0.0,0.0,0.0,0.0,0.0,0.0,0.0,0.0,0.0,0.0,0.0,0.0,0.0,0.0,0.0,0.0,0.0,0.0,0.0,0.0,0.0,0.0,0.0,0.0,0.0,0.0,0.0,0.0,0.0,0.0,0.0,0.0,0.0,0.0,3.322,3.4196,0.0,0.0,0.0,0.0,0.0,0.0,0.0,0.0,3.4274,0.0,0.0,0.0,0.0,0.0,0.0,0.0,0.0,0.0,0.0,0.0,0.0,0.0,0.0,0.0,0.0,0.0,0.0,0.0,0.0,0.0,0.0,0.0,0.0,0.0,0.0,0.0,0.0,0.0,0.0,0.0,0.0,0.0,0.0,0.0,0.0,0.0,0.0,0.0,0.0,0.0,0.0,0.0,0.0,0.0,0.0,0.0,0.0,0.0,0.0,0.0,0.0,0.0,0.0,0.0,5.3123,5.8286,6.487,7.2977,7.4863,7.5089,7.3724,6.621,5.8894,0.0,0.0,0.0,0.0,0.0,0.0,0.0,0.0,0.0,0.0,0.0,0.0,0.0,0.0,0.0,0.0,0.0,0.0,0.0,0.0,0.0,0.0,0.0,0.0,0.0,0.0,0.0,0.0,0.0,0.0,0.0,0.0,0.0,0.0,0.0,0.0,0.0,0.0,0.0,0.0,3.6157,3.7288,3.8829,0.0,0.0,0.0,0.0,0.0,0.0,3.6386,3.5761,0.0,0.0,0.0,0.0,0.0,0.0,0.0,0.0,0.0,0.0,0.0,0.0,0.0,0.0,0.0,0.0,0.0,0.0,0.0,0.0,0.0,0.0,0.0,0.0,0.0,0.0,0.0,0.0,0.0,0.0,0.0,0.0,0.0,0.0,0.0,0.0,0.0,0.0,0.0,0.0,0.0,0.0,0.0,0.0,0.0,0.0,0.0,0.0,0.0,0.0,0.0,0.0,0.0,0.0,0.0,5.319,5.9785,6.6489,7.3091,7.4676,7.4806,7.3587,6.501,5.7771,0.0,0.0,0.0,0.0,0.0,0.0,0.0,0.0,0.0,0.0,0.0,0.0,0.0,0.0,0.0,0.0,0.0,0.0,0.0,0.0,0.0,0.0,0.0,0.0,0.0,0.0,0.0,0.0,0.0,0.0,0.0,0.0,0.0,0.0,0.0,0.0,0.0,0.0,0.0,0.0,0.0,4.0834,4.1443,4.1386,0.0,0.0,0.0,0.0,3.8714,3.9432,0.0,0.0,0.0,0.0,0.0,0.0,0.0,0.0,0.0,0.0,0.0,0.0,0.0,0.0,0.0,0.0,0.0,0.0,0.0,0.0,0.0,0.0,0.0,0.0,0.0,0.0,0.0,0.0,0.0,0.0,0.0,0.0,0.0,0.0,0.0,0.0,0.0,0.0,0.0,0.0,0.0,0.0,0.0,0.0,0.0,0.0,0.0,0.0,0.0,0.0,0.0,0.0,0.0,0.0,0.0,0.0,5.4519,5.8985,6.5384,7.3577,7.428,7.3594,7.1948,6.3228,5.654,0.0,0.0,0.0,0.0,0.0,0.0,0.0,0.0,0.0,0.0,0.0,0.0,0.0,0.0,0.0,0.0,0.0,0.0,0.0,0.0,0.0,0.0,0.0,0.0,0.0,0.0,0.0,0.0,0.0,0.0,0.0,0.0,0.0,0.0,0.0,0.0,0.0,0.0,0.0,0.0,0.0,4.466,4.2637,4.3471,4.3394,0.0,0.0,4.345,4.2595,4.6656,0.0,0.0,0.0,0.0,0.0,0.0,0.0,0.0,0.0,0.0,0.0,0.0,0.0,0.0,0.0,0.0,0.0,0.0,0.0,0.0,0.0,0.0,0.0,0.0,0.0,0.0,0.0,0.0,0.0,0.0,0.0,0.0,0.0,0.0,0.0,0.0,0.0,0.0,0.0,0.0,0.0,0.0,0.0,0.0,0.0,0.0,0.0,0.0,0.0,0.0,0.0,0.0,0.0,0.0,0.0,4.8077,5.4229,6.0443,6.6543,7.2415,7.3123,7.2535,7.0781,6.1206,5.4617,0.0,0.0,0.0,0.0,0.0,0.0,0.0,0.0,0.0,0.0,0.0,0.0,0.0,0.0,0.0,0.0,0.0,0.0,0.0,0.0,0.0,0.0,0.0,0.0,0.0,0.0,0.0,0.0,0.0,0.0,0.0,0.0,0.0,0.0,0.0,0.0,0.0,0.0,0.0,0.0,0.0,0.0,4.4074,4.5953,0.0,0.0,0.0,4.6765,4.5383,0.0,0.0,0.0,0.0,0.0,0.0,0.0,0.0,0.0,0.0,0.0,0.0,0.0,0.0,0.0,0.0,0.0,0.0,0.0,0.0,0.0,0.0,0.0,0.0,0.0,0.0,0.0,0.0,0.0,0.0,0.0,0.0,0.0,0.0,0.0,0.0,0.0,0.0,0.0,0.0,0.0,0.0,0.0,0.0,0.0,0.0,0.0,0.0,0.0,0.0,0.0,0.0,0.0,0.0,0.0,0.0,0.0,5.4254,6.1527,6.7282,7.1285,7.2034,7.1558,6.9713,6.0199,0.0,0.0,0.0,0.0,0.0,0.0,0.0,0.0,0.0,0.0,0.0,0.0,0.0,0.0,0.0,0.0,0.0,0.0,0.0,0.0,0.0,0.0,0.0,0.0,0.0,0.0,0.0,2.3373,0.0,0.0,0.0,0.0,0.0,0.0,0.0,0.0,0.0,0.0,0.0,0.0,0.0,0.0,4.8553,4.5848,4.8589,5.0225,0.0,0.0,5.0281,4.8811,5.1376,5.1271,0.0,0.0,0.0,0.0,0.0,0.0,0.0,0.0,0.0,0.0,0.0,0.0,0.0,0.0,0.0,0.0,0.0,0.0,0.0,0.0,0.0,0.0,0.0,0.0,0.0,0.0,0.0,0.0,0.0,0.0,0.0,0.0,0.0,0.0,0.0,0.0,0.0,0.0,0.0,0.0,0.0,0.0,0.0,0.0,0.0,0.0,0.0,0.0,0.0,0.0,0.0,0.0,0.0,0.0,5.0142,5.5634,6.1299,6.6509,7.1101,7.1358,7.0624,6.8892,6.0964,5.5128,0.0,0.0,0.0,0.0,0.0,0.0,0.0,0.0,0.0,0.0,0.0,0.0,0.0,0.0,0.0,0.0,0.0,0.0,0.0,0.0,0.0,0.0,0.0,0.0,0.0,0.0,0.0,0.0,0.0,0.0,0.0,0.0,0.0,0.0,0.0,0.0,0.0,0.0,0.0,0.0,0.0,5.0716,4.8197,5.1254,5.4236,0.0,5.5179,5.454,5.3474,5.8554,5.8735,4.7053,0.0,0.0,0.0,0.0,0.0,0.0,0.0,0.0,0.0,0.0,0.0,0.0,0.0,0.0,0.0,0.0,0.0,0.0,0.0,0.0,0.0,0.0,0.0,0.0,0.0,0.0,0.0,0.0,0.0,0.0,0.0,0.0,0.0,0.0,0.0,0.0,0.0,0.0,0.0,0.0,0.0,0.0,0.0,0.0,0.0,0.0,0.0,0.0,0.0,0.0,0.0,0.0,0.0,5.0851,5.4996,6.1502,6.6476,6.9692,7.0286,6.9559,6.746,5.9755,5.4194,0.0,0.0,0.0,0.0,0.0,0.0,0.0,0.0,0.0,0.0,0.0,0.0,0.0,0.0,0.0,0.0,0.0,0.0,0.0,0.0,0.0,0.0,0.0,0.0,0.0,0.0,0.0,0.0,2.8489,2.9298,3.0263,0.0,0.0,0.0,0.0,0.0,0.0,0.0,0.0,0.0,0.0,5.2884,5.185,5.4676,0.0,0.0,5.6526,5.6715,5.4788,5.6596,5.5822,4.8609,4.5642,0.0,0.0,0.0,0.0,0.0,0.0,0.0,0.0,0.0,0.0,0.0,0.0,0.0,0.0,0.0,0.0,0.0,0.0,0.0,0.0,0.0,0.0,0.0,0.0,0.0,0.0,0.0,0.0,0.0,0.0,0.0,0.0,0.0,0.0,0.0,0.0,0.0,0.0,0.0,0.0,0.0,0.0,0.0,0.0,0.0,0.0,0.0,0.0,0.0,0.0,0.0,0.0,5.143,5.5119,6.1634,6.6158,6.8562,6.9187,6.8327,6.5851,5.9006,5.3755,0.0,0.0,0.0,0.0,0.0,0.0,0.0,0.0,0.0,0.0,0.0,0.0,0.0,0.0,0.0,0.0,0.0,0.0,0.0,0.0,0.0,0.0,0.0,0.0,0.0,0.0,0.0,0.0,3.0488,3.146,3.2392,0.0,0.0,0.0,0.0,0.0,0.0,0.0,0.0,0.0,0.0,5.4266,5.3926,5.64,5.774,5.6165,5.6856,5.7041,5.5456,5.5054,5.3319,4.8738,0.0,0.0,0.0,0.0,0.0,0.0,0.0,0.0,0.0,0.0,0.0,0.0,0.0,0.0,0.0,0.0,0.0,0.0,0.0,0.0,0.0,0.0,0.0,0.0,0.0,0.0,0.0,3.1824,0.0,0.0,3.1998,0.0,0.0,0.0,0.0,0.0,0.0,0.0,0.0,0.0,0.0,0.0,0.0,0.0,0.0,0.0,0.0,0.0,0.0,0.0,0.0,0.0,0.0,5.1794,5.651,6.158,6.541,6.7815,6.7976,6.6928,6.4529,5.9095,5.4322,5.04,0.0,0.0,0.0,0.0,0.0,0.0,0.0,0.0,0.0,0.0,0.0,0.0,0.0,0.0,0.0,0.0,0.0,0.0,0.0,0.0,0.0,0.0,0.0,0.0,0.0,0.0,2.9836,3.1028,3.235,0.0,0.0,0.0,0.0,0.0,0.0,0.0,0.0,0.0,4.6497,5.1459,5.4556,5.3951,5.5849,5.7598,5.8178,5.6445,5.5249,5.5849,5.5253,5.286,0.0,0.0,0.0,0.0,0.0,0.0,0.0,0.0,0.0,0.0,0.0,0.0,0.0,0.0,0.0,0.0,0.0,0.0,0.0,0.0,0.0,0.0,0.0,0.0,0.0,0.0,0.0,3.7606,3.8064,0.0,0.0,0.0,0.0,0.0,0.0,0.0,0.0,0.0,0.0,0.0,4.2106,4.3468,0.0,0.0,0.0,0.0,0.0,0.0,0.0,0.0,0.0,0.0,0.0,0.0,5.2499,5.6697,6.1271,6.4757,6.706,6.7174,6.6097,6.3742,5.9037,5.32,4.6164,0.0,0.0,0.0,0.0,0.0,0.0,0.0,0.0,0.0,0.0,0.0,0.0,0.0,0.0,0.0,0.0,0.0,0.0,0.0,0.0,0.0,0.0,0.0,0.0,0.0,3.268,0.0,0.0,0.0,0.0,0.0,0.0,0.0,0.0,0.0,0.0,0.0,4.4504,4.7711,5.1524,5.4273,5.5011,5.7158,5.8602,0.0,0.0,0.0,0.0,0.0,0.0,0.0,0.0,0.0,0.0,0.0,0.0,0.0,0.0,4.603,4.2104,4.1406,4.1614,4.2137,0.0,0.0,0.0,0.0,0.0,0.0,0.0,0.0,0.0,0.0,0.0,0.0,0.0,0.0,4.0933,0.0,4.0842,0.0,0.0,0.0,0.0,0.0,0.0,0.0,0.0,4.4166,4.6211,4.6994,4.8352,4.8844,0.0,4.7399,4.5438,0.0,0.0,0.0,0.0,0.0,0.0,0.0,0.0,5.2963,5.6637,6.0773,6.3925,6.5919,6.5817,6.4693,6.2587,5.7751,5.1968,4.5306,4.2486,4.0397,0.0,0.0,0.0,0.0,0.0,0.0,0.0,0.0,0.0,0.0,0.0,0.0,0.0,0.0,0.0,0.0,0.0,0.0,0.0,0.0,0.0,0.0,0.0,3.533,0.0,0.0,0.0,0.0,0.0,0.0,0.0,0.0,0.0,4.3267,4.4688,4.6949,5.0394,5.2814,5.4632,5.5574,0.0,0.0,0.0,0.0,0.0,0.0,0.0,5.1305,5.149,4.962,4.8504,4.989,5.0517,5.0864,5.0904,0.0,0.0,4.5425,4.463,4.4799,4.5319,4.6548,4.77,4.8227,4.9405,5.06,0.0,0.0,0.0,0.0,0.0,0.0,0.0,0.0,4.176,4.2287,0.0,4.212,0.0,0.0,0.0,0.0,3.8346,4.185,0.0,0.0,4.9525,5.173,5.1164,5.1987,5.1861,5.107,5.1018,4.9867,4.7641,4.4318,0.0,0.0,0.0,0.0,0.0,0.0,5.3252,5.6336,6.025,6.299,6.4549,6.3975,6.2843,6.1108,5.5434,5.0907,4.7803,4.4316,4.2149,4.1515,3.8924,0.0,0.0,0.0,0.0,0.0,0.0,0.0,0.0,0.0,0.0,0.0,0.0,0.0,0.0,0.0,0.0,0.0,0.0,0.0,0.0,3.7522,0.0,0.0,0.0,0.0,0.0,0.0,0.0,0.0,0.0,0.0,4.6587,4.7812,5.017,5.4142,0.0,0.0,0.0,0.0,5.6549,5.5618,5.4865,5.4736,5.5383,5.4799,5.3999,5.3324,0.0,0.0,5.3544,5.3434,5.3502,5.3434,5.3004,5.2018,5.1353,5.0877,5.0785,5.0937,5.1649,5.23,5.2444,5.3336,5.418,5.3109,0.0,0.0,0.0,0.0,4.7199,4.9774,5.3073,5.1945,5.1593,5.165,4.9143,0.0,0.0,0.0,0.0,0.0,0.0,4.7109,5.0497,5.3314,5.5359,5.6842,5.8217,5.7914,5.6164,5.5577,5.4447,5.2689,5.0074,4.754,4.5078,0.0,0.0,0.0,0.0,5.4091,5.7034,6.0578,6.3157,6.4657,6.3961,6.2082,5.8969,5.5624,5.2168,4.861,4.6471,4.4549,4.2843,4.0982,0.0,0.0,0.0,0.0,0.0,0.0,0.0,0.0,0.0,0.0,0.0,0.0,0.0,0.0,0.0,0.0,0.0,0.0,0.0,3.8177,3.949,4.0178,0.0,0.0,0.0,0.0,0.0,0.0,0.0,0.0,0.0,5.0699,5.0529,5.0937,0.0,0.0,5.4647,5.522,5.7076,5.8477,5.8707,5.9173,0.0,5.9664,5.7637,5.6334,5.7132,5.758,5.7722,5.7545,5.7954,5.8358,5.8321,5.8143,5.8064,5.8259,5.5187,5.3188,5.4049,5.5388,5.6711,5.7839,5.9573,6.0825,6.3081,5.6674,5.2762,5.1573,5.245,5.399,5.649,5.9382,5.8405,5.7971,5.7782,5.4913,5.1756,4.848,4.7063,0.0,0.0,0.0,5.1313,5.562,5.6959,5.8683,6.0727,6.2024,6.1643,5.9781,5.8963,5.7822,5.6417,5.4436,5.2184,4.9679,0.0,0.0,4.8359,5.2208,5.5471,5.8105,6.1007,6.3057,6.423,6.3229,6.1289,5.8418,5.6142,5.3444,5.0272,4.841,4.6444,4.4237,4.2702,4.1331,0.0,0.0,0.0,0.0,0.0,0.0,0.0,0.0,0.0,0.0,0.0,3.5192,3.4803,0.0,0.0,0.0,3.8855,3.9822,4.0544,4.1201,0.0,0.0,0.0,0.0,0.0,0.0,0.0,4.4991,4.7587,5.0598,5.4084,5.4512,5.4955,5.6232,5.62,5.657,5.7977,0.0,6.0334,6.1425,6.1799,6.204,6.2318,6.0817,5.9938,6.0872,6.0768,6.0621,6.0621,6.0817,6.1129,6.163,6.1575,6.1704,6.2836,6.0211,5.7991,5.84,5.9501,6.0713,6.171,6.3597,6.4954,7.2322,6.884,6.0622,5.7399,5.7871,6.0132,6.1563,6.2362,6.2231,6.2141,6.1922,5.9462,5.7032,5.4538,5.226,0.0,5.2794,5.3554,5.6061,5.9896,6.0722,6.1926,6.3494,6.4311,6.3831,6.2294,6.1544,6.0464,5.9083,5.7665,5.6637,5.591,5.2459,5.0837,5.12,5.4539,5.7331,5.9355,6.1498,6.2919,6.3574,6.2117,6.0556,5.8995,5.6797,5.4513,5.2264,5.0023,4.7817,4.5679,4.4174,4.272,4.1261,0.0,0.0,0.0,0.0,0.0,0.0,0.0,0.0,0.0,0.0,0.0,0.0,0.0,0.0,0.0,4.1618,0.0,4.3251,4.2756,0.0,0.0,0.0,4.266,4.4905,4.592,4.7335,4.9586,0.0,0.0,5.6799,5.8906,6.0683,6.1692,6.0469,6.0261,6.247,6.2113,6.2229,6.3656,6.3328,6.3112,6.3856,6.3791,6.3688,6.374,6.3466,6.2982,6.2909,6.2438,6.2622,6.3799,6.3516,6.3466,6.5109,6.5033,6.4921,6.3313,6.3759,6.4353,6.458,6.5845,6.7215,7.7326,7.5836,7.2589,6.8856,6.5183,6.579,6.6855,6.8107,6.7502,6.6884,6.6136,6.3133,6.0091,5.7128,5.5502,5.6453,5.9355,5.8447,6.0824,6.5604,6.5343,6.6038,6.7563,6.8417,6.7392,6.4921,6.4631,6.3526,6.1631,6.0644,5.9234,5.7476,5.7633,5.6406,5.3997,5.7464,5.9546,6.0004,6.2204,6.3402,6.3531,6.2082,6.0556,5.903,5.6789,5.4547,5.2272,4.9989,4.8265,4.7169,4.518,4.3684,4.2795,4.1493,0.0,0.0,0.0,0.0,0.0,0.0,0.0,0.0,0.0,3.8188,3.8208,0.0,4.0454,0.0,4.3065,4.4125,4.4335,4.4729,0.0,0.0,4.6365,4.7058,4.818,4.9644,5.0952,5.1986,5.3905,5.6032,5.8272,6.0079,6.1745,6.3226,6.2476,6.2135,6.3314,6.3959,6.4557,6.5397,6.55,6.5616,6.5643,6.534,6.4749,6.42,6.4383,6.472,6.4692,6.4556,6.4586,6.4938,6.4862,6.5124,6.6018,6.6225,6.6329,6.6482,6.6703,6.7033,6.765,6.9014,7.017,7.9867,7.8764,7.7212,7.459,7.1412,7.1466,7.1988,7.276,7.1979,7.1187,7.0226,6.7088,6.4266,6.1909,6.1452,6.2432,6.4302,6.3597,6.5282,6.8769,6.8087,6.824,6.9106,6.9548,6.8722,6.6765,6.6435,6.5512,6.4041,6.3229,6.2004,6.0496,6.2324,6.1851,5.9331,6.0264,6.1092,6.1712,6.3289,6.4083,6.4048,6.2599,6.1082,5.953,5.6961,5.4693,5.2797,5.0548,4.8989,4.8169,4.6348,4.5034,4.4319,4.2986,4.2027,0.0,0.0,0.0,0.0,0.0,0.0,0.0,0.0,0.0,0.0,0.0,4.2437,4.3602,4.4903,4.5818,4.6162,4.6935,4.7609,4.8082,4.882,4.9779,5.0963,5.2595,5.3988,5.5045,5.6926,5.8967,6.1074,6.2424,6.3677,6.4962,6.441,6.3964,6.4353,6.4864,6.537,6.579,6.5902,6.5973,6.5968,6.5301,6.4751,6.4677,6.4714,6.4874,6.523,6.5321,6.5405,6.5729,6.5845,6.6072,6.6849,6.7033,6.7217,6.7584,6.7987,6.8391,6.8825,7.0167,7.1296,8.1397,7.9936,7.8408,7.7316,7.6543,7.643,7.6228,7.5894,7.5205,7.4401,7.3407,7.0478,6.8377,6.7107,6.7598,6.8005,6.8252,6.8148,6.894,7.0443,6.981,6.9521,6.9477,6.9512,6.9091,6.8379,6.7541,6.6851,6.6309,6.5437,6.4678,6.4161,6.6117,6.6437,6.4979,6.3117,6.2668,6.3747,6.4575,6.4841,6.4565,6.3091,6.1565,5.9875,5.7004,5.4754,5.3253,5.1038,4.9521,4.8817,4.7479,4.6464,4.5885,4.4634,4.3771,0.0,4.2808,0.0,0.0,0.0,0.0,0.0,0.0,0.0,0.0,4.3515,4.4369,4.5875,4.6888,4.7682,4.8294,4.9205,4.9856,5.0047,5.0853,5.2019,5.3644,5.5347,5.6953,5.845,6.0463,6.2358,6.3615,6.461,6.5264,6.5351,6.5158,6.4743,6.469,6.4759,6.4972,6.5068,6.4948,6.4682,6.4559,6.4154,6.4051,6.4613,6.439,6.4259,6.4867,6.5105,6.5437,6.6119,6.6278,6.6587,6.7428,6.746,6.7442,6.7489,6.8126,6.8745,6.9137,7.0264,7.1298,8.4018,8.3006,8.1557,8.012,7.881,7.822,7.688,7.5115,7.4953,7.4146,7.2778,7.0952,6.9929,6.9509,6.8493,6.9012,7.0632,6.9542,7.0188,7.2192,7.1415,7.1067,7.1043,7.1077,7.0685,6.9897,6.8542,6.8162,6.8621,6.7231,6.6472,6.6403,6.7403,6.7472,6.6644,0.0,0.0,0.0,6.5851,6.5679,6.3841,6.2333,6.0487,5.8383,5.5969,0.0,5.2444,5.0237,4.8955,4.8789,4.7955,0.0,0.0,0.0,0.0,0.0,0.0,0.0,0.0,0.0,0.0,0.0,4.5045,4.486,4.3239,4.4617,4.5998,4.7031,4.8816,4.9831,4.9664,5.1369,5.2732,5.3418,5.4734,5.6003,5.7056,5.9042,6.086,6.1791,6.2307,6.2732,6.3243,6.3437,6.3161,6.2506,6.3002,6.3106,6.1976,6.2976,6.3718,6.3717,6.3256,6.2565,6.1825,6.2234,6.2674,6.2809,6.329,6.3582,6.3862,6.4354,6.4903,6.561,6.5721,6.6019,6.6725,6.6429,6.6267,6.6828,6.7597,6.8515,6.9635,7.0597,7.1676,8.473,8.3902,8.2799,8.1672,0.0,7.9833,7.8626,7.7097,7.5994,7.466,7.3244,7.2809,7.2199,7.1464,7.1071,7.1309,7.2011,7.1313,7.1588,7.2657,7.2278,7.2105,7.2105,7.2105,7.1681,7.0887,6.9784,6.9049,6.868,6.7921,6.7369,6.7024,6.8507,6.9059,6.8714,6.9784,6.9232,6.6989,6.7369,6.6817,6.5265,6.3427,6.1151,5.853,5.5866,0.0,0.0,0.0,0.0,0.0,0.0,0.0,0.0,4.7678,0.0,4.7363,4.72,4.6888,4.6462,4.685,4.7066,4.6978,4.7692,4.7535,4.6006,4.7297,4.8684,4.9865,5.098,5.1669,5.1922,5.3225,5.4544,5.5634,5.6811,5.7868,5.8753,6.0484,6.1682,6.1896,6.2542,6.3147,6.3674,6.3745,6.3484,6.2771,6.3002,6.2811,6.1446,6.1999,6.2633,6.2239,6.188,6.1401,6.1029,6.1208,6.1751,6.2158,6.2837,6.3442,6.3906,6.4574,6.5161,6.5498,6.5585,6.5772,6.6001,6.5838,6.5724,6.6188,6.6866,6.7876,6.9288,7.0536,7.1548,8.5109,8.435,8.3592,8.2811,8.1948,8.1143,8.0235,7.9143,0.0,0.0,0.0,7.4695,7.4236,7.313,7.3716,7.3647,7.3095,7.2978,7.2899,7.2899,7.2761,7.2623,7.2485,7.2485,7.206,7.1301,7.0577,6.968,6.8704,6.8438,6.8231,6.8162,6.9759,7.0691,7.0898,7.2071,7.176,6.9966,6.8852,6.7886,6.6989,6.4782,6.2186,5.928,5.6547,5.4306,5.2643,5.0686,4.9858,5.0314,4.9169,4.8839,4.9498,4.8986,4.8702,4.8806,4.8813,4.8771,4.8654,4.8647,4.8875,4.9375,5.0141,5.0271,4.9488,5.0148,5.1212,5.2745,5.308,5.354,5.4235,5.5091,5.6061,5.726,5.8185,5.8972,5.9552,6.1053,6.1911,6.1545,6.2496,6.3455,6.4045,6.3843,6.3744,6.3577,6.3092,6.2704,6.1511,6.1315,6.123,6.0739,6.0543,6.0552,6.0555,6.0537,6.0833,6.1379,6.2013,6.2789,6.3587,6.4356,6.488,6.5054,6.5222,6.5264,6.5377,6.5241,6.5308,6.5404,6.6061,6.7094,6.8626,7.0017,7.1031,8.6626,8.5902,8.519,8.4052,8.2707,8.1948,8.0465,7.8465,7.6833,7.5971,7.5764,7.5167,7.4787,7.4615,7.4718,7.4684,7.4546,7.3923,7.3647,7.3623,7.3002,7.2347,7.1681,7.1681,7.1267,7.0542,6.9818,6.999,7.0784,6.9749,7.0035,7.1588,7.1543,7.1681,7.2347,7.2588,7.2519,7.2174,7.0173,6.8438,6.6989,6.4772,6.2461,6.0116,5.8323,5.6383,5.4279,5.3245,5.2486,5.1927,5.1686,5.1617,5.1743,5.1612,5.162,5.16,5.1607,5.1627,5.157,5.1605,5.1632,5.1755,5.2452,5.253,5.1576,5.1602,5.2312,5.3823,5.4973,5.5815,5.6143,5.7155,5.7947,5.8338,5.9652,6.0331,5.9859,6.163,6.2898,6.2816,6.3071,6.3263,6.3455,6.2521,6.1615,6.1119,6.1519,6.1509,6.1146,6.0203,5.9509,5.9301,5.9275,5.9275,5.9399,5.9291,5.9478,5.9413,5.9722,6.0319,6.1128,6.1884,6.2734,6.3641,6.3972,6.4208,6.4625,6.4262,6.429,6.4691,6.5474,6.6538,6.7967,6.9018,6.9946,8.6971,8.6294,8.5902,8.5156,8.4018,8.2466,8.0983,7.9488,7.8005,7.6867,7.6143,7.6097,7.5925,7.5546,7.5546,7.5546,7.5511,7.4764,7.4384,7.4384,7.4039,7.3695,7.3315,7.2957,7.2371,7.1622,7.0853,7.0646,7.0853,7.0611,7.1036,7.2026,7.2509,7.2933,7.3278,7.3278,7.3313,7.3244,7.1439,6.9956,6.8818,6.6231,6.4136,6.2634,5.9625,5.7409,5.6383,5.4831,5.3624,5.29,5.2831,5.2651,5.223,5.2195,5.2195,5.2195,5.2195,5.2195,5.2195,5.2996,5.3444,5.3486,5.4555,5.5054,5.4606,5.4178,5.4386,5.5506,5.6202,5.657,5.6666,5.7556,5.8484,5.9269,6.0332,6.0996,6.1251,6.2338,6.3154,6.2925,6.2868,6.2846,6.2936,6.1936,6.1146,6.0839,6.0844,6.0732,6.0685,5.9763,5.8995,5.8995,5.8995,5.9004,5.8995,5.8995,5.8995,5.8995,5.9383,5.9918,6.0687,6.1404,6.2289,6.328,6.3556,6.3731,6.4046,6.3828,6.3816,6.4048,6.5127,6.6261,6.7324,6.8357,6.9385,8.7006,8.6053,8.6225,8.5777,8.4742,8.2488,8.1074,8.0235,7.9109,7.7867,7.6798,7.7028,7.6891,7.6373,7.635,7.6339,7.6235,7.5546,7.519,7.5156,7.4983,7.488,7.4856,7.4292,7.3681,7.2933,7.2129,7.1484,7.1025,7.1508,7.1957,7.236,7.3464,7.405,7.4061,7.4061,7.3957,7.3716,7.244,7.1405,7.0577,6.7714,6.5861,6.5023,6.1323,5.9047,5.859,5.6797,5.5349,5.4494,5.4425,5.4038,5.3314,5.3245,5.3168,5.2996,5.2954,5.2954,5.303,5.4245,5.5004,5.5038,5.6418,5.728,5.7245,5.69,5.6693,5.7012,5.7226,5.7321,5.7494,5.8218,5.9026,6.0001,6.0862,6.1545,6.2043,6.2899,6.3206,6.2639,6.2652,6.2783,6.2609,6.2057,6.1512,6.1225,6.0523,6.0,6.0073,5.9521,5.903,5.8995,5.8995,5.8995,5.8995,5.8995,5.8995,5.8995,5.9452,6.0048,6.0791,6.1664,6.2471,6.3115,6.3512,6.36,6.36,6.36,6.3634,6.3772,6.486,6.6198,6.7225,6.8122,6.8893,8.726,8.557,8.604,8.5419,8.3937,8.173,8.0385,7.9695,7.9454,7.8971,7.8178,7.7488,7.7201,7.7097,7.7097,7.7097,7.7028,7.6315,7.5994,7.5902,7.5225,7.488,7.4983,7.4856,7.4419,7.3716,7.2968,7.2578,7.2485,7.2554,7.3268,7.4442,7.4742,7.4811,7.4776,7.48,7.4477,7.383,7.3002,7.2198,7.1267,6.8438,6.6851,6.6748,6.4368,6.2393,6.1082,6.0142,5.8978,5.7667,5.7418,5.7107,5.6426,5.6322,5.6012,5.5306,5.5237,5.5272,5.5314,5.6081,5.6598,5.6702,5.7935,5.8797,5.8832,5.9349,5.9159,5.8323,5.8452,5.8728,5.89,6.0073,6.0677,6.0411,6.1535,6.2121,6.182,6.2699,6.3293,6.2601,6.3032,6.3471,6.3229,6.2643,6.2004,6.1228,6.0287,5.9616,5.9892,5.959,5.9073,5.903,5.8995,5.8995,5.8995,5.8995,5.8995,5.9004,5.9107,5.9659,6.0428,6.1128,6.1701,6.2887,6.325,6.36,6.36,6.36,6.36,6.3781,6.4826,6.6313,6.7555,6.8141,6.8274,8.7777,8.6489,8.6363,8.5432,8.3868,8.2523,8.1557,8.0833,8.035,7.9959,7.9626,7.889,7.8557,7.8511,7.8109,7.7902,7.7867,7.7109,7.6753,7.6718,7.6408,7.6259,7.6235,7.5787,7.5453,7.5119,7.435,7.4016,7.4005,7.4005,7.4315,7.4869,7.5207,7.5382,7.5371,7.5226,7.4988,7.4656,7.3524,7.2965,7.2678,6.9406,6.7965,6.8546,6.5786,6.4143,6.3866,6.2471,6.0849,5.9392,5.8797,5.8211,5.7487,5.7047,5.6667,5.6314,5.6314,5.6314,5.6314,5.7418,5.8107,5.8107,5.9521,6.0349,6.0383,6.0659,6.0521,6.0038,5.9806,5.9875,6.0358,6.1358,6.1884,6.1746,6.254,6.2988,6.2747,6.3186,6.3436,6.3195,6.3022,6.2953,6.285,6.2255,6.1496,6.0875,6.0323,6.022,5.9702,5.9564,5.9521,5.9107,5.8995,5.8995,5.8995,5.8995,5.8995,5.9064,5.9418,5.9987,6.0696,6.1483,6.2271,6.2981,6.3347,6.3565,6.36,6.36,6.3634,6.3954,6.4851,6.6334,6.7807,6.8083,6.8083,8.8019,8.7006,8.6075,8.504,8.3971,8.3212,8.2362,8.1523,8.1074,8.0821,8.0545,8.0247,8.0005,7.9695,7.8833,7.8396,7.8281,7.758,7.7201,7.7201,7.7201,7.7201,7.7132,7.6649,7.6384,7.627,7.558,7.5157,7.5159,7.5214,7.5306,7.547,7.5796,7.6004,7.597,7.5755,7.5515,7.5208,7.4036,7.3557,7.3375,7.0601,6.9498,7.0423,6.7236,6.5631,6.6384,6.445,6.2657,6.122,6.0392,5.9625,5.8875,5.8323,5.7943,5.7702,5.7314,5.7288,5.7702,5.8728,5.9418,5.9728,6.0909,6.1634,6.1634,6.1634,6.1737,6.1875,6.1263,6.1056,6.1289,6.2195,6.2678,6.2574,6.317,6.36,6.3565,6.36,6.36,6.3565,6.3186,6.2781,6.2721,6.2169,6.1531,6.1125,6.1108,6.0996,5.9987,6.0151,6.0289,5.9737,5.9659,5.9444,5.9142,5.928,5.928,5.9487,5.9978,6.0669,6.1268,6.1956,6.2494,6.2825,6.3312,6.3565,6.36,6.36,6.3876,6.4333,6.5127,6.6334,6.7807,6.8014,6.8083,8.7708,8.6235,8.4717,8.4141,8.3924,8.3235,8.2063,8.0913,8.1419,8.1316,8.0798,8.1328,8.1259,8.0488,7.9143,7.843,7.8281,7.7557,7.7201,7.7201,7.7201,7.7201,7.7201,7.7155,7.7132,7.6994,7.6351,7.5918,7.5705,7.5918,7.6273,7.6633,7.6622,7.6702,7.6622,7.6427,7.6062,7.5288,7.4571,7.3911,7.3206,7.2074,7.1626,7.1891,6.9045,6.7507,6.7729,6.6293,6.4771,6.3496,6.2747,6.1988,6.1254,6.1039,6.0668,5.9944,5.8659,5.8564,5.978,6.0185,6.053,6.1211,6.2057,6.2471,6.254,6.248,6.2678,6.3367,6.2678,6.2091,6.1703,6.2678,6.3195,6.2721,6.316,6.3565,6.36,6.36,6.36,6.36,6.3496,6.3427,6.3471,6.2895,6.2447,6.2162,6.1757,6.1257,6.11,6.1142,6.1151,6.1082,6.0944,6.0659,5.9452,5.9694,6.0082,6.0185,6.0565,6.128,6.1537,6.188,6.2334,6.2747,6.3234,6.3556,6.36,6.3841,6.4333,6.4782,6.5196,6.6334,6.73,6.7876,6.798,8.7841,8.6393,8.5386,8.4666,8.4164,8.3584,8.2763,8.1847,8.1774,8.1638,8.1454,8.1707,8.1638,8.1316,8.027,7.9281,7.8385,7.758,7.7201,7.7201,7.7201,7.7201,7.719,7.7031,7.7043,7.7098,7.6756,7.6495,7.6416,7.6382,7.6439,7.6553,7.6426,7.6345,7.631,7.61,7.5846,7.5563,7.5246,7.502,7.4646,7.348,7.3187,7.3776,7.0562,6.8661,6.8631,6.7565,6.6593,6.5807,6.5058,6.4299,6.3496,6.2574,6.1712,6.0978,6.0383,6.0565,6.1539,6.2126,6.2668,6.3393,6.3703,6.391,6.3816,6.3505,6.3333,6.3505,6.3402,6.3022,6.2953,6.3298,6.3505,6.3298,6.3436,6.36,6.36,6.36,6.36,6.36,6.36,6.36,6.354,6.3351,6.3041,6.2618,6.2645,6.23,6.1608,6.1712,6.1919,6.1461,6.1289,6.1108,6.0694,6.0668,6.0884,6.0771,6.1013,6.1799,6.222,6.2641,6.3131,6.3156,6.3478,6.3556,6.36,6.3669,6.423,6.4747,6.523,6.5713,6.6472,6.7221,6.7463,8.7961,8.6642,8.6061,8.5262,8.4306,8.3949,8.3469,8.2847,8.2537,8.2416,8.2476,8.2488,8.2385,8.2052,8.135,8.0257,7.8971,7.8029,7.7546,7.7444,7.7192,7.7055,7.6999,7.7057,7.7137,7.7342,7.74,7.7387,7.7238,7.6986,7.6802,7.6708,7.6328,7.611,7.6063,7.584,7.5676,7.5676,7.5676,7.5676,7.5574,7.474,7.4269,7.4091,7.1773,7.0099,6.9518,6.834,6.7456,6.6922,6.6468,6.5989,6.5359,6.4264,6.3367,6.2816,6.2324,6.2505,6.3402,6.385,6.4255,6.5023,6.529,6.5403,6.5117,6.4851,6.4609,6.4402,6.4057,6.3954,6.391,6.3738,6.36,6.36,6.36,6.36,6.36,6.36,6.36,6.36,6.36,6.36,6.36,6.36,6.3367,6.2894,6.3333,6.3057,6.2393,6.2427,6.2703,6.2186,6.2151,6.2013,6.1806,6.1875,6.1815,6.1712,6.1841,6.2498,6.2852,6.3308,6.354,6.36,6.36,6.36,6.36,6.36,6.3979,6.4531,6.491,6.5334,6.6024,6.6713,6.7093,8.7887,8.6658,8.656,8.5539,8.4332,8.4199,8.3967,8.3504,8.3463,8.3483,8.3573,8.3784,8.3231,8.2831,8.2049,8.1208,8.0171,7.9097,7.8385,7.8018,7.732,7.6931,7.6838,7.735,7.76,7.7657,7.8294,7.8436,7.803,7.7594,7.7263,7.7018,7.6359,7.6063,7.6098,7.5816,7.5676,7.5676,7.5676,7.5676,7.5676,7.554,7.4943,7.385,7.2755,7.1773,7.0804,6.8774,6.7505,6.7064,6.702,6.7024,6.6782,6.6093,6.5782,6.5437,6.4402,6.4437,6.5619,6.529,6.5324,6.6162,6.6679,6.6748,6.6403,6.6472,6.6437,6.592,6.5196,6.4738,6.4669,6.4152,6.3669,6.36,6.36,6.36,6.36,6.36,6.36,6.36,6.36,6.36,6.36,6.36,6.3531,6.3505,6.354,6.3531,6.3289,6.3324,6.3496,6.3462,6.3186,6.2884,6.2953,6.3022,6.285,6.2756,6.3022,6.3377,6.3308,6.3574,6.3574,6.36,6.36,6.36,6.36,6.3634,6.3841,6.4289,6.46,6.4945,6.5635,6.6324,6.7058,8.7186,8.6704,8.5639,8.4655,8.3833,8.3933,8.3667,8.3108,8.3238,8.3376,8.3348,8.2915,8.2847,8.2952,8.2504,8.1987,8.1459,8.0763,7.9851,7.8887,7.8311,7.8151,7.8219,7.8165,7.8078,7.8124,7.8304,7.8132,7.7674,7.7318,7.6815,7.6213,7.5964,7.5816,7.5828,7.5711,7.5676,7.5676,7.5676,7.5676,7.5676,7.5676,7.5439,7.4977,7.3827,7.2745,7.1874,7.0051,6.9072,6.898,6.8732,6.8128,6.7196,6.6782,6.6654,6.6541,6.5757,6.6137,6.7783,6.7507,6.7507,6.8552,6.8724,6.8517,6.8138,6.7448,6.7231,6.7196,6.63,6.5679,6.5955,6.5083,6.4255,6.3687,6.36,6.36,6.3669,6.3634,6.36,6.36,6.36,6.36,6.36,6.3609,6.3643,6.36,6.3643,6.3643,6.36,6.36,6.36,6.36,6.3574,6.354,6.3402,6.3324,6.3229,6.316,6.3393,6.36,6.36,6.36,6.36,6.36,6.36,6.36,6.36,6.3669,6.3841,6.3841,6.4014,6.4565,6.5255,6.5911,6.6506,8.74,8.6758,8.5574,8.4437,8.355,8.3687,8.3566,8.3296,8.3701,8.3965,8.3939,8.3601,8.3418,8.3545,8.3286,8.2869,8.2349,8.2054,8.1386,8.037,7.9281,7.904,7.9178,7.941,7.9578,7.9713,7.9544,7.917,7.8683,7.7757,7.7075,7.6635,7.598,7.5709,7.5676,7.5676,7.5676,7.5676,7.5676,7.5676,7.5676,7.5676,7.5676,7.5506,7.4537,7.3713,7.3128,7.1657,7.0531,7.0067,6.9783,6.9094,6.799,6.7862,6.7714,6.7369,6.7093,6.7369,6.8611,6.8231,6.8428,6.9301,6.9656,6.937,6.899,6.8162,6.8463,6.8305,6.7187,6.662,6.7049,6.6324,6.5255,6.454,6.391,6.3781,6.3919,6.4014,6.4014,6.4048,6.4048,6.3876,6.3678,6.3915,6.3862,6.3731,6.3828,6.3818,6.3731,6.36,6.36,6.36,6.36,6.36,6.36,6.3565,6.3565,6.3531,6.3531,6.36,6.36,6.36,6.36,6.36,6.36,6.36,6.36,6.36,6.3703,6.36,6.3634,6.4186,6.4807,6.5117,6.5738,8.8206,8.6941,8.6095,8.4924,8.3693,8.3639,8.3634,8.383,8.4629,8.4964,8.5125,8.4907,8.475,8.4353,8.4093,8.3581,8.2956,8.2845,8.2675,8.2004,8.0819,7.9886,7.9826,8.0657,8.1376,8.1858,8.1397,8.1059,8.053,7.8914,7.8,7.7548,7.642,7.5743,7.5709,7.5676,7.5676,7.5676,7.5676,7.5676,7.5676,7.5676,7.5676,7.5676,7.5067,7.4581,7.421,7.3175,7.1755,7.0196,7.0189,6.9966,6.9483,6.9335,6.8956,6.8369,6.8256,6.8266,6.8335,6.8542,6.8576,6.8921,6.9852,6.9877,6.9019,6.9522,6.9784,6.9315,6.7945,6.7369,6.7852,6.73,6.6541,6.5817,6.4713,6.4299,6.4669,6.4772,6.4772,6.4772,6.4738,6.4531,6.4032,6.4454,6.4341,6.4044,6.4254,6.4226,6.3947,6.3772,6.3643,6.3678,6.3772,6.36,6.36,6.36,6.36,6.36,6.36,6.36,6.36,6.36,6.36,6.36,6.36,6.36,6.36,6.36,6.36,6.36,6.3738,6.4014,6.4358,6.4772,6.529,8.8071,8.7583,8.6332,8.5215,8.439,8.4323,8.3686,8.304,8.4205,8.4474,8.4154,8.4018,8.4282,8.448,8.4146,8.3741,8.3462,8.3532,8.3154,8.2592,8.2579,8.2079,8.1663,8.1887,8.2238,8.2361,8.1744,8.1021,8.0445,7.9363,7.8314,7.7198,7.6906,7.6284,7.5811,7.5777,7.5676,7.5676,7.5709,7.5709,7.5709,7.5709,7.5676,7.5676,7.5506,7.5122,7.4639,7.3945,7.2742,7.0968,7.0516,7.0335,7.0094,7.0094,6.9956,6.9725,6.9715,6.9749,6.9749,6.9725,6.999,7.0542,7.0818,7.1043,7.0678,7.0412,7.0356,6.9844,6.8739,6.8093,6.8576,6.7817,6.6782,6.6033,6.5575,6.5378,6.5516,6.5575,6.5575,6.5575,6.5575,6.5437,6.5293,6.5324,6.5258,6.4672,6.4619,6.4741,6.4471,6.3945,6.3807,6.4057,6.4083,6.3772,6.36,6.36,6.36,6.36,6.36,6.36,6.36,6.36,6.36,6.36,6.36,6.36,6.36,6.36,6.36,6.36,6.3669,6.3876,6.4358,6.4807,6.523,8.8105,8.7448,8.6278,8.552,8.5046,8.4424,8.3646,8.3139,8.3727,8.3917,8.3571,8.3503,8.3883,8.4539,8.4312,8.4109,8.4003,8.4122,8.3892,8.355,8.3727,8.3646,8.3375,8.3342,8.3342,8.3206,8.2238,8.1596,8.0953,7.979,7.864,7.7976,7.7502,7.7096,7.6804,7.6669,7.6669,7.6635,7.6398,7.6229,7.6183,7.5845,7.5709,7.5676,7.5676,7.5439,7.5034,7.4682,7.3581,7.2032,7.157,7.1301,7.0508,7.0715,7.0715,7.0484,7.0415,7.038,7.0415,7.0415,7.0577,7.0991,7.1267,7.1284,7.0991,7.0605,7.0407,7.0228,6.8971,6.8665,6.8887,6.8162,6.7541,6.7413,6.7024,6.6713,6.6413,6.6368,6.6378,6.6368,6.6334,6.6196,6.5999,6.6144,6.5927,6.5535,6.5585,6.5516,6.5265,6.4565,6.4186,6.4496,6.4264,6.385,6.3669,6.3634,6.36,6.36,6.3738,6.3738,6.36,6.36,6.36,6.36,6.36,6.36,6.36,6.36,6.36,6.36,6.36,6.3876,6.4427,6.4898,6.5312,8.826,8.7062,8.6176,8.5905,8.577,8.4336,8.3714,8.3625,8.3727,8.3659,8.3524,8.3592,8.4052,8.458,8.4518,8.4559,8.4546,8.4518,8.4539,8.4424,8.4478,8.4411,8.4343,8.4323,8.4255,8.4018,8.3003,8.2327,8.1562,8.0061,7.9249,7.8809,7.8314,7.8056,7.7751,7.7853,7.7988,7.7718,7.7278,7.7007,7.6906,7.6487,7.6183,7.5946,7.5743,7.5676,7.5567,7.5328,7.4423,7.2463,7.3149,7.2618,7.1281,7.1601,7.1439,7.1025,7.1001,7.0956,7.0484,7.0508,7.0577,7.0784,7.1232,7.1246,7.0801,7.066,7.0575,7.0416,6.908,6.871,6.8783,6.8438,6.83,6.8404,6.8266,6.7783,6.73,6.7127,6.7127,6.7127,6.7127,6.6748,6.656,6.658,6.685,6.6181,6.6275,6.624,6.592,6.5334,6.5117,6.5221,6.4669,6.385,6.3747,6.3678,6.3634,6.3634,6.3876,6.391,6.3634,6.36,6.36,6.36,6.36,6.36,6.36,6.36,6.3669,6.3841,6.4014,6.4324,6.4678,6.5048,6.5431,8.8361,8.8477,8.6582,8.6481,8.709,8.5303,8.4343,8.4323,8.4323,8.3964,8.3727,8.4086,8.4411,8.458,8.458,8.458,8.458,8.458,8.458,8.458,8.458,8.458,8.458,8.4546,8.4255,8.368,8.2868,8.2137,8.1325,8.0581,7.9667,7.9181,7.9092,7.8585,7.8259,7.8259,7.8022,7.7988,7.7853,7.7785,7.7751,7.7515,7.7109,7.6589,7.606,7.5709,7.5687,7.5635,7.5271,7.4787,7.4517,7.4276,7.3766,7.3891,7.3453,7.2612,7.2647,7.2267,7.0991,7.1084,7.1301,7.137,7.1543,7.1446,7.1321,7.1239,7.0942,7.0437,6.9582,6.8966,6.8576,6.829,6.8256,6.8369,6.8266,6.8049,6.7911,6.7852,6.7773,6.7807,6.7807,6.7773,6.7601,6.7541,6.7448,6.6955,6.6817,6.6896,6.6551,6.6102,6.5955,6.5955,6.5227,6.4478,6.4117,6.4048,6.391,6.4014,6.4255,6.4427,6.4152,6.391,6.4048,6.3876,6.36,6.3669,6.3979,6.391,6.4014,6.422,6.454,6.4954,6.5293,6.55,6.5815,8.824,8.8375,8.6548,8.665,8.7516,8.5608,8.458,8.4512,8.4221,8.3849,8.3659,8.395,8.4242,8.458,8.458,8.458,8.458,8.458,8.458,8.458,8.458,8.458,8.4478,8.4221,8.3828,8.3355,8.234,8.1676,8.1236,8.0898,8.0513,8.0175,8.0107,8.0276,7.9883,7.9375,7.9308,7.9375,7.8822,7.8517,7.8483,7.8157,7.765,7.7029,7.6454,7.6115,7.5755,7.584,7.5872,7.5845,7.5798,7.547,7.511,7.5225,7.4822,7.4074,7.4005,7.3867,7.2901,7.2798,7.297,7.2578,7.2578,7.2363,7.2035,7.1777,7.1336,7.0873,7.0252,6.9518,6.8783,6.868,6.8576,6.8152,6.8083,6.8083,6.8083,6.8083,6.8083,6.8083,6.8049,6.8049,6.8083,6.8083,6.8014,6.7472,6.7472,6.7507,6.7388,6.6974,6.6664,6.6437,6.5794,6.5164,6.4685,6.4462,6.4289,6.4531,6.491,6.5092,6.5058,6.4851,6.4644,6.4402,6.4186,6.4506,6.4747,6.4609,6.4609,6.5023,6.5403,6.5748,6.6062,6.6295,6.67,8.7955,8.8023,8.6345,8.6535,8.7482,8.5574,8.4695,8.4695,8.3998,8.3828,8.3693,8.3659,8.4187,8.4478,8.458,8.458,8.458,8.458,8.458,8.458,8.458,8.458,8.4458,8.3964,8.3456,8.3219,8.2035,8.1372,8.1304,8.1304,8.1224,8.1372,8.1439,8.1494,8.1832,8.1291,8.075,8.1033,8.031,7.9667,7.9498,7.8969,7.836,7.757,7.7164,7.669,7.6219,7.6135,7.627,7.6425,7.661,7.6118,7.5711,7.5753,7.5925,7.5121,7.5063,7.4787,7.4477,7.458,7.4419,7.3992,7.3957,7.3668,7.3082,7.2647,7.2302,7.1726,7.1139,7.0266,6.9577,6.9439,6.9059,6.8576,6.83,6.8221,6.8118,6.8083,6.8083,6.8083,6.8083,6.8083,6.8083,6.8083,6.8083,6.8083,6.8083,6.8059,6.7896,6.7733,6.7388,6.7064,6.6488,6.5819,6.5305,6.5117,6.491,6.5117,6.5541,6.5713,6.5895,6.5792,6.5541,6.5092,6.5014,6.5299,6.5437,6.5368,6.5506,6.592,6.6196,6.6437,6.6771,6.7125,6.7457,8.7786,8.868,8.596,8.6014,8.7482,8.5574,8.4965,8.5384,8.4695,8.4424,8.439,8.4424,8.4424,8.458,8.458,8.458,8.458,8.458,8.458,8.458,8.458,8.458,8.4458,8.3862,8.3253,8.2509,8.1778,8.1405,8.1304,8.1304,8.1799,8.2124,8.2205,8.2374,8.2462,8.2137,8.1921,8.2137,8.1697,8.1291,8.0851,8.0593,7.9883,7.8742,7.8179,7.7515,7.6893,7.6705,7.6588,7.6202,7.6204,7.6324,7.6416,7.6755,7.6592,7.6097,7.5891,7.5684,7.5259,7.5018,7.488,7.4707,7.4718,7.468,7.4436,7.4266,7.3671,7.3029,7.2084,7.106,7.0301,7.0301,6.9863,6.938,6.9059,6.8887,6.8404,6.83,6.8276,6.8295,6.8216,6.8083,6.8083,6.8083,6.8083,6.8083,6.8083,6.8083,6.8024,6.7955,6.7886,6.7586,6.7301,6.6557,6.5891,6.5807,6.5713,6.5886,6.6196,6.6368,6.6506,6.6654,6.6437,6.6127,6.5851,6.5851,6.5955,6.6093,6.6334,6.6713,6.6886,6.7058,6.7339,6.761,6.7728,8.7299,8.7719,8.554,8.5675,8.6907,8.5439,8.5067,8.5601,8.4965,8.458,8.458,8.458,8.458,8.458,8.458,8.458,8.458,8.458,8.458,8.458,8.458,8.458,8.4525,8.3862,8.3389,8.2847,8.2272,8.1676,8.1439,8.215,8.2543,8.2847,8.2983,8.3139,8.3227,8.2767,8.2733,8.278,8.2611,8.2272,8.19,8.1866,8.1054,7.9972,7.9295,7.8597,7.7684,7.7468,7.7217,7.6878,7.7028,7.7039,7.7033,7.7216,7.7307,7.6788,7.6615,7.6511,7.6155,7.6052,7.596,7.5546,7.5511,7.5257,7.5025,7.4751,7.4604,7.3856,7.3384,7.2198,7.1129,7.137,7.1001,7.0128,6.9897,6.971,6.9395,6.9262,6.903,6.8715,6.8443,6.8276,6.8083,6.8083,6.8083,6.8083,6.8083,6.8083,6.8083,6.8083,6.8083,6.7881,6.7581,6.7128,6.6556,6.6531,6.6472,6.6644,6.6817,6.7024,6.7162,6.73,6.7369,6.7231,6.6989,6.6585,6.6955,6.7265,6.7369,6.7438,6.7507,6.7645,6.7876,6.8083,6.8083,8.7062,8.7211,8.554,8.5709,8.6724,8.5506,8.5215,8.5567,8.4965,8.458,8.458,8.458,8.458,8.458,8.458,8.458,8.458,8.458,8.458,8.458,8.458,8.458,8.4424,8.4086,8.3646,8.3321,8.3253,8.2441,8.2205,8.2827,8.3422,8.3693,8.3714,8.395,8.414,8.3511,8.3375,8.3308,8.3172,8.28,8.2665,8.2395,8.19,8.0784,8.0648,7.9972,7.8733,7.853,7.8062,7.7733,7.7728,7.7794,7.7158,7.749,7.7594,7.7249,7.7167,7.7201,7.7166,7.7097,7.6753,7.6339,7.6304,7.596,7.558,7.5384,7.496,7.4361,7.3981,7.3602,7.2671,7.2809,7.2302,7.137,7.0898,7.0711,7.0358,7.0116,6.9848,6.9444,6.8848,6.8527,6.8404,6.8083,6.8083,6.8083,6.8083,6.8083,6.8083,6.8083,6.8049,6.798,6.7753,6.7487,6.7256,6.7256,6.7221,6.7256,6.7463,6.7645,6.7817,6.7945,6.7921,6.7817,6.761,6.7334,6.7852,6.8083,6.7876,6.7807,6.8014,6.8083,6.8083,6.8083,6.8083,8.7651,8.8646,8.6514,8.6514,8.7516,8.623,8.5702,8.5702,8.4965,8.4614,8.458,8.458,8.458,8.458,8.458,8.458,8.458,8.458,8.458,8.458,8.458,8.4647,8.4661,8.4546,8.4153,8.3896,8.4086,8.3896,8.3389,8.3456,8.3862,8.4289,8.4424,8.4559,8.4661,8.4525,8.439,8.4458,8.4356,8.4018,8.3456,8.2902,8.2496,8.2158,8.1955,8.1359,8.004,7.9748,7.9244,7.8071,7.8016,7.7765,7.7268,7.7191,7.7121,7.7011,7.7031,7.7201,7.7235,7.7201,7.7166,7.6959,7.6959,7.6994,7.658,7.5994,7.5615,7.5867,7.5143,7.4488,7.4039,7.4373,7.3764,7.2888,7.2071,7.1456,7.0965,7.1038,7.078,7.0556,7.0088,6.9256,6.8773,6.8394,6.8083,6.8083,6.8083,6.8118,6.8083,6.8083,6.8083,6.8014,6.798,6.7738,6.7645,6.7704,6.7704,6.7773,6.7911,6.8083,6.8152,6.8152,6.8152,6.8014,6.7921,6.7852,6.799,6.8083,6.8083,6.8083,6.8083,6.8083,6.8083,6.8083,6.8083,8.665,8.7157,8.621,8.665,8.7732,8.6413,8.6041,8.6129,8.5134,8.458,8.458,8.458,8.458,8.458,8.458,8.458,8.458,8.458,8.458,8.458,8.4614,8.483,8.51,8.4864,8.4492,8.4708,8.4627,8.4424,8.4153,8.4153,8.4356,8.4627,8.5033,8.5283,8.5303,8.5709,8.5587,8.5418,8.5249,8.5127,8.4789,8.4403,8.3862,8.3084,8.3037,8.2205,8.119,8.0796,8.0086,7.9025,7.8923,7.8754,7.8225,7.8164,7.8242,7.7548,7.7583,7.7502,7.7271,7.7235,7.7235,7.7235,7.7235,7.7166,7.6959,7.6235,7.5753,7.6029,7.4947,7.443,7.4395,7.4281,7.3671,7.3106,7.283,7.2437,7.1847,7.1815,7.1739,7.1525,7.1277,7.057,6.9887,6.9508,6.9089,6.8586,6.8591,6.8621,6.8369,6.8083,6.8083,6.8083,6.8049,6.8014,6.7945,6.798,6.7911,6.7945,6.7945,6.8118,6.8221,6.8256,6.8374,6.8487,6.8532,6.8394,6.8187,6.8083,6.8083,6.8083,6.8083,6.8128,6.8162,6.8083,6.8128,8.5587,8.577,8.5804,8.6548,8.7583,8.6345,8.6095,8.6399,8.5202,8.458,8.458,8.458,8.458,8.458,8.458,8.458,8.458,8.458,8.458,8.458,8.4661,8.4931,8.5033,8.4864,8.4898,8.5533,8.4796,8.4728,8.4898,8.4898,8.4898,8.4931,8.5452,8.5824,8.6163,8.6433,8.6467,8.6129,8.6061,8.5939,8.5702,8.5669,8.4877,8.42,8.3625,8.3084,8.1832,8.1562,8.0851,7.9803,7.9769,7.9497,7.8739,7.8822,7.8815,7.8207,7.7959,7.7904,7.7708,7.7615,7.7408,7.7373,7.7235,7.7201,7.7063,7.6029,7.5649,7.6442,7.5695,7.4912,7.444,7.4499,7.4016,7.3578,7.3071,7.2899,7.2761,7.2588,7.244,7.2246,7.2122,7.2246,7.1588,7.1001,7.0258,6.9347,6.911,6.9124,6.8813,6.8433,6.8152,6.8187,6.8187,6.8187,6.8162,6.8162,6.8118,6.8152,6.8152,6.835,6.8586,6.8739,6.8865,6.8989,6.9112,6.8635,6.8266,6.8152,6.8083,6.8152,6.8221,6.8266,6.8231,6.8197,6.8473,8.5114,8.5804,8.577,8.623,8.6961,8.6142,8.5838,8.5905,8.4999,8.4614,8.458,8.458,8.458,8.458,8.458,8.458,8.458,8.458,8.4661,8.4661,8.4614,8.4783,8.4965,8.4999,8.4796,8.4952,8.4986,8.5303,8.5567,8.5689,8.5702,8.577,8.6108,8.6366,8.6636,8.6961,8.7144,8.6907,8.6907,8.6433,8.6108,8.5838,8.5384,8.4695,8.4377,8.3836,8.2462,8.2327,8.1663,8.0242,8.0276,8.0006,7.9336,7.9331,7.916,7.8782,7.8345,7.8521,7.8741,7.8097,7.7729,7.7867,7.7695,7.7201,7.7166,7.7132,7.7028,7.6856,7.6212,7.6063,7.5867,7.5764,7.4764,7.4223,7.3703,7.3549,7.3355,7.314,7.3002,7.2854,7.3061,7.344,7.3543,7.2992,7.1843,7.0916,7.0086,7.0088,6.9539,6.911,6.8527,6.8325,6.8325,6.829,6.8266,6.8369,6.8645,6.8576,6.8438,6.8789,6.9184,6.9287,6.9451,6.9649,6.9718,6.9028,6.8438,6.8507,6.8507,6.8394,6.8359,6.8369,6.8542,6.8645,6.9173,8.4762,8.5033,8.508,8.5777,8.6873,8.6095,8.5804,8.5669,8.4965,8.458,8.458,8.458,8.458,8.458,8.458,8.458,8.458,8.458,8.4864,8.5033,8.4965,8.5189,8.5439,8.554,8.554,8.5845,8.598,8.6081,8.6433,8.6467,8.6839,8.6974,8.709,8.7279,8.7516,8.7617,8.7786,8.7989,8.7753,8.7211,8.6636,8.6399,8.5878,8.4681,8.458,8.4086,8.3253,8.3118,8.2171,8.1304,8.0919,8.0445,7.9984,7.9962,7.9781,7.9487,7.9153,7.9459,7.9728,7.8856,7.8178,7.8074,7.7684,7.727,7.7339,7.6891,7.6891,7.6764,7.6511,7.6201,7.6177,7.5649,7.4925,7.4626,7.4382,7.4181,7.4008,7.3772,7.3764,7.3742,7.4442,7.5108,7.5108,7.5039,7.3753,7.2539,7.1687,7.0963,7.0555,7.0073,6.9627,6.936,6.9428,6.9508,6.9508,6.9439,6.937,6.9163,6.8966,6.9525,7.007,6.9974,7.0136,7.0337,7.0515,7.0154,6.9704,6.9197,6.8887,6.8739,6.8611,6.8507,6.8749,6.9197,6.9986,8.4377,8.4546,8.4343,8.5019,8.6081,8.5655,8.5418,8.5351,8.4864,8.458,8.458,8.4411,8.4289,8.4289,8.4255,8.4255,8.4187,8.4255,8.4762,8.4796,8.4762,8.5155,8.5709,8.6027,8.5892,8.6569,8.6893,8.6893,8.7245,8.7231,8.7651,8.8071,8.8328,8.8308,8.8308,8.8361,8.8612,8.8815,8.8612,8.7955,8.7347,8.6927,8.6352,8.51,8.4796,8.4187,8.3625,8.3321,8.2827,8.2048,8.1575,8.1359,8.105,8.0817,8.0681,8.0509,8.0273,8.0387,8.0452,7.989,7.8971,7.8764,7.8419,7.8063,7.7718,7.735,7.7764,7.7488,7.6649,7.6097,7.6522,7.5891,7.5546,7.5246,7.4787,7.46,7.4611,7.4475,7.4593,7.4653,7.5409,7.5891,7.5994,7.5833,7.5126,7.3902,7.2983,7.2422,7.2157,7.1636,7.1056,7.0912,7.0922,7.0991,7.1105,7.1025,7.0922,7.0508,7.0407,7.0753,7.109,7.1061,7.1363,7.1888,7.1925,7.1522,7.0881,7.0122,6.9546,6.9015,6.9128,6.938,7.0059,7.0656,7.1122,8.3917,8.4478,8.3828,8.3984,8.4647,8.4647,8.4695,8.4762,8.4647,8.458,8.4525,8.3984,8.3795,8.3795,8.3998,8.3883,8.3896,8.3815,8.412,8.4492,8.4302,8.4289,8.4999,8.5655,8.6196,8.6075,8.6771,8.7617,8.7989,8.7989,8.8409,8.8761,8.8883,8.8917,8.9066,8.9066,8.91,8.9086,8.9018,8.8545,8.7888,8.7313,8.6602,8.5689,8.508,8.4471,8.3896,8.3727,8.3253,8.2577,8.2374,8.2238,8.2048,8.1571,8.1533,8.1741,8.0709,8.0782,8.1532,8.0913,8.0281,7.9557,7.9132,7.904,7.9247,7.9178,7.8798,7.835,7.8074,7.7718,7.7304,7.6684,7.6488,7.6109,7.5718,7.5442,7.5488,7.543,7.5547,7.5629,7.5869,7.6166,7.6373,7.6408,7.6052,7.5257,7.4283,7.3764,7.3435,7.2768,7.2036,7.1991,7.1991,7.244,7.2509,7.2612,7.245,7.2002,7.1878,7.2153,7.2478,7.268,7.3067,7.354,7.3259,7.274,7.186,7.0991,7.0698,7.0508,7.0404,7.0691,7.1415,7.2002,7.2447,8.2902,8.3172,8.3389,8.3355,8.3308,8.4221,8.458,8.458,8.458,8.458,8.4546,8.4289,8.4573,8.4742,8.4403,8.4153,8.4153,8.4255,8.4512,8.4478,8.4255,8.5168,8.5845,8.6298,8.6738,8.7347,8.7955,8.8342,8.8748,8.8646,8.8781,8.9066,8.9134,8.91,8.91,8.9134,8.91,8.91,8.9018,8.8748,8.8057,8.7685,8.7042,8.5939,8.5554,8.4979,8.4289,8.4221,8.3781,8.3206,8.3139,8.2949,8.267,8.2193,8.2242,8.2402,8.1752,8.2332,8.2542,8.2109,8.1523,8.0614,7.989,7.9695,7.9523,7.9488,7.9316,7.9212,7.9143,7.8902,7.8649,7.8557,7.8316,7.7798,7.7373,7.6994,7.6891,7.666,7.6604,7.6638,7.6822,7.6753,7.6891,7.6856,7.658,7.6154,7.5212,7.4384,7.3966,7.3206,7.2485,7.2692,7.2888,7.3533,7.3912,7.4085,7.3854,7.3337,7.3262,7.3458,7.3801,7.4077,7.4412,7.4742,7.4384,7.3912,7.2877,7.2084,7.2257,7.2174,7.1864,7.1829,7.2381,7.2992,7.3567,8.2158,8.2441,8.2657,8.278,8.2915,8.3815,8.4221,8.4221,8.4221,8.4356,8.4512,8.4343,8.4221,8.4471,8.4627,8.412,8.3971,8.4444,8.458,8.458,8.458,8.5303,8.6163,8.7076,8.7448,8.8125,8.868,8.91,8.9018,8.91,8.91,8.91,8.9134,8.9134,8.9134,8.9134,8.9134,8.9134,8.9052,8.8917,8.8443,8.8037,8.7516,8.6704,8.6108,8.552,8.508,8.4728,8.4377,8.3984,8.3781,8.3625,8.3306,8.3003,8.2977,8.3027,8.3018,8.3251,8.2997,8.3077,8.2377,8.1472,8.0659,8.035,8.0281,8.0454,8.0178,8.004,7.9936,7.9867,7.9856,7.9867,7.9523,7.8936,7.8488,7.8097,7.7753,7.7522,7.7166,7.7235,7.7166,7.7201,7.7201,7.7201,7.7028,7.6579,7.6084,7.529,7.46,7.4072,7.3589,7.3785,7.4233,7.4981,7.5453,7.566,7.5326,7.4716,7.4736,7.4904,7.4913,7.5131,7.5535,7.5587,7.4698,7.3934,7.3514,7.3145,7.2954,7.2968,7.3002,7.3106,7.3382,7.375,7.4177,8.1663,8.2158,8.1608,8.215,8.3266,8.3321,8.3422,8.349,8.3524,8.3917,8.4546,8.3917,8.3727,8.3206,8.4086,8.3984,8.3308,8.4174,8.4343,8.4627,8.4695,8.5384,8.6264,8.7279,8.7888,8.8274,8.868,8.9134,8.9134,8.9134,8.9134,8.9134,8.9134,8.9134,8.9134,8.9134,8.9134,8.9134,8.91,8.9032,8.8781,8.8294,8.7922,8.7279,8.6548,8.5872,8.5384,8.5012,8.4661,8.4492,8.4492,8.4525,8.4323,8.3883,8.383,8.3759,8.3564,8.3396,8.3382,8.356,8.3198,8.2389,8.1997,8.1853,8.1603,8.135,8.1074,8.0867,8.0798,8.073,8.0649,8.0419,8.0178,7.9695,7.9212,7.8798,7.8419,7.804,7.7626,7.7419,7.7281,7.7235,7.7201,7.7201,7.7201,7.6971,7.6545,7.6131,7.5568,7.5602,7.5257,7.5326,7.5833,7.658,7.6891,7.6649,7.6442,7.574,7.6154,7.6336,7.6288,7.5928,7.5931,7.559,7.4568,7.3979,7.3862,7.3586,7.3254,7.3382,7.375,7.3727,7.3819,7.3957,7.4292,8.0648,8.0851,8.1169,8.1541,8.1913,8.1947,8.2522,8.3436,8.3503,8.3917,8.458,8.439,8.4255,8.4809,8.4695,8.4323,8.4255,8.4255,8.412,8.4356,8.4945,8.579,8.667,8.7516,8.8206,8.868,8.8998,8.9134,8.9134,8.9134,8.9134,8.9134,8.9134,8.9134,8.9134,8.9134,8.9134,8.9134,8.9134,8.9134,8.8965,8.8443,8.8192,8.7732,8.6751,8.6108,8.5723,8.51,8.4762,8.458,8.458,8.458,8.4546,8.439,8.4421,8.4642,8.4344,8.3998,8.3998,8.4049,8.3758,8.3189,8.2844,8.2369,8.2069,8.1878,8.1797,8.1787,8.1868,8.1902,8.1833,8.1592,8.1178,8.0661,8.0178,7.9729,7.9316,7.8798,7.835,7.7833,7.766,7.7316,7.7304,7.7201,7.7201,7.7132,7.6959,7.6626,7.6384,7.6339,7.6212,7.6212,7.6477,7.6925,7.7132,7.6994,7.6994,7.6925,7.7097,7.7143,7.6832,7.6449,7.6237,7.5533,7.4476,7.4322,7.4499,7.4016,7.3268,7.405,7.4453,7.4326,7.4233,7.4199,7.405,8.0209,8.0276,8.0661,8.0864,8.0932,8.1169,8.1845,8.259,8.2915,8.3477,8.4153,8.4458,8.4742,8.4755,8.4877,8.4728,8.412,8.4762,8.4796,8.4525,8.5195,8.6061,8.6907,8.7651,8.8375,8.8849,8.91,8.9134,8.91,8.91,8.9134,8.9134,8.9134,8.9134,8.9134,8.9134,8.9134,8.9134,8.9134,8.9134,8.8883,8.8646,8.8511,8.8172,8.7123,8.6602,8.6129,8.5439,8.4999,8.4695,8.458,8.458,8.458,8.4593,8.462,8.4757,8.4598,8.4384,8.4363,8.4552,8.4148,8.3743,8.3534,8.318,8.2808,8.2577,8.2688,8.2763,8.3028,8.3178,8.3075,8.2902,8.2281,8.1695,8.1212,8.073,8.0212,7.9695,7.9074,7.8454,7.8005,7.7591,7.7419,7.727,7.7201,7.7201,7.7132,7.6994,7.6753,7.6684,7.6384,7.6177,7.6477,7.6856,7.7028,7.7201,7.7166,7.7097,7.7166,7.7132,7.7074,7.6602,7.599,7.52,7.4362,7.4211,7.4037,7.3681,7.3268,7.4039,7.435,7.3912,7.375,7.3888,7.3681,8.0006,8.0006,8.0141,8.0242,8.0323,8.0999,8.1351,8.1405,8.2171,8.2847,8.3592,8.4275,8.4323,8.4302,8.4708,8.4505,8.42,8.4606,8.4708,8.4593,8.5364,8.6142,8.6738,8.7617,8.8274,8.8781,8.8965,8.8781,8.8951,8.9018,8.9134,8.9134,8.9134,8.9134,8.9134,8.9134,8.9134,8.9134,8.9134,8.91,8.9052,8.9018,8.9018,8.8883,8.8192,8.7482,8.6907,8.623,8.5486,8.5033,8.4728,8.4796,8.4796,8.4614,8.464,8.462,8.4598,8.4577,8.4596,8.4728,8.4522,8.4239,8.4143,8.3905,8.3648,8.3108,8.311,8.3348,8.3532,8.3618,8.3527,8.3762,8.35,8.2764,8.2178,8.173,8.1281,8.0523,7.9557,7.8936,7.835,7.7936,7.7339,7.7201,7.7201,7.7201,7.7201,7.7132,7.7097,7.6959,7.6718,7.635,7.6649,7.6959,7.7063,7.7201,7.7201,7.7201,7.7201,7.7201,7.7132,7.6431,7.5558,7.4792,7.4022,7.353,7.3193,7.3161,7.3268,7.3405,7.3543,7.3199,7.3268,7.3785,7.3716,7.853,7.8631,7.9735,8.0209,8.0276,8.0999,8.127,8.1372,8.2103,8.2813,8.3524,8.4187,8.4492,8.4323,8.42,8.393,8.3862,8.4268,8.3964,8.4471,8.5263,8.6041,8.6413,8.7448,8.8057,8.8158,8.8274,8.8443,8.8463,8.8781,8.9134,8.9134,8.9134,8.9134,8.9134,8.9134,8.9134,8.9134,8.9134,8.91,8.9052,8.8646,8.8409,8.8477,8.8091,8.7685,8.711,8.6514,8.6298,8.6183,8.5723,8.5587,8.5533,8.4931,8.4647,8.458,8.4546,8.4559,8.4539,8.4652,8.4557,8.4523,8.448,8.4577,8.4338,8.3696,8.3475,8.3725,8.3906,8.4005,8.4139,8.4469,8.458,8.3809,8.3143,8.273,8.2281,8.1212,8.0097,7.9419,7.8798,7.8247,7.7615,7.7327,7.7201,7.7201,7.7201,7.7201,7.7201,7.7097,7.7097,7.6856,7.6925,7.7166,7.7201,7.7201,7.7201,7.7201,7.7201,7.7201,7.7201,7.6616,7.5904,7.4634,7.3708,7.3618,7.3573,7.3472,7.352,7.3578,7.374,7.3809,7.405,7.4544,7.4233,7.8022,7.8157,7.9228,7.9735,7.9837,8.0513,8.0796,8.0999,8.1934,8.2631,8.3139,8.4018,8.4444,8.4309,8.395,8.3659,8.3693,8.4336,8.4721,8.506,8.5351,8.6129,8.6805,8.738,8.782,8.8023,8.8361,8.8497,8.8192,8.868,8.9134,8.9134,8.9134,8.9134,8.9134,8.9134,8.9134,8.9134,8.9134,8.91,8.9086,8.8781,8.8612,8.8646,8.8477,8.8057,8.7617,8.709,8.6738,8.6298,8.5554,8.5249,8.5067,8.4783,8.4411,8.4275,8.4289,8.4458,8.4356,8.4411,8.458,8.458,8.4593,8.461,8.461,8.4099,8.4297,8.4528,8.4741,8.4855,8.4919,8.517,8.4952,8.4382,8.4092,8.3799,8.2902,8.1764,8.0856,8.0097,7.966,7.935,7.881,7.8542,7.8358,7.7855,7.7752,7.7327,7.7292,7.7201,7.7201,7.7201,7.7201,7.7201,7.7201,7.7201,7.7201,7.7201,7.7201,7.7201,7.7155,7.6858,7.6227,7.5225,7.4565,7.4505,7.4449,7.4199,7.4154,7.4281,7.4511,7.4718,7.5005,7.5268,7.5141,7.7718,7.7954,7.8653,7.9046,7.9215,7.9904,8.031,8.0581,8.1697,8.2408,8.2767,8.3917,8.3984,8.4052,8.4052,8.3862,8.3896,8.4302,8.4992,8.5533,8.6027,8.6366,8.6839,8.7448,8.7719,8.8158,8.8646,8.8409,8.8057,8.868,8.9134,8.9134,8.9134,8.9134,8.9134,8.9134,8.9134,8.9134,8.9134,8.9134,8.91,8.9134,8.91,8.91,8.9066,8.8748,8.8342,8.7685,8.7076,8.6535,8.5743,8.5473,8.5371,8.5303,8.4559,8.439,8.4627,8.4458,8.4153,8.4356,8.4525,8.458,8.458,8.4593,8.4606,8.4692,8.4883,8.504,8.5256,8.5386,8.5416,8.5442,8.5193,8.4976,8.4795,8.4518,8.3381,8.2337,8.1602,8.0844,8.0476,8.0201,7.9799,7.9544,7.9072,7.8613,7.8165,7.7786,7.7418,7.7292,7.7201,7.7201,7.7201,7.7201,7.7201,7.7201,7.7201,7.7201,7.7201,7.7201,7.7155,7.6984,7.6674,7.6159,7.5663,7.5339,7.5108,7.4869,7.4938,7.5063,7.5477,7.5787,7.5798,7.6027,7.6164,7.6533,7.7164,7.7908,7.8551,7.9147,7.987,8.056,8.1067,8.1372,8.2137,8.3016,8.3456,8.3849,8.4323,8.3828,8.3592,8.3693,8.4248,8.4471,8.483,8.5642,8.6183,8.6724,8.7347,8.755,8.8071,8.8612,8.8578,8.824,8.8714,8.9134,8.9134,8.9134,8.9134,8.9134,8.9134,8.9134,8.9134,8.9134,8.9134,8.9134,8.9134,8.9134,8.9134,8.91,8.9032,8.8646,8.7685,8.7482,8.7245,8.6792,8.6386,8.6217,8.6081,8.5506,8.4762,8.4999,8.4661,8.4458,8.4323,8.4424,8.4444,8.4478,8.458,8.4593,8.4593,8.4719,8.4745,8.4917,8.5061,8.5131,8.5279,8.5147,8.5057,8.4888,8.4392,8.3584,8.2927,8.2301,8.1589,8.1027,8.0522,7.9913,7.9546,7.9028,7.8569,7.812,7.7775,7.7752,7.7522,7.7293,7.7304,7.7304,7.7201,7.7201,7.7201,7.7201,7.7201,7.7201,7.7201,7.7201,7.7201,7.6891,7.6513,7.6205,7.5872,7.5677,7.5754,7.58,7.5994,7.6546,7.6856,7.6764,7.6728,7.6876]},{"header":{"parameterUnit":"m.s-1","parameterCategory":1,"la1":31.0,"la2":29.5877,"lo1":-88.7671,"lo2":-86.6584,"dy":0.0162,"dx":0.0185,"nx":115,"ny":88,"refTime":"2023-10-06T06:00:00:Z","depth":0,"parameterNumber":3,"parameterNumberName":"V-component_of_WINDS"},"data":[0.0,0.0,0.0,0.0,0.0,0.0,0.0,0.0,0.0,0.0,0.0,0.0,0.0,0.0,0.0,0.0,0.0,0.0,0.0,0.0,0.0,0.0,0.0,0.0,0.0,0.0,0.0,0.0,0.0,0.0,0.0,0.0,0.0,0.0,0.0,0.0,0.0,0.0,0.0,0.0,0.0,0.0,0.0,0.0,0.0,0.0,0.0,0.0,0.0,0.0,0.0,0.0,0.0,0.0,0.0,0.0,0.0,0.0,0.0,0.0,0.0,0.0,0.0,0.0,0.0,0.0,0.0,0.0,0.0,0.0,0.0,0.0,0.0,0.0,0.0,0.0,0.0,0.0,0.0,0.0,0.0,0.0,0.0,0.0,0.0,0.0,0.0,0.0,0.0,0.0,0.0,0.0,0.0,0.0,0.0,0.0,0.0,0.0,0.0,0.0,0.0,0.0,0.0,0.0,0.0,0.0,0.0,0.0,0.0,0.0,0.0,0.0,0.0,0.0,0.0,0.0,0.0,0.0,0.0,0.0,0.0,0.0,0.0,0.0,0.0,0.0,0.0,0.0,0.0,0.0,0.0,0.0,0.0,0.0,0.0,0.0,0.0,0.0,0.0,0.0,0.0,0.0,0.0,0.0,0.0,0.0,0.0,0.0,0.0,0.0,0.0,0.0,0.0,0.0,0.0,0.0,0.0,0.0,0.0,0.0,0.0,0.0,0.0,0.0,0.0,0.0,0.0,0.0,0.0,0.0,0.0,0.0,0.0,0.0,0.0,0.0,0.0,0.0,0.0,0.0,0.0,0.0,0.0,0.0,0.0,0.0,0.0,0.0,0.0,0.0,0.0,0.0,0.0,0.0,0.0,0.0,0.0,0.0,0.0,0.0,0.0,0.0,0.0,0.0,0.0,0.0,0.0,0.0,0.0,0.0,0.0,0.0,0.0,0.0,0.0,0.0,0.0,0.0,0.0,0.0,0.0,0.0,0.0,0.0,0.0,0.0,0.0,0.0,0.0,0.0,0.0,0.0,0.0,0.0,0.0,0.0,0.0,0.0,0.0,0.0,0.0,0.0,0.0,0.0,0.0,0.0,0.0,0.0,0.0,0.0,0.0,0.0,0.0,0.0,0.0,0.0,0.0,0.0,0.0,0.0,0.0,0.0,0.0,0.0,0.0,0.0,0.0,0.0,0.0,0.0,0.0,0.0,0.0,0.0,0.0,0.0,0.0,0.0,0.0,0.0,0.0,0.0,0.0,0.0,0.0,0.0,0.0,0.0,0.0,0.0,0.0,0.0,0.0,0.0,0.0,0.0,0.0,0.0,0.0,0.0,0.0,0.0,0.0,0.0,0.0,0.0,0.0,0.0,0.0,0.0,0.0,0.0,0.0,0.0,0.0,0.0,0.0,0.0,0.0,0.0,0.0,0.0,0.0,0.0,0.0,0.0,0.0,0.0,0.0,0.0,0.0,0.0,0.0,0.0,0.0,0.0,0.0,0.0,0.0,0.0,0.0,0.0,0.0,0.0,0.0,0.0,0.0,0.0,0.0,0.0,0.0,0.0,0.0,0.0,0.0,0.0,0.0,0.0,0.0,0.0,0.0,0.0,0.0,0.0,0.0,0.0,0.0,0.0,0.0,0.0,0.0,0.0,0.0,0.0,0.0,0.0,0.0,0.0,0.0,0.0,0.0,0.0,0.0,0.0,0.0,0.0,0.0,0.0,0.0,0.0,0.0,0.0,0.0,0.0,0.0,0.0,0.0,0.0,0.0,0.0,0.0,0.0,0.0,0.0,0.0,0.0,0.0,0.0,0.0,0.0,0.0,0.0,0.0,0.0,0.0,0.0,0.0,0.0,0.0,0.0,0.0,0.0,0.0,0.0,0.0,0.0,0.0,0.0,0.0,0.0,0.0,0.0,0.0,0.0,0.0,0.0,0.0,0.0,0.0,0.0,0.0,0.0,0.0,0.0,0.0,0.0,0.0,0.0,0.0,0.0,0.0,0.0,0.0,0.0,0.0,0.0,0.0,0.0,0.0,0.0,0.0,0.0,0.0,0.0,0.0,0.0,0.0,0.0,0.0,0.0,0.0,0.0,0.0,0.0,0.0,0.0,0.0,0.0,0.0,0.0,0.0,0.0,0.0,0.0,0.0,0.0,0.0,0.0,0.0,0.0,0.0,0.0,0.0,0.0,0.0,0.0,0.0,0.0,0.0,0.0,0.0,0.0,0.0,0.0,0.0,0.0,0.0,0.0,0.0,0.0,0.0,0.0,0.0,0.0,0.0,0.0,0.0,0.0,0.0,0.0,0.0,0.0,0.0,0.0,0.0,0.0,0.0,0.0,0.0,0.0,0.0,0.0,0.0,0.0,0.0,0.0,0.0,0.0,0.0,0.0,0.0,0.0,0.0,0.0,0.0,0.0,0.0,0.0,0.0,0.0,0.0,0.0,0.0,0.0,0.0,0.0,0.0,0.0,0.0,0.0,0.0,0.0,0.0,0.0,0.0,0.0,0.0,0.0,0.0,0.0,0.0,0.0,0.0,0.0,0.0,0.0,0.0,0.0,0.0,0.0,0.0,0.0,0.0,0.0,0.0,0.0,0.0,0.0,0.0,0.0,0.0,0.0,0.0,0.0,0.0,0.0,0.0,0.0,0.0,0.0,0.0,0.0,0.0,0.0,0.0,0.0,0.0,0.0,0.0,0.0,0.0,0.0,0.0,0.0,0.0,0.0,0.0,0.0,0.0,0.0,0.0,0.0,0.0,0.0,0.0,0.0,0.0,0.0,0.0,0.0,0.0,0.0,0.0,0.0,0.0,0.0,0.0,0.0,0.0,0.0,0.0,0.0,0.0,0.0,0.0,0.0,0.0,0.0,0.0,0.0,0.0,0.0,0.0,0.0,0.0,0.0,0.0,0.0,0.0,0.0,0.0,0.0,0.0,0.0,0.0,0.0,0.0,0.0,0.0,0.0,0.0,0.0,0.0,0.0,0.0,0.0,0.0,0.0,0.0,0.0,0.0,0.0,0.0,0.0,0.0,0.0,0.0,0.0,0.0,0.0,0.0,0.0,0.0,0.0,0.0,0.0,0.0,0.0,0.0,0.0,0.0,0.0,0.0,0.0,0.0,0.0,0.0,0.0,0.0,0.0,0.0,0.0,0.0,0.0,0.0,0.0,0.0,0.0,0.0,0.0,0.0,0.0,0.0,0.0,0.0,0.0,0.0,0.0,0.0,0.0,0.0,0.0,0.0,0.0,0.0,0.0,0.0,0.0,0.0,0.0,0.0,0.0,0.0,0.0,0.0,0.0,0.0,0.0,0.0,0.0,0.0,0.0,0.0,0.0,0.0,0.0,0.0,0.0,0.0,0.0,0.0,0.0,0.0,0.0,0.0,0.0,0.0,0.0,0.0,0.0,0.0,0.0,0.0,0.0,0.0,0.0,0.0,0.0,0.0,0.0,0.0,0.0,0.0,0.0,0.0,0.0,0.0,0.0,0.0,0.0,0.0,0.0,0.0,0.0,0.0,0.0,0.0,0.0,0.0,0.0,0.0,0.0,0.0,0.0,0.0,0.0,0.0,0.0,0.0,0.0,0.0,0.0,0.0,0.0,0.0,0.0,0.0,0.0,0.0,0.0,0.0,0.0,0.0,0.0,0.0,0.0,0.0,0.0,0.0,0.0,0.0,0.0,0.0,0.0,0.0,0.0,0.0,0.0,0.0,0.0,0.0,0.0,0.0,0.0,0.0,0.0,0.0,0.0,0.0,0.0,0.0,0.0,0.0,0.0,0.0,0.0,0.0,0.0,0.0,0.0,0.0,0.0,0.0,0.0,0.0,0.0,0.0,0.0,0.0,0.0,0.0,0.0,0.0,0.0,0.0,0.0,0.0,0.0,0.0,0.0,0.0,0.0,0.0,0.0,0.0,0.0,0.0,0.0,0.0,0.0,0.0,0.0,0.0,0.0,0.0,0.0,0.0,0.0,0.0,0.0,0.0,0.0,0.0,0.0,0.0,0.0,0.0,0.0,0.0,0.0,0.0,0.0,0.0,0.0,0.0,0.0,0.0,0.0,0.0,0.0,0.0,0.0,0.0,0.0,0.0,0.0,0.0,0.0,0.0,0.0,0.0,0.0,0.0,0.0,0.0,0.0,0.0,0.0,0.0,0.0,0.0,0.0,0.0,0.0,0.0,0.0,0.0,0.0,0.0,0.0,0.0,0.0,0.0,0.0,0.0,0.0,0.0,0.0,0.0,0.0,0.0,0.0,0.0,0.0,0.0,0.0,0.227,0.0,0.0,0.0,0.0,0.0,0.0,0.0,0.0,0.0,0.0,0.0,0.0,0.0,0.0,0.0,0.0,0.0,0.0,0.0,0.0,0.0,0.0,0.0,0.0,0.0,0.0,0.0,0.0,0.0,0.0,0.0,0.0,0.0,0.0,0.0,0.0,0.0,0.0,0.0,0.0,0.0,0.0,0.0,0.0,0.0,0.0,0.0,0.0,0.0,0.0,0.0,0.0,0.0,0.0,0.0,0.0,0.0,0.0,0.0,0.0,0.0,0.0,0.0,0.0,0.0,0.0,0.0,0.0,0.0,0.0,0.0,0.0,0.0,0.0,0.0,0.0,0.0,0.0,0.0,0.0,0.0,0.0,0.0,0.0,0.0,0.0,0.0,0.0,0.0,0.0,0.0,0.0,0.0,0.0,0.0,0.0,0.0,0.0,0.0,0.0,0.0,0.0,0.0,0.0,0.0,0.0,0.0,0.0,0.0,0.0,0.2711,0.2728,0.271,0.2652,0.2525,0.0,0.0,0.0,0.0,0.0,0.0,0.0,0.0,0.0,0.0,0.0,0.0,0.0,0.0,0.0,0.0,0.0,0.0,0.0,0.0,0.0,0.0,0.0,0.0,0.0,0.0,0.0,0.0,0.0,0.0,0.0,0.0,0.0,0.0,0.0,0.0,0.0,0.0,0.0,0.0,0.0,0.0,0.0,0.0,0.0,0.0,0.0,0.0,0.0,0.0,0.0,0.0,0.0,0.0,0.0,0.0,0.0,0.0,0.0,0.0,0.0,0.0,0.0,0.0,0.0,0.0,0.0,0.0,0.0,0.0,0.0,0.0,0.0,0.0,0.0,0.0,0.0,0.0,0.0,0.0,0.0,0.0,0.0,0.0,0.0,0.0,0.0,0.0,0.0,0.0,0.0,0.0,0.0,0.0,0.0,0.0,0.0,0.0,0.0,0.0,0.0,0.0,0.0,0.0,0.0,0.0,0.0,0.0,0.0,0.0,0.0,0.0,0.3061,0.3008,0.29,0.0,0.0,0.0,0.0,0.0,0.0,0.0,0.0,0.0,0.0,0.0,0.0,0.0,0.0,0.0,0.0,0.0,0.0,0.0,0.0,0.0,0.0,0.0,0.0,0.0,0.0,0.0,0.0,0.0,0.0,0.0,0.0,0.0,0.0,0.0,0.0,0.0,0.0,0.0,0.0,0.0,0.0,0.0,0.0,0.0,0.0,0.0,0.0,0.0,0.0,0.0,0.0,0.0,0.0,0.0,0.0,0.0,0.0,0.0,0.0,0.0,0.0,0.0,0.0,0.0,0.0,0.0,0.0,0.0,0.0,0.0,0.0,0.0,0.0,0.0,0.0,0.0,0.0,0.0,0.0,0.0,0.0,0.0,0.0,0.0,0.0,0.0,0.0,0.0,0.0,0.0,0.0,0.0,0.0,0.0,0.0,0.0,0.0,0.0,0.0,0.0,0.0,0.0,0.0,0.0,0.0,0.0,0.0,0.0,0.0,0.3295,0.3531,0.3529,0.0,0.3504,0.0,0.0,0.0,0.0,0.0,0.0,0.0,0.0,0.0,0.0,0.0,0.0,0.0,0.0,0.0,0.0,0.0,0.0,0.0,0.0,0.0,0.0,0.0,0.0,0.0,0.0,0.0,0.0,0.0,0.0,0.0,0.0,0.0,0.0,0.0,0.0,0.0,0.0,0.0,0.0,0.0,0.0,0.0,0.0,0.0,0.0,0.0,0.0,0.0,0.0,0.0,0.0,0.0,0.0,0.0,0.0,0.0,0.0,0.0,0.0,0.0,0.0,0.0,0.0,0.0,0.0,0.0,0.0,0.0,0.0,0.0,0.0,0.0,0.0,0.0,0.0,0.0,0.0,0.0,0.0,0.0,0.0,0.0,0.0,0.0,0.0,0.0,0.0,0.0,0.0,0.0,0.0,0.0,0.0,0.0,0.0,0.0,0.0,0.0,0.0,0.0,0.0,0.0,0.0,0.0,0.0,0.0,0.0,0.0,0.0,0.3629,0.3782,0.3753,0.3642,0.0,0.0,0.0,0.0,0.0,0.0,0.0,0.0,0.0,0.0,0.0,0.0,0.0,0.0,0.0,0.0,0.0,0.0,0.0,0.0,0.0,0.0,0.0,0.0,0.0,0.0,0.0,0.0,0.0,0.0,0.0,0.0,0.0,0.0,0.0,0.0,0.0,0.0,0.0,0.0,0.0,0.0,0.0,0.0,0.0,0.0,0.0,0.0,0.0,0.0,0.0,0.0,0.0,0.0,0.0,0.0,0.0,0.0,0.0,0.0,0.0,0.0,0.0,0.0,0.0,0.0,0.0,0.0,0.0,0.0,0.0,0.0,0.0,0.0,0.0,0.0,0.0,0.0,0.0,0.0,0.0,0.0,0.0,0.0,0.0,0.0,0.0,0.0,0.0,0.0,0.0,0.0,0.0,0.0,0.0,0.0,0.0,0.0,0.0,0.0,0.0,0.0,0.0,0.0,0.0,0.0,0.0,0.0,0.0,0.0,0.3846,0.3884,0.4002,0.3864,0.3713,0.355,0.0,0.0,0.0,0.0,0.0,0.0,0.0,0.0,0.0,0.0,0.0,0.0,0.0,0.0,0.0,0.0,0.0,0.0,0.0,0.0,0.0,0.0,0.0,0.0,0.0,0.0,0.0,0.0,0.0,0.0,0.0,0.0,0.0,0.0,0.0,0.0,0.0,0.0,0.0,0.0,0.0,0.0,0.0,0.0,0.0,0.0,0.0,0.0,0.0,0.0,0.0,0.0,0.0,0.0,0.0,0.0,0.0,0.0,0.0,0.0,0.0,0.0,0.0,0.0,0.0,0.0,0.0,0.0,0.0,0.0,0.0,0.0,0.0,0.0,0.0,0.0,0.0,0.0,0.0,0.0,0.0,0.0,0.0,0.0,0.0,0.0,0.0,0.0,0.0,0.0,0.0,0.0,0.0,0.0,0.0,0.0,0.0,0.0,0.0,0.0,0.0,0.0,0.0,0.0,0.0,0.0,0.0,0.0,0.4407,0.4086,0.4016,0.4265,0.3972,0.3815,0.0,0.0,0.0,0.0,0.0,0.0,0.0,0.0,0.0,0.0,0.0,0.0,0.0,0.0,0.0,0.0,0.0,0.0,0.0,0.0,0.0,0.0,0.0,0.0,0.0,0.0,0.0,0.0,0.0,0.0,0.0,0.0,0.0,0.0,0.0,0.0,0.0,0.0,0.0,0.0,0.0,0.0,0.0,0.0,0.0,0.0,0.0,0.0,0.0,0.0,0.0,0.0,0.0,0.0,0.0,0.0,0.0,0.0,0.0,0.0,0.0,0.0,0.0,0.0,0.0,0.0,0.0,0.0,0.0,0.0,0.0,0.0,0.0,0.0,0.0,0.0,0.0,0.0,0.0,0.0,0.0,0.0,0.0,0.0,0.0,0.0,0.0,0.0,0.0,0.0,0.0,0.0,0.0,0.0,0.0,0.0,0.0,0.0,0.0,0.0,0.0,0.0,0.0,0.0,0.0,0.0,0.0,0.0,0.0,0.4182,0.4203,0.4246,0.4299,0.4234,0.4166,0.0,0.0,0.0,0.0,0.0,0.0,0.0,0.0,0.0,0.0,0.0,0.0,0.0,0.0,0.0,0.0,0.0,0.0,0.0,0.0,0.0,0.0,0.0,0.0,0.0,0.0,0.0,0.0,0.0,0.0,0.0,0.0,0.0,0.0,0.0,0.0,0.0,0.0,0.0,0.0,0.0,0.0,0.0,0.0,0.0,0.0,0.0,0.0,0.0,0.0,0.0,0.0,0.0,0.0,0.0,0.0,0.0,0.0,0.0,0.0,0.0,0.0,0.0,0.0,0.0,0.0,0.0,0.0,0.0,0.0,0.0,0.0,0.0,0.0,0.0,0.0,0.0,0.0,0.0,0.0,0.0,0.0,0.0,0.0,0.0,0.0,0.0,0.0,0.0,0.0,0.0,0.0,0.0,0.0,0.0,0.0,0.0,0.0,0.0,0.0,0.0,0.0,0.0,0.0,0.0,0.0,0.0,0.0,0.0,0.435,0.0,0.4478,0.4469,0.4415,0.4329,0.0,0.0,0.0,0.0,0.0,0.0,0.0,0.0,0.0,0.0,0.0,0.0,0.0,0.0,0.0,0.0,0.0,0.0,0.0,0.0,0.0,0.0,0.0,0.0,0.0,0.0,0.0,0.0,0.0,0.0,0.0,0.0,0.0,0.0,0.0,0.0,0.0,0.0,0.0,0.0,0.0,0.0,0.0,0.0,0.0,0.0,0.0,0.0,0.0,0.0,0.0,0.0,0.0,0.0,0.0,0.0,0.0,0.0,0.0,0.0,0.0,0.0,0.0,0.0,0.0,0.0,0.0,0.0,0.0,0.0,0.0,0.0,0.0,0.0,0.0,0.0,0.0,0.0,0.0,0.0,0.0,0.0,0.0,0.0,0.0,0.0,0.0,0.0,0.0,0.0,0.0,0.0,0.0,0.0,0.0,0.0,0.0,0.0,0.0,0.0,0.0,0.0,0.0,0.0,0.0,0.0,0.0,0.0,0.4521,0.5057,0.4867,0.4813,0.4815,0.461,0.4324,0.0,0.0,0.0,0.0,0.0,0.0,0.0,0.0,0.0,0.0,0.0,0.0,0.0,0.0,0.0,0.0,0.0,0.0,0.0,0.0,0.0,0.0,0.0,0.0,0.0,0.0,0.0,0.0,0.0,0.0,0.0,0.0,0.0,0.0,0.0,0.0,0.0,0.0,0.0,0.0,0.0,0.0,0.0,0.0,0.0,0.0,0.0,0.0,0.0,0.0,0.0,0.0,0.0,0.0,0.0,0.0,0.0,0.0,0.0,0.0,0.0,0.0,0.0,0.0,0.0,0.0,0.0,0.0,0.0,0.0,0.0,0.0,0.0,0.0,0.0,0.0,0.0,0.0,0.0,0.0,0.0,0.0,0.0,0.0,0.0,0.0,0.0,0.0,0.0,0.0,0.0,0.0,0.0,0.0,0.0,0.0,0.0,0.0,0.0,0.0,0.0,0.0,0.0,0.0,0.0,0.0,0.0,0.0,0.0,0.5122,0.5704,0.6054,0.6096,0.5717,0.5514,0.0,0.0,0.0,0.0,0.0,0.0,0.0,0.0,0.0,0.0,0.0,0.0,0.0,0.0,0.0,0.0,0.0,0.0,0.0,0.0,0.0,0.0,0.0,0.0,0.0,0.0,0.0,0.0,0.0,0.0,0.0,0.0,0.0,0.0,0.0,0.0,0.0,0.0,0.0,0.0,0.0,0.0,0.0,0.0,0.0,0.0,0.0,0.0,0.0,0.0,0.0,0.0,0.0,0.0,0.0,0.0,0.0,0.0,0.0,0.0,0.0,0.0,0.0,0.0,0.0,0.0,0.0,0.0,0.0,0.0,0.0,0.0,0.0,0.0,0.0,0.0,0.0,0.0,0.0,0.0,0.0,0.0,0.0,0.0,0.0,0.0,0.0,0.0,0.0,0.0,0.0,0.0,0.0,0.0,0.0,0.0,0.0,0.0,0.0,0.0,0.0,0.0,0.0,0.0,0.0,0.0,0.0,0.0,0.0,0.7206,0.7585,0.781,0.7776,0.7378,0.6865,0.6329,0.0,0.0,0.0,0.0,0.0,0.0,0.0,0.0,0.0,0.0,0.0,0.0,0.0,0.0,0.0,0.0,0.0,0.0,0.0,0.0,0.0,0.0,0.0,0.0,0.0,0.0,0.0,0.0,0.0,0.0,0.0,0.0,0.0,0.0,0.0,0.0,0.0,0.0,0.0,0.0,0.0,0.0,0.0,0.0,0.0,0.0,0.0,0.0,0.0,0.0,0.0,0.0,0.0,0.0,0.0,0.0,0.0,0.0,0.0,0.0,0.0,0.0,0.0,0.0,0.0,0.0,0.0,0.0,0.0,0.0,0.0,0.0,0.0,0.0,0.0,0.0,0.0,0.0,0.0,0.0,0.0,0.0,0.0,0.0,0.0,0.0,0.0,0.0,0.0,0.0,0.0,0.0,0.0,0.0,0.0,0.0,0.0,0.0,0.0,0.0,0.0,0.0,0.0,0.0,0.0,0.0,0.0,0.0,1.0852,1.0561,1.0276,0.9893,0.9459,0.8384,0.0,0.0,0.0,0.0,0.0,0.0,0.0,0.0,0.0,0.0,0.0,0.0,0.0,0.0,0.0,0.0,0.0,0.0,0.0,0.0,0.0,0.0,0.0,0.0,0.0,0.0,0.0,0.0,0.0,0.0,0.0,0.0,0.0,0.0,0.0,0.0,0.0,0.0,0.0,0.0,0.0,0.0,0.0,0.0,0.0,0.0,0.0,0.0,0.0,0.0,0.0,0.0,0.0,0.0,0.0,0.0,0.0,0.0,0.0,0.0,0.0,0.0,0.0,0.0,0.0,0.0,0.0,0.0,0.0,0.0,0.0,0.0,0.0,0.0,0.0,0.0,0.0,0.0,0.0,0.0,0.0,0.0,0.0,0.0,0.0,0.0,0.0,0.0,0.0,0.0,0.0,0.0,0.0,0.0,0.0,0.0,0.0,0.0,0.0,0.0,0.0,0.0,0.0,0.0,0.0,0.0,0.0,0.0,0.0,1.3826,1.5561,1.5383,1.314,1.1651,1.0386,0.0,0.0,0.0,0.0,0.0,0.0,0.0,0.0,0.0,0.0,0.0,0.0,0.0,0.0,0.0,0.0,0.0,0.0,0.0,0.0,0.0,0.0,0.0,0.0,0.0,0.0,0.0,0.0,0.0,0.0,0.0,0.0,0.0,0.0,0.0,0.0,0.0,0.0,0.0,0.0,0.0,0.0,0.0,0.0,0.0,0.0,0.0,0.0,0.0,0.0,0.0,0.0,0.0,0.0,0.0,0.0,0.0,0.0,0.0,0.0,0.0,0.0,0.0,0.0,0.0,0.0,0.0,0.0,0.0,0.0,0.0,0.0,0.0,0.0,0.0,0.0,0.0,0.0,0.0,0.0,0.0,0.0,0.0,0.0,0.0,0.0,0.0,0.0,0.0,0.0,0.0,0.0,0.0,0.0,0.0,0.0,0.0,0.0,0.0,0.0,0.0,0.0,0.0,0.0,0.0,0.0,0.0,0.0,1.4322,1.5961,1.8906,1.9519,1.7546,1.4863,1.2594,0.0,0.0,0.0,0.0,0.0,0.0,0.0,0.0,0.0,0.0,0.0,0.0,0.0,0.0,0.0,0.0,0.0,0.0,0.0,0.0,0.0,0.0,0.0,0.0,0.0,0.0,0.0,0.0,0.0,0.0,0.0,0.0,0.0,0.0,0.0,0.0,0.0,0.0,0.0,0.0,0.0,0.0,0.0,0.0,0.0,0.0,0.0,0.0,0.0,0.0,0.0,0.0,0.0,0.0,0.0,0.0,0.0,0.0,0.0,0.0,0.0,0.0,0.0,0.0,0.0,0.0,0.0,0.0,0.0,0.0,0.0,0.0,0.0,0.0,0.0,0.0,0.0,0.0,0.0,0.0,0.0,0.0,0.0,0.0,0.0,0.0,0.0,0.0,0.0,0.0,0.0,0.0,0.0,0.0,0.0,0.0,0.0,0.0,0.0,0.0,0.0,0.0,0.0,0.0,0.0,0.0,0.0,0.0,1.6262,1.7624,2.1025,2.2574,2.1969,1.8221,1.4723,0.0,0.0,0.0,0.0,0.0,0.0,0.0,0.0,0.0,0.0,0.0,0.0,0.0,0.0,0.0,0.0,0.0,0.0,0.0,0.0,0.0,0.0,0.0,0.0,0.0,0.0,0.0,0.0,0.0,0.0,0.0,0.0,0.0,0.0,0.0,0.0,0.0,0.0,0.0,0.0,0.0,0.0,0.0,0.0,0.0,0.0,0.0,0.0,0.0,0.0,0.0,0.0,0.0,0.0,0.0,0.0,0.0,0.0,0.0,0.0,0.0,0.0,0.0,0.0,0.0,0.0,0.0,0.0,0.0,0.0,0.0,0.0,0.0,0.0,0.0,0.0,0.0,0.0,0.0,0.0,0.0,0.0,0.0,0.0,0.0,0.0,0.0,0.0,0.0,0.0,0.0,0.0,0.0,0.0,0.0,0.0,0.0,0.0,0.0,0.0,0.0,0.0,0.0,0.0,0.0,0.0,0.0,0.0,1.7425,1.9714,2.2248,2.3422,2.3077,1.8762,1.5518,0.0,0.0,0.0,0.0,0.0,0.0,0.0,0.0,0.0,0.0,0.0,0.0,0.0,0.0,0.0,0.0,0.0,0.0,0.0,0.0,0.0,0.0,0.0,0.0,0.0,0.0,0.0,0.0,0.0,0.0,0.0,0.0,0.0,0.0,0.0,0.0,0.0,0.0,0.0,0.0,0.0,0.0,0.0,0.0,0.0,0.0,0.0,0.0,0.6552,0.0,0.0,0.0,0.0,0.0,0.0,0.0,0.0,0.0,0.0,0.0,0.0,0.0,0.0,0.0,0.0,0.0,0.0,0.0,0.0,0.0,0.0,0.0,0.0,0.0,0.0,0.0,0.0,0.0,0.0,0.0,0.0,0.0,0.0,0.0,0.0,0.0,0.0,0.0,0.0,0.0,0.0,0.0,0.0,0.0,0.0,0.0,0.0,0.0,0.0,0.0,0.0,0.0,0.0,0.0,0.0,0.0,0.0,0.0,1.8307,2.0868,2.2934,2.3921,2.3648,1.9961,1.6902,0.0,0.0,0.0,0.0,0.0,0.0,0.0,0.0,0.0,0.0,0.0,0.0,0.0,0.0,0.0,0.0,0.0,0.0,0.0,0.0,0.0,0.0,0.0,0.0,0.0,0.0,0.0,0.0,0.0,0.0,0.0,0.0,0.0,0.0,0.0,0.0,0.0,0.0,0.0,0.0,0.0,0.0,0.0,0.0,0.0,0.0,0.0,0.0,0.0,0.0,0.0,0.0,0.0,0.0,0.0,0.0,0.0,0.0,0.0,0.0,0.0,0.0,0.0,0.0,0.0,0.0,0.0,0.0,0.0,0.0,0.0,0.0,0.0,0.0,0.0,0.0,0.0,0.0,0.0,0.0,0.0,0.0,0.0,0.0,0.0,0.0,0.0,0.0,0.0,0.0,0.0,0.0,0.0,0.0,0.0,0.0,0.0,0.0,0.0,0.0,0.0,0.0,0.0,0.0,0.0,0.0,0.0,1.6452,1.9076,2.1768,2.3424,2.4222,2.4089,2.1282,1.84,1.5586,0.0,0.0,0.0,0.0,0.0,0.0,0.0,0.0,0.0,0.0,0.0,0.0,0.0,0.0,0.0,0.0,0.0,0.0,0.0,0.0,0.0,0.0,0.0,0.0,0.0,0.0,0.0,0.0,0.0,0.0,0.0,0.0,0.0,0.0,0.0,0.0,0.0,0.0,0.5155,0.5578,0.0,0.0,0.0,0.0,0.0,0.0,0.0,0.0,0.7086,0.0,0.0,0.0,0.0,0.0,0.0,0.0,0.0,0.0,0.0,0.0,0.0,0.0,0.0,0.0,0.0,0.0,0.0,0.0,0.0,0.0,0.0,0.0,0.0,0.0,0.0,0.0,0.0,0.0,0.0,0.0,0.0,0.0,0.0,0.0,0.0,0.0,0.0,0.0,0.0,0.0,0.0,0.0,0.0,0.0,0.0,0.0,0.0,0.0,0.0,0.0,0.0,0.0,0.0,0.0,0.0,1.6172,1.7372,1.9716,2.3331,2.4162,2.4306,2.3824,2.1843,1.9322,1.6336,0.0,0.0,0.0,0.0,0.0,0.0,0.0,0.0,0.0,0.0,0.0,0.0,0.0,0.0,0.0,0.0,0.0,0.0,0.0,0.0,0.0,0.0,0.0,0.0,0.0,0.0,0.0,0.0,0.0,0.0,0.0,0.0,0.0,0.0,0.0,0.0,0.0,0.0,0.0,0.6589,0.6889,0.0,0.0,0.0,0.0,0.0,0.0,0.0,0.0,0.8169,0.0,0.0,0.0,0.0,0.0,0.0,0.0,0.0,0.0,0.0,0.0,0.0,0.0,0.0,0.0,0.0,0.0,0.0,0.0,0.0,0.0,0.0,0.0,0.0,0.0,0.0,0.0,0.0,0.0,0.0,0.0,0.0,0.0,0.0,0.0,0.0,0.0,0.0,0.0,0.0,0.0,0.0,0.0,0.0,0.0,0.0,0.0,0.0,0.0,0.0,0.0,0.0,0.0,0.0,0.0,1.6495,1.8308,2.0804,2.4042,2.4686,2.4874,2.4645,2.2234,1.9724,0.0,0.0,0.0,0.0,0.0,0.0,0.0,0.0,0.0,0.0,0.0,0.0,0.0,0.0,0.0,0.0,0.0,0.0,0.0,0.0,0.0,0.0,0.0,0.0,0.0,0.0,0.0,0.0,0.0,0.0,0.0,0.0,0.0,0.0,0.0,0.0,0.0,0.0,0.0,0.0,0.7243,0.7756,0.8397,0.0,0.0,0.0,0.0,0.0,0.0,0.9072,0.9155,0.0,0.0,0.0,0.0,0.0,0.0,0.0,0.0,0.0,0.0,0.0,0.0,0.0,0.0,0.0,0.0,0.0,0.0,0.0,0.0,0.0,0.0,0.0,0.0,0.0,0.0,0.0,0.0,0.0,0.0,0.0,0.0,0.0,0.0,0.0,0.0,0.0,0.0,0.0,0.0,0.0,0.0,0.0,0.0,0.0,0.0,0.0,0.0,0.0,0.0,0.0,0.0,0.0,0.0,0.0,1.6675,1.9137,2.1764,2.4567,2.5122,2.5348,2.5293,2.2365,1.9874,0.0,0.0,0.0,0.0,0.0,0.0,0.0,0.0,0.0,0.0,0.0,0.0,0.0,0.0,0.0,0.0,0.0,0.0,0.0,0.0,0.0,0.0,0.0,0.0,0.0,0.0,0.0,0.0,0.0,0.0,0.0,0.0,0.0,0.0,0.0,0.0,0.0,0.0,0.0,0.0,0.0,0.9099,0.9592,0.9139,0.0,0.0,0.0,0.0,0.9585,1.0554,0.0,0.0,0.0,0.0,0.0,0.0,0.0,0.0,0.0,0.0,0.0,0.0,0.0,0.0,0.0,0.0,0.0,0.0,0.0,0.0,0.0,0.0,0.0,0.0,0.0,0.0,0.0,0.0,0.0,0.0,0.0,0.0,0.0,0.0,0.0,0.0,0.0,0.0,0.0,0.0,0.0,0.0,0.0,0.0,0.0,0.0,0.0,0.0,0.0,0.0,0.0,0.0,0.0,0.0,0.0,0.0,1.7649,1.9575,2.2115,2.52,2.5441,2.5273,2.4774,2.2022,1.9727,0.0,0.0,0.0,0.0,0.0,0.0,0.0,0.0,0.0,0.0,0.0,0.0,0.0,0.0,0.0,0.0,0.0,0.0,0.0,0.0,0.0,0.0,0.0,0.0,0.0,0.0,0.0,0.0,0.0,0.0,0.0,0.0,0.0,0.0,0.0,0.0,0.0,0.0,0.0,0.0,0.0,1.1563,1.015,1.0524,1.0996,0.0,0.0,1.2152,1.2441,1.4,0.0,0.0,0.0,0.0,0.0,0.0,0.0,0.0,0.0,0.0,0.0,0.0,0.0,0.0,0.0,0.0,0.0,0.0,0.0,0.0,0.0,0.0,0.0,0.0,0.0,0.0,0.0,0.0,0.0,0.0,0.0,0.0,0.0,0.0,0.0,0.0,0.0,0.0,0.0,0.0,0.0,0.0,0.0,0.0,0.0,0.0,0.0,0.0,0.0,0.0,0.0,0.0,0.0,0.0,0.0,1.5607,1.7784,2.0389,2.2953,2.5333,2.5558,2.5464,2.5152,2.1881,1.9542,0.0,0.0,0.0,0.0,0.0,0.0,0.0,0.0,0.0,0.0,0.0,0.0,0.0,0.0,0.0,0.0,0.0,0.0,0.0,0.0,0.0,0.0,0.0,0.0,0.0,0.0,0.0,0.0,0.0,0.0,0.0,0.0,0.0,0.0,0.0,0.0,0.0,0.0,0.0,0.0,0.0,0.0,1.1334,1.1711,0.0,0.0,0.0,1.3631,1.3618,0.0,0.0,0.0,0.0,0.0,0.0,0.0,0.0,0.0,0.0,0.0,0.0,0.0,0.0,0.0,0.0,0.0,0.0,0.0,0.0,0.0,0.0,0.0,0.0,0.0,0.0,0.0,0.0,0.0,0.0,0.0,0.0,0.0,0.0,0.0,0.0,0.0,0.0,0.0,0.0,0.0,0.0,0.0,0.0,0.0,0.0,0.0,0.0,0.0,0.0,0.0,0.0,0.0,0.0,0.0,0.0,0.0,1.8203,2.1204,2.3681,2.5484,2.5708,2.5648,2.5352,2.1911,0.0,0.0,0.0,0.0,0.0,0.0,0.0,0.0,0.0,0.0,0.0,0.0,0.0,0.0,0.0,0.0,0.0,0.0,0.0,0.0,0.0,0.0,0.0,0.0,0.0,0.0,0.0,0.5551,0.0,0.0,0.0,0.0,0.0,0.0,0.0,0.0,0.0,0.0,0.0,0.0,0.0,0.0,1.3337,1.2715,1.3204,1.4032,0.0,0.0,1.5103,1.4967,1.6322,1.652,0.0,0.0,0.0,0.0,0.0,0.0,0.0,0.0,0.0,0.0,0.0,0.0,0.0,0.0,0.0,0.0,0.0,0.0,0.0,0.0,0.0,0.0,0.0,0.0,0.0,0.0,0.0,0.0,0.0,0.0,0.0,0.0,0.0,0.0,0.0,0.0,0.0,0.0,0.0,0.0,0.0,0.0,0.0,0.0,0.0,0.0,0.0,0.0,0.0,0.0,0.0,0.0,0.0,0.0,1.7434,1.9479,2.1971,2.4105,2.5879,2.5972,2.5705,2.5096,2.2208,2.0082,0.0,0.0,0.0,0.0,0.0,0.0,0.0,0.0,0.0,0.0,0.0,0.0,0.0,0.0,0.0,0.0,0.0,0.0,0.0,0.0,0.0,0.0,0.0,0.0,0.0,0.0,0.0,0.0,0.0,0.0,0.0,0.0,0.0,0.0,0.0,0.0,0.0,0.0,0.0,0.0,0.0,1.4872,1.4162,1.5258,1.6598,0.0,1.7249,1.6805,1.7198,1.9008,1.9084,1.5218,0.0,0.0,0.0,0.0,0.0,0.0,0.0,0.0,0.0,0.0,0.0,0.0,0.0,0.0,0.0,0.0,0.0,0.0,0.0,0.0,0.0,0.0,0.0,0.0,0.0,0.0,0.0,0.0,0.0,0.0,0.0,0.0,0.0,0.0,0.0,0.0,0.0,0.0,0.0,0.0,0.0,0.0,0.0,0.0,0.0,0.0,0.0,0.0,0.0,0.0,0.0,0.0,0.0,1.8007,1.9526,2.2214,2.4195,2.5409,2.5604,2.5317,2.4574,2.2546,2.0685,0.0,0.0,0.0,0.0,0.0,0.0,0.0,0.0,0.0,0.0,0.0,0.0,0.0,0.0,0.0,0.0,0.0,0.0,0.0,0.0,0.0,0.0,0.0,0.0,0.0,0.0,0.0,0.0,0.8068,0.8366,0.8251,0.0,0.0,0.0,0.0,0.0,0.0,0.0,0.0,0.0,0.0,1.5806,1.5852,1.7157,0.0,0.0,1.8298,1.8223,1.8083,1.8714,1.8441,1.6117,1.5258,0.0,0.0,0.0,0.0,0.0,0.0,0.0,0.0,0.0,0.0,0.0,0.0,0.0,0.0,0.0,0.0,0.0,0.0,0.0,0.0,0.0,0.0,0.0,0.0,0.0,0.0,0.0,0.0,0.0,0.0,0.0,0.0,0.0,0.0,0.0,0.0,0.0,0.0,0.0,0.0,0.0,0.0,0.0,0.0,0.0,0.0,0.0,0.0,0.0,0.0,0.0,0.0,1.8592,1.9993,2.2987,2.4941,2.5762,2.6537,2.6485,2.5525,2.3821,2.2009,0.0,0.0,0.0,0.0,0.0,0.0,0.0,0.0,0.0,0.0,0.0,0.0,0.0,0.0,0.0,0.0,0.0,0.0,0.0,0.0,0.0,0.0,0.0,0.0,0.0,0.0,0.0,0.0,0.9167,0.9459,0.9336,0.0,0.0,0.0,0.0,0.0,0.0,0.0,0.0,0.0,0.0,1.6899,1.7067,1.8308,1.911,1.8895,1.892,1.8861,1.8673,1.8521,1.7921,1.647,0.0,0.0,0.0,0.0,0.0,0.0,0.0,0.0,0.0,0.0,0.0,0.0,0.0,0.0,0.0,0.0,0.0,0.0,0.0,0.0,0.0,0.0,0.0,0.0,0.0,0.0,0.0,1.0388,0.0,0.0,0.984,0.0,0.0,0.0,0.0,0.0,0.0,0.0,0.0,0.0,0.0,0.0,0.0,0.0,0.0,0.0,0.0,0.0,0.0,0.0,0.0,0.0,0.0,1.9301,2.1076,2.4432,2.6531,2.7356,2.9205,2.9558,2.8414,2.6311,2.4257,2.2407,0.0,0.0,0.0,0.0,0.0,0.0,0.0,0.0,0.0,0.0,0.0,0.0,0.0,0.0,0.0,0.0,0.0,0.0,0.0,0.0,0.0,0.0,0.0,0.0,0.0,0.0,0.8891,0.9403,0.989,0.0,0.0,0.0,0.0,0.0,0.0,0.0,0.0,0.0,1.3292,1.6318,1.8287,1.7627,1.8484,1.9412,1.989,1.904,1.8553,1.9094,1.8907,1.8056,0.0,0.0,0.0,0.0,0.0,0.0,0.0,0.0,0.0,0.0,0.0,0.0,0.0,0.0,0.0,0.0,0.0,0.0,0.0,0.0,0.0,0.0,0.0,0.0,0.0,0.0,0.0,1.2926,1.3037,0.0,0.0,0.0,0.0,0.0,0.0,0.0,0.0,0.0,0.0,0.0,1.4614,1.51,0.0,0.0,0.0,0.0,0.0,0.0,0.0,0.0,0.0,0.0,0.0,0.0,2.1261,2.3069,2.6008,2.7989,2.8963,2.9579,2.9407,2.8359,2.7197,2.5109,2.1988,0.0,0.0,0.0,0.0,0.0,0.0,0.0,0.0,0.0,0.0,0.0,0.0,0.0,0.0,0.0,0.0,0.0,0.0,0.0,0.0,0.0,0.0,0.0,0.0,0.0,1.0147,0.0,0.0,0.0,0.0,0.0,0.0,0.0,0.0,0.0,0.0,0.0,1.4085,1.5215,1.7006,1.839,1.8891,1.9733,2.0339,0.0,0.0,0.0,0.0,0.0,0.0,0.0,0.0,0.0,0.0,0.0,0.0,0.0,0.0,1.6173,1.4382,1.4005,1.4,1.4163,0.0,0.0,0.0,0.0,0.0,0.0,0.0,0.0,0.0,0.0,0.0,0.0,0.0,0.0,1.442,0.0,1.4325,0.0,0.0,0.0,0.0,0.0,0.0,0.0,0.0,1.5586,1.6364,1.6613,1.7107,1.7356,0.0,1.6989,1.644,0.0,0.0,0.0,0.0,0.0,0.0,0.0,0.0,2.2686,2.4425,2.7436,2.947,3.0367,3.0866,3.0684,2.9748,2.8265,2.6034,2.3022,2.1328,1.9648,0.0,0.0,0.0,0.0,0.0,0.0,0.0,0.0,0.0,0.0,0.0,0.0,0.0,0.0,0.0,0.0,0.0,0.0,0.0,0.0,0.0,0.0,0.0,1.1352,0.0,0.0,0.0,0.0,0.0,0.0,0.0,0.0,0.0,1.385,1.4534,1.5538,1.6938,1.8072,1.9028,1.9765,0.0,0.0,0.0,0.0,0.0,0.0,0.0,1.8594,1.8996,1.8198,1.7609,1.7912,1.8246,1.8434,1.8323,0.0,0.0,1.6128,1.5681,1.5672,1.584,1.6113,1.6366,1.6635,1.5815,1.553,0.0,0.0,0.0,0.0,0.0,0.0,0.0,0.0,1.5238,1.5274,0.0,1.5045,0.0,0.0,0.0,0.0,1.3297,1.4987,0.0,0.0,1.7888,1.8796,1.8638,1.889,1.8892,1.8667,1.8695,1.8986,1.9415,1.6984,0.0,0.0,0.0,0.0,0.0,0.0,2.3588,2.5304,2.8839,3.0978,3.1614,3.3016,3.3326,3.2428,2.9455,2.7068,2.5417,2.3069,2.1389,2.0473,1.8475,0.0,0.0,0.0,0.0,0.0,0.0,0.0,0.0,0.0,0.0,0.0,0.0,0.0,0.0,0.0,0.0,0.0,0.0,0.0,0.0,1.2192,0.0,0.0,0.0,0.0,0.0,0.0,0.0,0.0,0.0,0.0,1.5137,1.6157,1.7351,1.8412,0.0,0.0,0.0,0.0,2.0286,2.1228,2.1009,2.0909,2.1294,2.0744,2.0206,2.0004,0.0,0.0,1.9522,1.9481,1.9523,1.9481,1.9292,1.8917,1.8691,1.8282,1.8077,1.8116,1.8211,1.836,1.8539,1.8235,1.8178,2.2543,0.0,0.0,0.0,0.0,1.731,1.8116,1.9333,1.889,1.8715,1.8672,1.7795,0.0,0.0,0.0,0.0,0.0,0.0,1.7103,1.8301,1.9355,2.0132,2.0741,2.1189,2.1671,2.2194,2.198,2.2379,2.3218,2.1887,2.0563,1.9367,0.0,0.0,0.0,0.0,2.6145,2.7952,3.0908,3.2812,3.3569,3.3718,3.301,3.1375,2.9595,2.7775,2.5897,2.4595,2.3299,2.2006,2.0839,0.0,0.0,0.0,0.0,0.0,0.0,0.0,0.0,0.0,0.0,0.0,0.0,0.0,0.0,0.0,0.0,0.0,0.0,0.0,1.2948,1.3453,1.3736,0.0,0.0,0.0,0.0,0.0,0.0,0.0,0.0,0.0,1.7969,1.8095,1.8461,0.0,0.0,2.0704,2.0955,2.0897,2.1158,2.2004,2.2974,0.0,2.2567,2.1407,2.0765,2.1308,2.1224,2.1063,2.098,2.1111,2.1259,2.1245,2.1162,2.1152,2.1187,2.0035,1.9244,1.9505,1.9937,2.0414,2.0855,2.0877,2.0962,2.8209,2.3638,2.2057,2.156,2.1792,2.1318,2.179,2.2758,2.1583,2.1064,2.1013,1.9987,1.8838,1.7675,1.7115,0.0,0.0,0.0,1.9361,2.033,2.1438,2.2398,2.3178,2.3615,2.4379,2.5318,2.5047,2.5423,2.6439,2.5511,2.4699,2.3962,0.0,0.0,2.292,2.5817,2.8112,2.9826,3.2034,3.3506,3.4129,3.3598,3.2588,3.1082,2.9871,2.8454,2.6765,2.5774,2.4646,2.3305,2.2363,2.1273,0.0,0.0,0.0,0.0,0.0,0.0,0.0,0.0,0.0,0.0,0.0,1.2376,1.2069,0.0,0.0,0.0,1.3616,1.4163,1.4694,1.4831,0.0,0.0,0.0,0.0,0.0,0.0,0.0,1.7411,1.7837,1.8479,1.9752,2.006,2.0325,2.0815,2.1012,2.1362,2.2056,0.0,2.1997,2.31,2.409,2.4438,2.361,2.2606,2.2056,2.2457,2.2287,2.2121,2.2121,2.2154,2.2211,2.2317,2.2355,2.2458,2.2774,2.1878,2.1125,2.1256,2.1657,2.2098,2.2442,2.2619,2.2882,3.3461,3.2055,2.9057,2.7648,2.7294,2.6088,2.5717,2.5831,2.3947,2.3079,2.2998,2.2103,2.1129,2.0103,1.9393,0.0,1.9526,2.1569,2.2455,2.2394,2.4264,2.5453,2.6057,2.6331,2.7074,2.8245,2.8007,2.8295,2.9097,2.8262,2.8315,2.9221,2.6013,2.4709,2.5475,2.7789,2.9706,3.1063,3.2527,3.3433,3.3781,3.3028,3.2219,3.141,3.0219,2.9023,2.7844,2.665,2.5475,2.4336,2.3256,2.2328,2.1493,0.0,0.0,0.0,0.0,0.0,0.0,0.0,0.0,0.0,0.0,0.0,0.0,0.0,0.0,0.0,1.4942,0.0,1.6494,1.6146,0.0,0.0,0.0,1.4924,1.4875,1.5896,1.6937,1.7834,0.0,0.0,2.0743,2.1805,2.2519,2.2492,2.2083,2.2194,2.3318,2.2818,2.2842,2.4157,2.4468,2.4484,2.4292,2.391,2.3515,2.3259,2.31,2.2943,2.2916,2.2726,2.2677,2.2867,2.2961,2.31,2.3497,2.359,2.3669,2.3063,2.3207,2.3403,2.3465,2.3641,2.3988,3.9852,3.9163,3.7788,3.4448,3.0006,2.9615,2.9722,3.0079,2.9416,2.8974,2.8735,2.7512,2.5488,2.3045,2.3702,2.3963,2.4,2.5357,2.6941,2.8589,2.8794,2.9251,2.986,3.0149,3.0623,3.1205,3.1087,3.1392,3.2105,3.1632,3.1041,3.044,3.0142,2.9285,2.7904,2.9874,3.1204,3.1758,3.3031,3.3689,3.378,3.301,3.2219,3.1428,3.0235,2.9042,2.783,2.6632,2.5714,2.5113,2.3944,2.3013,2.2352,2.1213,0.0,0.0,0.0,0.0,0.0,0.0,0.0,0.0,0.0,1.4421,1.4369,0.0,1.5276,0.0,1.6101,1.6388,1.6384,1.6446,0.0,0.0,1.6861,1.6549,1.5669,1.72,1.8987,2.0757,2.0675,2.0793,2.1606,2.2351,2.2913,2.3188,2.3301,2.3541,2.4067,2.3794,2.3756,2.441,2.4246,2.4044,2.4197,2.4004,2.3687,2.3367,2.3434,2.3536,2.3386,2.3417,2.3448,2.3395,2.3488,2.3683,2.3968,2.4084,2.4142,2.4177,2.4257,2.4377,2.4623,2.4524,2.4655,4.2494,4.1907,4.1081,3.8597,3.5096,3.4088,3.3808,3.4001,3.2803,3.2091,3.175,3.0441,2.8718,2.6899,2.7642,2.7939,2.7959,2.934,3.0442,3.1181,3.1637,3.2048,3.2408,3.257,3.3125,3.3996,3.3782,3.3786,3.3984,3.3598,3.299,3.2166,3.3138,3.2779,3.1277,3.1769,3.2291,3.2791,3.3651,3.4073,3.4055,3.3285,3.2478,3.1653,3.0327,2.91,2.8091,2.6912,2.6099,2.5645,2.466,2.3803,2.3148,2.2154,2.1111,0.0,0.0,0.0,0.0,0.0,0.0,0.0,0.0,0.0,0.0,0.0,1.6105,1.656,1.6872,1.7102,1.7187,1.7461,1.7667,1.7738,1.7996,1.7873,1.7083,1.8464,2.0236,2.2153,2.1852,2.1754,2.2475,2.2991,2.3432,2.3785,2.4483,2.4774,2.4301,2.405,2.4035,2.4251,2.3945,2.3748,2.399,2.3768,2.3567,2.3541,2.3554,2.3572,2.3621,2.3714,2.3826,2.3964,2.3986,2.4048,2.4311,2.4377,2.4444,2.4578,2.4724,2.4871,2.505,2.5128,2.5335,4.3279,4.2531,4.1745,4.1136,4.0592,3.8602,3.7695,3.7401,3.5319,3.4176,3.372,3.2514,3.1568,3.087,3.1297,3.1441,3.1465,3.3146,3.3392,3.2591,3.3837,3.4426,3.4427,3.4445,3.5109,3.631,3.5889,3.5522,3.5211,3.4771,3.4367,3.4092,3.5155,3.5302,3.455,3.356,3.3321,3.3873,3.4312,3.4477,3.433,3.3524,3.2735,3.1836,3.0329,2.9152,2.8315,2.7155,2.6348,2.6008,2.5278,2.4608,2.403,2.305,2.2077,0.0,2.0404,0.0,0.0,0.0,0.0,0.0,0.0,0.0,0.0,1.6786,1.6851,1.7395,1.7589,1.7917,1.8508,1.875,1.8795,1.8619,1.8918,1.903,1.8897,1.982,2.1117,2.2785,2.2662,2.2716,2.3488,2.3836,2.4097,2.4535,2.5687,2.6096,2.4954,2.4555,2.4433,2.4287,2.4162,2.4425,2.4419,2.4166,2.4107,2.4278,2.4315,2.3886,2.3931,2.4301,2.4527,2.4598,2.4842,2.502,2.5001,2.5139,2.5299,2.5506,2.5811,2.5831,2.5335,2.5552,2.5906,4.4673,4.4164,4.3393,4.2601,4.1904,4.1181,4.0288,3.9363,3.8914,3.8264,3.7508,3.6616,3.5271,3.3831,3.4734,3.4832,3.4378,3.5601,3.6562,3.7281,3.7251,3.7242,3.7204,3.7223,3.7214,3.7116,3.642,3.6219,3.6438,3.5724,3.5321,3.5284,3.5815,3.5852,3.5412,0.0,0.0,0.0,3.4991,3.4899,3.3945,3.3121,3.2183,3.1063,2.9779,0.0,2.7922,2.6747,2.6081,2.5976,2.5548,0.0,0.0,0.0,0.0,0.0,0.0,0.0,0.0,0.0,0.0,0.0,2.1064,2.0533,1.9663,1.9154,1.8994,1.9256,1.8891,1.8972,1.983,1.9542,1.9356,1.9525,2.0023,2.0418,2.0608,2.1435,2.2377,2.3237,2.3083,2.3396,2.4793,2.5048,2.5319,2.5891,2.7027,2.7767,2.7715,2.659,2.623,2.6944,2.6729,2.6658,2.6502,2.6537,2.6503,2.6883,2.7049,2.6357,2.5035,2.6328,2.6739,2.5391,2.6595,2.7917,2.734,2.775,2.8235,2.8711,2.8998,2.8533,2.6014,2.5892,2.6354,4.5081,4.4641,4.4054,4.3426,0.0,4.2476,4.1834,4.1047,4.046,3.9724,3.8893,3.8713,3.786,3.656,3.7318,3.7369,3.6865,3.7445,3.8014,3.8582,3.838,3.8289,3.8289,3.8289,3.8088,3.7667,3.708,3.6714,3.6494,3.609,3.5797,3.5614,3.6402,3.6695,3.6512,3.708,3.6787,3.5595,3.5797,3.5504,3.4679,3.3725,3.2514,3.1121,2.9724,0.0,0.0,0.0,0.0,0.0,0.0,0.0,0.0,2.4985,0.0,2.4491,2.3952,2.3617,2.3594,2.3518,2.3611,2.3872,2.4104,2.3458,2.1591,2.1213,2.1263,2.1682,2.1459,2.1534,2.214,2.2064,2.183,2.1513,2.1825,2.234,2.2977,2.3483,2.4492,2.6035,2.5906,2.5975,2.6946,2.7079,2.7193,2.7559,2.867,2.9456,2.9144,2.7949,2.7193,2.7507,2.745,2.7277,2.7152,2.7231,2.7453,2.7593,2.7895,2.7585,2.6491,2.7722,2.882,2.8927,2.9308,2.9369,3.0471,2.9982,2.9284,2.9491,2.9793,2.9338,2.7141,2.7164,2.7689,4.5283,4.4879,4.4476,4.4031,4.3573,4.3173,4.2718,4.2109,0.0,0.0,0.0,3.9742,3.9524,3.8858,3.917,3.9133,3.884,3.8727,3.871,3.871,3.8637,3.8563,3.849,3.849,3.829,3.7887,3.7502,3.7025,3.6531,3.6365,3.6255,3.6219,3.7043,3.7537,3.7647,3.827,3.8105,3.7153,3.6585,3.6072,3.5595,3.4422,3.3065,3.154,3.0106,2.8913,2.8046,2.6986,2.6545,2.677,2.6178,2.5883,2.5973,2.5687,2.5387,2.5187,2.5174,2.5254,2.548,2.5493,2.5731,2.6288,2.6678,2.5839,2.3274,2.3152,2.3457,2.4142,2.4068,2.4188,2.4734,2.4835,2.4576,2.3755,2.3971,2.4521,2.5259,2.5621,2.6599,2.8658,2.8461,2.8522,2.9018,2.899,2.9113,2.9478,3.0411,3.1028,3.0355,2.9328,2.841,2.8262,2.8312,2.8015,2.7916,2.8048,2.7964,2.8459,2.8671,2.876,2.8894,2.9371,3.0838,3.2879,3.1569,3.1392,3.302,3.1798,3.0107,3.0087,3.0433,3.0334,2.9174,2.9293,2.9604,4.609,4.5705,4.5297,4.4691,4.3976,4.3573,4.2784,4.1721,4.088,4.0421,4.0311,4.0019,3.9817,3.9726,3.9781,3.9762,3.9689,3.928,3.9133,3.9095,3.8765,3.8417,3.8088,3.8088,3.7868,3.7483,3.7098,3.719,3.7612,3.7062,3.7189,3.8014,3.8015,3.8088,3.8417,3.8545,3.8508,3.8325,3.7263,3.6365,3.5595,3.444,3.3211,3.1964,3.1011,2.9999,2.888,2.8329,2.7926,2.7646,2.7518,2.7481,2.7494,2.7407,2.7392,2.7346,2.7332,2.7378,2.7402,2.7421,2.7453,2.7555,2.7907,2.7254,2.5242,2.5011,2.5338,2.607,2.5561,2.5602,2.6835,2.6519,2.6103,2.5898,2.6403,2.6703,2.6612,2.7339,2.8045,2.8606,2.8329,2.9039,3.0288,3.0157,3.0322,3.1394,3.1897,3.2254,3.1937,3.1465,3.0937,3.0829,3.0795,3.0795,3.0469,3.0762,3.0572,3.0867,3.078,3.09,3.1378,3.1702,3.2354,3.3572,3.3191,3.3247,3.3799,3.3564,3.3001,3.3162,3.3518,3.3492,3.2259,3.2413,3.2084,4.6274,4.5883,4.5705,4.5278,4.4673,4.3848,4.3059,4.2292,4.1503,4.0898,4.0513,4.0515,4.0423,4.0221,4.0221,4.0221,4.0203,3.9779,3.9577,3.9577,3.9393,3.921,3.9008,3.8766,3.8455,3.8032,3.7648,3.7538,3.7648,3.752,3.7721,3.8272,3.8528,3.8728,3.8911,3.8911,3.893,3.8893,3.796,3.7172,3.6567,3.5192,3.4057,3.3303,3.1724,3.0565,2.9999,2.9173,2.8531,2.8146,2.8109,2.8032,2.7826,2.7807,2.7807,2.7807,2.7807,2.7807,2.7807,2.8215,2.8454,2.8458,2.9027,2.9004,2.8086,2.781,2.7917,2.8473,2.8136,2.8186,2.895,2.8834,2.8544,2.7993,2.8394,2.8727,2.8827,2.9359,3.0102,3.0755,3.096,3.127,3.2046,3.1686,3.1598,3.2519,3.2757,3.2718,3.2309,3.1797,3.141,3.141,3.141,3.1394,3.141,3.141,3.141,3.141,3.1595,3.1754,3.2056,3.237,3.312,3.3669,3.3816,3.3819,3.3808,3.3804,3.3909,3.4055,3.4606,3.4378,3.3406,3.334,3.3188,4.6292,4.5755,4.5847,4.5608,4.5058,4.3889,4.3136,4.2718,4.2091,4.143,4.0861,4.1011,4.0937,4.0662,4.0623,4.0644,4.0588,4.0221,4.0058,4.004,3.9948,3.9893,3.9854,3.9502,3.9151,3.8728,3.8327,3.7959,3.774,3.7997,3.8235,3.8475,3.9061,3.9373,3.9353,3.9353,3.9298,3.917,3.8491,3.7942,3.7502,3.598,3.4973,3.4551,3.2606,3.1396,3.1173,3.0219,2.9449,2.8975,2.8938,2.8751,2.8366,2.8329,2.8307,2.8215,2.8212,2.8212,2.8234,2.8862,2.9265,2.9284,3.0017,3.0476,3.0458,3.0274,3.0164,3.0314,3.0328,3.0398,3.049,3.0874,3.085,3.0059,3.0345,3.0727,3.0954,3.1425,3.2032,3.3043,3.3269,3.3273,3.3268,3.2974,3.275,3.279,3.2776,3.2429,3.2046,3.1669,3.1428,3.141,3.141,3.141,3.141,3.141,3.141,3.141,3.1632,3.1676,3.1688,3.2379,3.3194,3.3647,3.3815,3.3817,3.3817,3.3817,3.3835,3.3908,3.4441,3.4667,3.3953,3.4081,3.4372,4.6397,4.5498,4.5778,4.5448,4.4659,4.3485,4.2769,4.2402,4.2274,4.2017,4.1595,4.1228,4.1102,4.1047,4.1047,4.1047,4.1011,4.0604,4.046,4.0384,4.0077,3.9893,3.9948,3.9854,3.9595,3.917,3.8747,3.8565,3.849,3.8527,3.8931,3.9634,3.9819,3.9856,3.9838,3.9877,3.9652,3.9205,3.8765,3.8363,3.7868,3.6365,3.5522,3.5467,3.4202,3.3175,3.2478,3.1999,3.1359,3.0662,3.055,3.0384,3.0002,2.9947,2.9782,2.9445,2.9409,2.9427,2.943,2.9819,3.0094,3.0149,3.0825,3.1284,3.1302,3.1577,3.1435,3.1011,3.11,3.1247,3.1339,3.1962,3.2157,3.1742,3.2289,3.277,3.2503,3.3097,3.3477,3.3198,3.347,3.3726,3.3598,3.3286,3.299,3.262,3.2224,3.1907,3.1887,3.1706,3.143,3.1428,3.141,3.141,3.141,3.141,3.141,3.1394,3.1449,3.1492,3.1625,3.214,3.2894,3.3658,3.3808,3.3817,3.3817,3.3817,3.3817,3.3891,3.4423,3.512,3.5613,3.5756,3.5755,4.6672,4.6017,4.592,4.5425,4.4623,4.3907,4.3393,4.3008,4.2751,4.2571,4.2366,4.2002,4.1797,4.18,4.1558,4.1448,4.143,4.1026,4.0864,4.0845,4.068,4.0628,4.0588,4.035,4.0146,3.9942,3.9558,3.9355,3.9375,3.9375,3.954,3.9913,4.0357,4.061,4.0631,4.0898,4.0927,4.072,4.0102,3.9823,3.9615,3.7537,3.6423,3.6495,3.5279,3.4375,3.3981,3.3194,3.2333,3.1579,3.1284,3.0972,3.0586,3.0332,3.013,2.9962,2.9962,2.9962,2.9962,3.055,3.0917,3.0917,3.1669,3.2109,3.2128,3.2274,3.2201,3.1944,3.1799,3.1836,3.2093,3.2625,3.2883,3.2809,3.3231,3.3469,3.3341,3.3596,3.3708,3.3579,3.3488,3.3451,3.3396,3.3101,3.2698,3.2368,3.2074,3.2019,3.1744,3.1671,3.1669,3.1449,3.141,3.141,3.141,3.141,3.141,3.1446,3.1614,3.1707,3.1617,3.2305,3.3154,3.3731,3.3793,3.3798,3.3817,3.3817,3.3835,3.3982,3.4459,3.5247,3.6054,3.6201,3.6201,4.68,4.6292,4.5797,4.5246,4.4678,4.4274,4.3793,4.3375,4.3136,4.303,4.2883,4.2696,4.2568,4.2402,4.1944,4.1684,4.165,4.1304,4.1102,4.1102,4.1102,4.1102,4.1066,4.0809,4.0641,4.0607,4.024,4.012,4.02,4.0097,4.0173,4.0446,4.0994,4.1267,4.1329,4.1722,4.1913,4.1742,4.1118,4.0852,4.0698,3.8934,3.7857,3.779,3.6458,3.5565,3.532,3.4381,3.3425,3.2551,3.2111,3.1724,3.1304,3.1011,3.0809,3.0681,3.0495,3.0461,3.0681,3.1247,3.1614,3.1779,3.2386,3.2771,3.2771,3.2771,3.2826,3.29,3.2553,3.2443,3.2588,3.3048,3.3304,3.3249,3.3544,3.3817,3.3798,3.3817,3.3817,3.3798,3.3596,3.3359,3.3306,3.3012,3.2631,3.2479,3.2428,3.239,3.1875,3.1983,3.2056,3.1763,3.1742,3.1648,3.1467,3.154,3.154,3.165,3.1891,3.2089,3.1873,3.2748,3.3316,3.3691,3.3775,3.3798,3.3817,3.3817,3.3963,3.4184,3.4606,3.5247,3.6054,3.6164,3.6201,4.6635,4.5912,4.5104,4.4857,4.4682,4.4315,4.3691,4.3107,4.332,4.3265,4.299,4.3243,4.3206,4.2824,4.2109,4.1702,4.165,4.1265,4.1102,4.1102,4.1102,4.1102,4.1102,4.1105,4.1066,4.0992,4.0704,4.0685,4.0998,4.0685,4.0849,4.1581,4.1684,4.17,4.1765,4.2201,4.2216,4.1921,4.1522,4.1101,4.0761,4.0544,3.9984,3.9262,3.7953,3.694,3.6202,3.5737,3.4939,3.3762,3.3341,3.2938,3.257,3.2476,3.2258,3.1873,3.121,3.1139,3.1765,3.2001,3.2184,3.2568,3.2974,3.3194,3.3231,3.3177,3.3304,3.3671,3.3304,3.2993,3.2808,3.3304,3.3579,3.3306,3.3561,3.3798,3.3817,3.3817,3.3817,3.3817,3.3762,3.3725,3.3726,3.331,3.3073,3.2943,3.2621,3.2314,3.2444,3.2531,3.2514,3.2478,3.2404,3.2274,3.1632,3.1761,3.1946,3.2001,3.2203,3.2605,3.287,3.314,3.345,3.3671,3.3755,3.3816,3.3817,3.3945,3.4184,3.4422,3.4642,3.5247,3.576,3.6091,3.6146,4.8035,4.7182,4.6663,4.6269,4.5965,4.5235,4.4616,4.4093,4.3652,4.3408,4.3338,4.3444,4.3408,4.3265,4.2736,4.2182,4.1705,4.1304,4.1102,4.1102,4.1102,4.1102,4.1123,4.1336,4.1315,4.1129,4.1189,4.1344,4.149,4.1634,4.1855,4.2134,4.2445,4.2591,4.2654,4.3028,4.3158,4.3024,4.287,4.2715,4.2502,4.2024,4.1592,4.1263,3.9567,3.8084,3.6998,3.6589,3.5922,3.499,3.4569,3.4166,3.3762,3.3249,3.2791,3.2423,3.2128,3.2203,3.2699,3.3011,3.3321,3.3707,3.3872,3.3982,3.3909,3.3744,3.3653,3.3744,3.3689,3.3488,3.3451,3.3634,3.3744,3.3634,3.3708,3.3817,3.3817,3.3817,3.3817,3.3817,3.3817,3.3817,3.3763,3.3618,3.3453,3.3251,3.3199,3.3016,3.2736,3.2791,3.2901,3.268,3.2588,3.2513,3.2293,3.2258,3.2351,3.2313,3.2441,3.2794,3.3083,3.3373,3.37,3.3735,3.3796,3.3816,3.3817,3.3853,3.4129,3.4404,3.4661,3.4917,3.5321,3.5742,3.587,4.8789,4.8026,4.7704,4.7292,4.6762,4.6115,4.5527,4.4953,4.4378,4.4024,4.3911,4.3889,4.3834,4.3628,4.3283,4.2842,4.2266,4.1625,4.1368,4.1476,4.1368,4.1376,4.1562,4.1947,4.1964,4.183,4.2134,4.2401,4.2511,4.2564,4.2654,4.2821,4.302,4.3088,4.3171,4.3484,4.3691,4.3691,4.3691,4.3691,4.3633,4.3124,4.269,4.2293,4.0918,3.9433,3.8065,3.7371,3.6626,3.5888,3.5411,3.5064,3.4752,3.4147,3.3671,3.3378,3.3138,3.3213,3.3689,3.3928,3.4165,3.4551,3.4715,3.4752,3.4623,3.4459,3.4331,3.4221,3.4037,3.3982,3.3982,3.389,3.3817,3.3817,3.3817,3.3817,3.3817,3.3817,3.3817,3.3817,3.3817,3.3817,3.3817,3.3817,3.3671,3.3397,3.3653,3.3506,3.3175,3.3193,3.334,3.3065,3.3046,3.2973,3.2863,3.29,3.2846,3.2791,3.2881,3.3143,3.3309,3.3617,3.3763,3.3817,3.3817,3.3817,3.3817,3.3817,3.4018,3.4312,3.4513,3.4716,3.5082,3.5449,3.565,4.8842,4.8159,4.8012,4.7598,4.6956,4.6793,4.6245,4.5545,4.5376,4.5092,4.4759,4.4696,4.4488,4.4158,4.3799,4.3549,4.3416,4.2445,4.2035,4.2223,4.1954,4.2015,4.2346,4.2793,4.2987,4.2963,4.3427,4.3814,4.3979,4.3399,4.327,4.3547,4.3284,4.3171,4.3109,4.3525,4.3691,4.3691,4.3691,4.3691,4.3691,4.3613,4.3241,4.2557,4.1952,4.0918,3.9374,3.8122,3.7106,3.6365,3.587,3.5614,3.5485,3.5119,3.4954,3.4771,3.4221,3.4239,3.4844,3.4715,3.4733,3.5156,3.5431,3.5467,3.5284,3.5321,3.5302,3.5027,3.4642,3.4422,3.4385,3.411,3.3853,3.3817,3.3817,3.3817,3.3817,3.3817,3.3817,3.3817,3.3817,3.3817,3.3817,3.3817,3.378,3.3744,3.3763,3.378,3.3651,3.367,3.3762,3.3743,3.3596,3.3414,3.3451,3.3488,3.3396,3.3324,3.3488,3.3654,3.3617,3.3781,3.3781,3.3817,3.3817,3.3817,3.3817,3.3835,3.3945,3.4183,3.4348,3.4532,3.4899,3.5265,3.5632,4.9768,4.943,4.8854,4.8292,4.7763,4.7427,4.6945,4.6424,4.611,4.586,4.5667,4.5401,4.5363,4.5333,4.4767,4.4573,4.4806,4.388,4.3186,4.2916,4.2991,4.2958,4.2996,4.3579,4.3894,4.3892,4.4049,4.4036,4.3974,4.3967,4.3903,4.3697,4.3582,4.3525,4.3504,4.3629,4.3691,4.3691,4.3691,4.3691,4.3691,4.3691,4.3555,4.3261,4.2597,4.1814,4.0976,3.9281,3.8066,3.7502,3.681,3.62,3.5705,3.5485,3.5394,3.5357,3.4918,3.5119,3.6017,3.587,3.587,3.6402,3.6493,3.6383,3.6182,3.5815,3.5724,3.5705,3.5229,3.4899,3.5046,3.4605,3.4165,3.3818,3.3817,3.3817,3.3853,3.3835,3.3817,3.3817,3.3817,3.3817,3.3817,3.3799,3.3818,3.3817,3.3818,3.3818,3.3817,3.3817,3.3817,3.3817,3.3781,3.3763,3.3689,3.367,3.3598,3.3561,3.3707,3.3817,3.3817,3.3817,3.3817,3.3817,3.3817,3.3817,3.3817,3.3853,3.3945,3.3945,3.4037,3.433,3.4697,3.5045,3.5339,5.0492,5.0121,4.9437,4.875,4.8177,4.7861,4.752,4.7126,4.6965,4.6812,4.6618,4.6341,4.6269,4.628,4.5781,4.5728,4.5941,4.5425,4.4939,4.4435,4.4144,4.4095,4.4087,4.4871,4.5367,4.5445,4.5348,4.5135,4.4886,4.4695,4.4471,4.4217,4.3867,4.3711,4.3691,4.3691,4.3691,4.3691,4.3691,4.3691,4.3691,4.3691,4.3691,4.3594,4.3007,4.2558,4.2167,4.0567,3.9222,3.8365,3.7496,3.6714,3.6127,3.6035,3.598,3.5797,3.565,3.5797,3.6457,3.6255,3.6384,3.6824,3.6988,3.686,3.6659,3.6219,3.6402,3.6366,3.5724,3.5376,3.565,3.5265,3.4697,3.4294,3.3982,3.3891,3.3964,3.4037,3.4037,3.4055,3.4055,3.3963,3.3836,3.3806,3.3822,3.3819,3.3804,3.3821,3.3819,3.3817,3.3817,3.3817,3.3817,3.3817,3.3817,3.3798,3.3798,3.378,3.378,3.3817,3.3817,3.3817,3.3817,3.3817,3.3817,3.3817,3.3817,3.3817,3.3872,3.3817,3.3835,3.4128,3.4458,3.4623,3.4954,5.0894,5.0195,4.9707,4.9,4.832,4.8258,4.7952,4.761,4.7942,4.7826,4.7459,4.7368,4.725,4.6998,4.6823,4.6778,4.6934,4.6812,4.6716,4.6395,4.5871,4.5457,4.5798,4.6391,4.6864,4.7201,4.6906,4.6711,4.6377,4.5504,4.4977,4.4744,4.4121,4.373,4.3711,4.3691,4.3691,4.3691,4.3691,4.3691,4.3691,4.3691,4.3691,4.3691,4.334,4.3087,4.2791,4.1691,4.0314,3.886,3.7813,3.7153,3.6896,3.6842,3.664,3.6329,3.6292,3.6274,3.631,3.642,3.6439,3.6622,3.7117,3.7154,3.6771,3.699,3.708,3.688,3.6127,3.5797,3.6054,3.576,3.5357,3.4972,3.4386,3.4166,3.4385,3.444,3.444,3.444,3.4422,3.4312,3.4002,3.3956,3.3919,3.3896,3.3917,3.397,3.3912,3.3908,3.3818,3.3836,3.3908,3.3817,3.3817,3.3817,3.3817,3.3817,3.3817,3.3817,3.3817,3.3817,3.3817,3.3817,3.3817,3.3817,3.3817,3.3817,3.3817,3.3817,3.389,3.4037,3.422,3.444,3.4715,5.0816,5.0566,4.9844,4.9199,4.8753,4.8714,4.8255,4.7732,4.8371,4.8373,4.8067,4.799,4.8079,4.8284,4.7607,4.7529,4.7703,4.7501,4.7376,4.7415,4.7437,4.7209,4.7148,4.7307,4.748,4.7581,4.7165,4.6777,4.6445,4.582,4.5215,4.457,4.4373,4.4043,4.3769,4.375,4.3691,4.3691,4.3711,4.3711,4.3711,4.3711,4.3691,4.3691,4.3594,4.3399,4.3065,4.2156,4.0711,3.8834,3.7865,3.7373,3.7245,3.7245,3.7172,3.7024,3.7043,3.7062,3.7062,3.7024,3.719,3.7483,3.763,3.7874,3.7976,3.7562,3.7335,3.6966,3.6381,3.6182,3.6439,3.6035,3.5485,3.5064,3.4844,3.4716,3.4789,3.4844,3.4844,3.4844,3.4844,3.4771,3.4626,3.4483,3.4357,3.4296,3.4313,3.4333,3.4257,3.4,3.3927,3.4037,3.4073,3.3908,3.3817,3.3817,3.3817,3.3817,3.3817,3.3817,3.3817,3.3817,3.3817,3.3817,3.3817,3.3817,3.3817,3.3817,3.3817,3.3817,3.3853,3.3963,3.422,3.4458,3.4661,5.0835,5.0488,4.9781,4.9375,4.9101,4.8773,4.8323,4.803,4.834,4.848,4.8219,4.818,4.846,4.8808,4.8341,4.8224,4.8408,4.8201,4.8131,4.8177,4.834,4.8323,4.8167,4.8148,4.8148,4.8069,4.748,4.7109,4.6738,4.6096,4.5432,4.5019,4.4746,4.4512,4.4315,4.4237,4.4237,4.4217,4.4081,4.3983,4.3984,4.3789,4.3711,4.3691,4.3691,4.3555,4.3239,4.2361,4.0971,3.9493,3.8708,3.8136,3.7465,3.7575,3.7575,3.7428,3.7391,3.7373,3.7391,3.7391,3.7502,3.7722,3.7868,3.8002,3.797,3.7615,3.7239,3.6656,3.636,3.6438,3.6604,3.6219,3.5889,3.5797,3.5614,3.5449,3.5266,3.5266,3.5247,3.5266,3.5247,3.5174,3.5046,3.4938,3.4847,3.4754,3.4826,3.4789,3.4679,3.433,3.4128,3.4293,3.4147,3.3928,3.3853,3.3835,3.3817,3.3817,3.389,3.389,3.3817,3.3817,3.3817,3.3817,3.3817,3.3817,3.3817,3.3817,3.3817,3.3817,3.3817,3.3963,3.4257,3.4371,3.459,5.0957,5.0297,4.9722,4.9566,4.9488,4.8691,4.8363,4.8281,4.834,4.8301,4.8223,4.8262,4.8558,4.8894,4.8766,4.8851,4.8874,4.8766,4.8808,4.8773,4.8835,4.8796,4.8757,4.8714,4.8675,4.8538,4.7952,4.7561,4.709,4.6252,4.5783,4.5529,4.5215,4.5037,4.4862,4.492,4.4998,4.4842,4.4588,4.4432,4.4373,4.416,4.3984,4.3848,4.373,4.3691,4.3409,4.2646,4.1466,4.0167,3.9975,3.907,3.7926,3.8071,3.796,3.774,3.7702,3.7703,3.7428,3.7465,3.7502,3.7612,3.785,3.7907,3.7745,3.7595,3.7254,3.6632,3.6321,3.6437,3.6549,3.6365,3.6292,3.6347,3.6274,3.6017,3.576,3.5669,3.5669,3.5669,3.5669,3.5467,3.5321,3.5285,3.5358,3.5119,3.5192,3.5174,3.5027,3.4716,3.4623,3.4678,3.4385,3.3928,3.3873,3.3836,3.3835,3.3835,3.3963,3.3982,3.3835,3.3817,3.3817,3.3817,3.3817,3.3817,3.3817,3.3817,3.3853,3.3945,3.4037,3.4202,3.4367,3.4337,3.4448,5.1016,5.105,4.9957,4.9898,5.025,4.9281,4.8757,4.8714,4.8714,4.8476,4.834,4.8578,4.8796,4.8894,4.8894,4.8894,4.8894,4.8894,4.8894,4.8894,4.8894,4.8894,4.8894,4.8874,4.8675,4.8343,4.7874,4.7422,4.6953,4.6523,4.5996,4.5744,4.5664,4.5371,4.5154,4.5154,4.5018,4.4998,4.492,4.4881,4.4862,4.4725,4.4491,4.4219,4.3885,4.3711,4.3671,4.3448,4.2668,4.1535,4.0486,3.978,3.9325,3.934,3.9081,3.8583,3.8601,3.84,3.7722,3.7796,3.7887,3.7923,3.8015,3.8114,3.8347,3.8003,3.7646,3.7181,3.6876,3.6621,3.6439,3.6311,3.6292,3.6329,3.6274,3.6182,3.6109,3.6054,3.6036,3.6054,3.6054,3.6036,3.5944,3.5889,3.5815,3.5577,3.5504,3.5522,3.5339,3.5101,3.5046,3.5046,3.475,3.4329,3.4092,3.4055,3.3982,3.4037,3.4165,3.4257,3.411,3.3982,3.4055,3.3963,3.3817,3.3853,3.4018,3.3982,3.4037,3.4147,3.4294,3.4514,3.4626,3.4484,3.4558,5.0913,5.0991,4.9937,4.9996,5.0527,4.9457,4.8894,4.8855,4.8656,4.8441,4.8301,4.8499,4.8698,4.8894,4.8894,4.8894,4.8894,4.8894,4.8894,4.8894,4.8894,4.8894,4.8835,4.8656,4.8398,4.8125,4.7539,4.7126,4.6872,4.6677,4.6484,4.6289,4.625,4.6348,4.6091,4.5799,4.576,4.5799,4.5508,4.5332,4.5312,4.5096,4.4803,4.4473,4.4141,4.3945,4.371,4.3484,4.2954,4.2123,4.1236,4.0446,4.0042,4.0077,3.9836,3.9412,3.9375,3.9302,3.8788,3.8733,3.8825,3.8565,3.8565,3.8552,3.8503,3.824,3.7905,3.761,3.728,3.6915,3.6549,3.6494,3.6439,3.6237,3.6201,3.6201,3.6201,3.6201,3.6201,3.6201,3.6182,3.6182,3.6201,3.6201,3.6164,3.5852,3.5852,3.587,3.576,3.5541,3.5376,3.5302,3.5098,3.4785,3.4439,3.4275,3.4183,3.4312,3.4513,3.4587,3.4569,3.4459,3.4349,3.4221,3.4128,3.4276,3.4404,3.4331,3.4331,3.4551,3.4752,3.4936,3.501,3.4903,3.5139,5.0781,5.082,4.982,4.9961,5.0508,4.9437,4.8929,4.8929,4.8496,4.8398,4.832,4.8301,4.8636,4.8835,4.8894,4.8894,4.8894,4.8894,4.8894,4.8894,4.8894,4.8894,4.8792,4.8476,4.8183,4.8047,4.7363,4.695,4.6911,4.6911,4.6894,4.695,4.6989,4.7051,4.7246,4.6933,4.6621,4.6755,4.6367,4.5996,4.5898,4.5564,4.5213,4.4785,4.4551,4.4277,4.3922,4.3597,4.3124,4.2527,4.2112,4.1302,4.0575,4.0331,4.0423,4.0021,3.9964,3.9817,3.9652,3.9707,3.9595,3.9316,3.9298,3.9093,3.8782,3.8601,3.8418,3.8087,3.7776,3.7337,3.697,3.6897,3.6695,3.6439,3.6292,3.6274,3.6219,3.6201,3.6201,3.6201,3.6201,3.6201,3.6201,3.6201,3.6201,3.6201,3.6201,3.6164,3.6054,3.5943,3.576,3.5705,3.5539,3.5135,3.4769,3.4623,3.4513,3.4623,3.4826,3.4917,3.4991,3.4936,3.4826,3.4587,3.4568,3.4697,3.4771,3.4734,3.4807,3.5027,3.5174,3.5302,3.534,3.5339,3.5632,5.0683,5.1167,4.9629,4.9691,5.0508,4.9437,4.9086,4.9297,4.8929,4.8773,4.8753,4.8773,4.8773,4.8894,4.8894,4.8894,4.8894,4.8894,4.8894,4.8894,4.8894,4.8894,4.8792,4.8418,4.8066,4.7637,4.7185,4.697,4.6911,4.6911,4.7226,4.7444,4.7461,4.7558,4.764,4.7422,4.7327,4.7422,4.7168,4.6933,4.668,4.6501,4.6091,4.549,4.5137,4.4725,4.4394,4.4174,4.3829,4.3085,4.2922,4.2307,4.149,4.1107,4.0832,4.0515,4.0405,4.0295,4.0095,3.9966,3.9893,3.9801,3.9781,3.9603,3.9396,3.9384,3.9171,3.8881,3.8328,3.7758,3.7355,3.7355,3.7098,3.6841,3.6695,3.6604,3.6347,3.6292,3.6255,3.6218,3.62,3.6201,3.6201,3.6201,3.6201,3.6201,3.6201,3.6201,3.6145,3.6109,3.6072,3.6054,3.6091,3.5576,3.5081,3.499,3.4917,3.5009,3.5174,3.5266,3.5339,3.5394,3.5302,3.5137,3.4991,3.4991,3.5046,3.5119,3.5247,3.5449,3.554,3.5632,3.5687,3.576,3.587,5.0434,5.0644,4.9418,4.9496,5.0176,4.9359,4.9144,4.9391,4.9086,4.8894,4.8894,4.8894,4.8894,4.8894,4.8894,4.8894,4.8894,4.8894,4.8894,4.8894,4.8894,4.8894,4.8832,4.8418,4.8144,4.7832,4.75,4.7126,4.6989,4.7399,4.7656,4.7832,4.791,4.803,4.8112,4.7815,4.7796,4.7793,4.7695,4.75,4.7285,4.7266,4.6797,4.6172,4.5781,4.535,4.4822,4.4726,4.4301,4.3634,4.3608,4.2951,4.2153,4.1734,4.1484,4.0963,4.079,4.0735,4.0572,4.0517,4.0442,4.0221,4.0203,4.0015,3.9786,3.972,3.9746,3.9322,3.9045,3.8363,3.7795,3.7923,3.7702,3.7263,3.7116,3.6968,3.6728,3.673,3.6583,3.6344,3.6272,3.6255,3.6201,3.6201,3.6201,3.6201,3.6201,3.6201,3.6201,3.6201,3.6201,3.6164,3.6146,3.5834,3.5412,3.5375,3.5321,3.5412,3.5504,3.5614,3.5687,3.576,3.5797,3.5724,3.5595,3.5357,3.5577,3.5742,3.5797,3.5834,3.587,3.5944,3.6091,3.6201,3.6201,5.0297,5.0351,4.9418,4.9515,5.0102,4.9398,4.9199,4.9371,4.9086,4.8894,4.8894,4.8894,4.8894,4.8894,4.8894,4.8894,4.8894,4.8894,4.8894,4.8894,4.8894,4.8894,4.8773,4.8578,4.8323,4.8105,4.8066,4.7598,4.7461,4.779,4.8164,4.832,4.8363,4.8499,4.864,4.8245,4.8167,4.8128,4.805,4.7835,4.7757,4.76,4.7285,4.6641,4.6562,4.6172,4.5428,4.5311,4.487,4.4344,4.4116,4.3762,4.2495,4.2458,4.2185,4.1426,4.1166,4.1102,4.1084,4.1047,4.0864,4.0644,4.0625,4.0442,4.024,4.0109,3.9909,3.9538,3.9336,3.9135,3.864,3.8713,3.8418,3.7923,3.7647,3.7499,3.7164,3.7036,3.7041,3.6803,3.6511,3.6365,3.6347,3.6201,3.6201,3.6201,3.6201,3.6201,3.6201,3.6201,3.6182,3.6146,3.6072,3.5907,3.576,3.576,3.5742,3.576,3.587,3.5944,3.6035,3.6127,3.609,3.6035,3.5925,3.5779,3.6054,3.6201,3.6091,3.6054,3.6164,3.6201,3.6201,3.6201,3.6201,5.0605,5.1148,4.9918,4.9918,5.0527,4.9785,4.9449,4.9449,4.9086,4.8913,4.8894,4.8894,4.8894,4.8894,4.8894,4.8894,4.8894,4.8894,4.8894,4.8894,4.8894,4.8933,4.891,4.8874,4.8617,4.8437,4.8578,4.8437,4.8144,4.8183,4.8418,4.8695,4.8773,4.8851,4.891,4.8832,4.8753,4.8792,4.8734,4.8538,4.8183,4.7894,4.7659,4.7464,4.7346,4.6973,4.6211,4.6013,4.5636,4.4933,4.4872,4.4446,4.366,4.3478,4.2804,4.195,4.1336,4.1102,4.1121,4.1102,4.1084,4.0974,4.0974,4.0992,4.0772,4.046,4.0258,4.0366,3.9981,3.9632,3.9393,3.9597,3.9247,3.873,3.827,3.7844,3.7436,3.7548,3.7535,3.754,3.734,3.6824,3.6567,3.6366,3.6201,3.6201,3.6201,3.6219,3.6201,3.6201,3.6201,3.6164,3.6146,3.6017,3.5944,3.5999,3.5999,3.6036,3.6109,3.6201,3.6237,3.6237,3.6237,3.6164,3.609,3.6054,3.6127,3.6201,3.6201,3.6201,3.6201,3.6201,3.6201,3.6201,3.6201,4.9996,5.0289,4.9742,4.9996,5.062,4.9859,4.9644,4.9726,4.9183,4.8894,4.8894,4.8894,4.8894,4.8894,4.8894,4.8894,4.8894,4.8894,4.8894,4.8894,4.8913,4.9007,4.9164,4.9027,4.8812,4.8906,4.889,4.8773,4.8617,4.8617,4.8734,4.889,4.9125,4.9238,4.9281,4.9515,4.9414,4.9316,4.9219,4.9117,4.8922,4.873,4.8418,4.7969,4.7972,4.7461,4.6875,4.6618,4.6209,4.5625,4.5566,4.5154,4.4427,4.4139,4.3761,4.227,4.196,4.1616,4.1221,4.1121,4.1121,4.1121,4.1121,4.1084,4.0974,4.0588,4.0331,4.0478,3.985,3.9575,3.9557,3.9522,3.9171,3.882,3.8673,3.8414,3.8026,3.8084,3.8144,3.8131,3.8098,3.7597,3.7135,3.6934,3.6639,3.6252,3.6327,3.6438,3.6329,3.6201,3.6201,3.6201,3.6182,3.6164,3.6127,3.6146,3.6109,3.6127,3.6127,3.6219,3.6274,3.6292,3.6403,3.6439,3.6439,3.6366,3.6256,3.6201,3.6201,3.6201,3.6201,3.62,3.6219,3.6201,3.62,4.9414,4.9488,4.9508,4.9937,5.0566,4.982,4.9707,4.9883,4.9222,4.8894,4.8894,4.8894,4.8894,4.8894,4.8894,4.8894,4.8894,4.8894,4.8894,4.8894,4.891,4.9066,4.9125,4.9027,4.9046,4.9352,4.8988,4.8949,4.9046,4.9046,4.9046,4.9066,4.9336,4.9551,4.9746,4.9902,4.9922,4.9726,4.9687,4.9586,4.9449,4.943,4.9004,4.8613,4.8281,4.7969,4.7246,4.709,4.668,4.6074,4.6055,4.5666,4.4946,4.4879,4.4336,4.31,4.2576,4.2188,4.1645,4.1323,4.1213,4.1194,4.1121,4.1102,4.1029,4.0478,4.0276,4.0699,4.0274,3.9832,3.9555,3.9612,3.9355,3.9096,3.8801,3.871,3.8637,3.8545,3.8491,3.8439,3.8424,3.8439,3.8014,3.7702,3.7185,3.6485,3.6433,3.6657,3.6492,3.6291,3.6237,3.6256,3.6256,3.6256,3.6219,3.6219,3.6219,3.6237,3.6237,3.6199,3.6252,3.6549,3.6809,3.6827,3.6844,3.6494,3.6274,3.6237,3.6201,3.6237,3.6274,3.6274,3.6255,3.6237,3.6384,4.9141,4.9508,4.9488,4.9785,5.0238,4.9703,4.9527,4.9566,4.9105,4.8913,4.8894,4.8894,4.8894,4.8894,4.8894,4.8894,4.8894,4.8894,4.891,4.891,4.8913,4.9011,4.9086,4.9105,4.8988,4.9109,4.9128,4.9281,4.9371,4.9473,4.9449,4.9488,4.9683,4.9863,5.0019,5.0238,5.0312,5.0176,5.0176,4.9902,4.9683,4.9527,4.9297,4.8929,4.8776,4.8464,4.764,4.7561,4.7148,4.6328,4.6348,4.6191,4.5632,4.5485,4.4758,4.3754,4.3093,4.2689,4.2198,4.158,4.1357,4.143,4.1338,4.1102,4.1084,4.1066,4.1011,4.0919,4.0549,4.0497,4.0366,4.0311,3.9779,3.9465,3.9111,3.8901,3.885,3.8838,3.8765,3.8711,3.8821,3.9023,3.9078,3.8785,3.7698,3.6941,3.7094,3.734,3.6707,3.6433,3.6365,3.6329,3.6329,3.6311,3.6274,3.6329,3.6475,3.6439,3.6365,3.6287,3.6207,3.6599,3.7122,3.7497,3.7534,3.692,3.6365,3.6402,3.6402,3.6366,3.6347,3.6329,3.642,3.6475,3.6731,4.8968,4.9125,4.9121,4.9555,5.0156,4.9707,4.9508,4.943,4.9086,4.8894,4.8894,4.8894,4.8894,4.8894,4.8894,4.8894,4.8894,4.8894,4.9027,4.9125,4.9086,4.9246,4.9359,4.9418,4.9418,4.9594,4.9672,4.973,4.9902,4.9922,5.0137,5.0215,5.025,5.0391,5.0527,5.0586,5.0683,5.0801,5.0664,5.0351,5.0019,4.9883,4.9613,4.8952,4.8894,4.8578,4.8066,4.7988,4.7441,4.6911,4.6719,4.6445,4.615,4.5876,4.5167,4.4174,4.365,4.3171,4.2672,4.1984,4.1595,4.154,4.1359,4.1139,4.1176,4.0937,4.0937,4.0843,4.0735,4.057,4.0531,4.0276,3.9891,3.9705,3.9498,3.921,3.9118,3.9148,3.9247,3.9287,3.9634,3.9962,3.9962,3.9925,3.8598,3.746,3.7742,3.7856,3.7293,3.6867,3.6875,3.6879,3.6916,3.6934,3.6934,3.6897,3.686,3.675,3.6621,3.6482,3.6452,3.6888,3.7415,3.7868,3.8113,3.7547,3.7062,3.6769,3.6604,3.6549,3.6457,3.6402,3.653,3.6769,3.7115,4.8776,4.8874,4.8757,4.9148,4.973,4.9453,4.9316,4.9277,4.9027,4.8894,4.8894,4.8796,4.8695,4.8695,4.8675,4.8675,4.8636,4.8675,4.8968,4.8988,4.8968,4.9226,4.9515,4.9668,4.959,4.998,5.0199,5.0199,5.0371,5.0395,5.0605,5.0816,5.0996,5.0952,5.0952,5.1016,5.1128,5.1245,5.1128,5.0781,5.043,5.0219,4.9887,4.9164,4.8988,4.8636,4.8281,4.8105,4.779,4.7341,4.7067,4.6973,4.6647,4.6191,4.556,4.4828,4.4125,4.359,4.3059,4.2534,4.2017,4.1907,4.1724,4.1561,4.1378,4.1155,4.1375,4.1228,4.0809,4.0515,4.0714,4.0405,4.0221,4.0036,3.9817,3.9587,3.9567,3.9573,3.9766,3.9903,4.0228,4.0405,4.046,4.0347,3.9762,3.865,3.8551,3.8609,3.819,3.7839,3.7682,3.7704,3.7685,3.7722,3.7757,3.774,3.7685,3.7465,3.7239,3.6832,3.686,3.7338,3.777,3.8198,3.8294,3.8054,3.7762,3.7358,3.7027,3.6696,3.6732,3.6841,3.7227,3.7519,3.7642,4.848,4.8835,4.8398,4.8519,4.8933,4.8933,4.8929,4.8968,4.8933,4.8894,4.8832,4.8519,4.8379,4.8379,4.8496,4.846,4.8437,4.8421,4.8597,4.8812,4.8672,4.8695,4.9105,4.9453,4.9766,4.9664,5.0098,5.0586,5.0801,5.0801,5.1011,5.1182,5.1284,5.1304,5.1358,5.1358,5.1377,5.1401,5.1362,5.1089,5.0742,5.041,5.0,4.9473,4.9121,4.8769,4.8437,4.834,4.8066,4.7676,4.7558,4.748,4.7341,4.6917,4.6276,4.5426,4.4709,4.409,4.3523,4.3107,4.2714,4.2329,4.213,4.2054,4.2164,4.2127,4.1925,4.1687,4.154,4.1378,4.1158,4.0827,4.0696,4.0494,4.0313,4.0166,4.0164,4.0107,4.0301,4.0398,4.0446,4.0552,4.0662,4.068,4.0517,4.0015,3.9601,3.9247,3.8866,3.8539,3.8252,3.8253,3.8253,3.8491,3.8528,3.8583,3.8472,3.8234,3.7967,3.761,3.7579,3.8036,3.8391,3.8666,3.8697,3.8676,3.8334,3.797,3.769,3.7465,3.741,3.7537,3.7922,3.8234,3.8394,4.7894,4.805,4.8144,4.8125,4.8128,4.8656,4.8894,4.8894,4.8894,4.8894,4.8874,4.8695,4.8828,4.8926,4.873,4.8617,4.8617,4.8675,4.8855,4.8835,4.8675,4.9203,4.9594,4.9824,5.0078,5.043,5.0781,5.0972,5.1206,5.1148,5.1226,5.1358,5.1397,5.1377,5.1377,5.1397,5.1377,5.1377,5.1362,5.1206,5.084,5.0625,5.0254,4.9586,4.9394,4.9062,4.8695,4.8656,4.8402,4.8069,4.803,4.7891,4.767,4.7245,4.653,4.5764,4.5083,4.4674,4.412,4.3687,4.3375,4.292,4.2534,4.2402,4.2311,4.2292,4.2201,4.2146,4.2109,4.198,4.1873,4.1797,4.1669,4.1393,4.1194,4.0992,4.0937,4.0788,4.0811,4.083,4.0901,4.0864,4.0937,4.0919,4.0772,4.0492,4.0017,3.9577,3.9199,3.8797,3.849,3.86,3.873,3.9098,3.93,3.9392,3.9243,3.8968,3.8775,3.8571,3.8674,3.8819,3.9358,3.9819,3.9577,3.93,3.875,3.8328,3.842,3.8325,3.816,3.8142,3.8435,3.8785,3.9116,4.7464,4.7598,4.7692,4.7793,4.7871,4.8421,4.8656,4.8656,4.8656,4.8734,4.8855,4.8757,4.8656,4.8769,4.889,4.8597,4.8542,4.8815,4.8894,4.8894,4.8894,4.9281,4.9746,5.0273,5.0488,5.0879,5.1167,5.1377,5.1362,5.1377,5.1377,5.1377,5.1397,5.1397,5.1397,5.1397,5.1397,5.1397,5.1382,5.1304,5.103,5.0796,5.0527,5.0058,4.9683,4.9375,4.9121,4.8949,4.8776,4.8519,4.8402,4.8281,4.7975,4.7561,4.6976,4.6408,4.5781,4.5437,4.5005,4.461,4.4263,4.3719,4.3085,4.2751,4.2714,4.2806,4.2659,4.2586,4.2531,4.2494,4.2516,4.2494,4.2311,4.1999,4.176,4.158,4.1396,4.1247,4.1084,4.1121,4.1084,4.1102,4.1102,4.1102,4.1011,4.0691,4.0375,3.9953,3.9587,3.9333,3.9076,3.9206,3.9445,3.9868,4.0146,4.0256,4.0052,3.9701,3.9581,3.9513,3.9413,3.9502,4.0242,4.0641,3.9901,3.9259,3.8883,3.8662,3.8688,3.8747,3.8765,3.882,3.8966,3.9188,3.9467,4.7148,4.7464,4.7087,4.7399,4.8044,4.8105,4.8164,4.8203,4.8223,4.848,4.8874,4.848,4.834,4.8069,4.8578,4.8519,4.8128,4.8659,4.8757,4.889,4.8929,4.9297,4.9805,5.0391,5.0742,5.0933,5.1167,5.1397,5.1397,5.1397,5.1397,5.1397,5.1397,5.1397,5.1397,5.1397,5.1397,5.1397,5.1377,5.1338,5.1226,5.0976,5.0762,5.0391,4.9937,4.9547,4.9297,4.9082,4.891,4.8812,4.8812,4.8832,4.8714,4.846,4.8004,4.7418,4.6649,4.6227,4.6011,4.5606,4.529,4.4734,4.4145,4.3751,4.3389,4.3283,4.3136,4.3026,4.299,4.2953,4.2938,4.2788,4.2659,4.2402,4.2146,4.1925,4.1724,4.1522,4.1302,4.1191,4.1118,4.1121,4.1102,4.1102,4.1102,4.0953,4.0673,4.0453,4.018,4.0198,4.0015,4.0052,4.0347,4.0772,4.0937,4.0809,4.0699,4.0272,4.0492,4.0482,4.0323,4.0001,4.0161,4.0139,3.9648,3.9258,3.9144,3.8998,3.8873,3.8966,3.9188,3.915,3.9225,3.9298,3.9502,4.6562,4.668,4.6833,4.7048,4.7263,4.7282,4.7614,4.8141,4.818,4.848,4.8894,4.8753,4.8675,4.8965,4.8929,4.8714,4.8675,4.8675,4.8597,4.8734,4.9043,4.9531,5.0039,5.0527,5.0894,5.1167,5.1319,5.1397,5.1397,5.1397,5.1397,5.1397,5.1397,5.1397,5.1397,5.1397,5.1397,5.1397,5.1397,5.1397,5.1299,5.103,5.0918,5.062,5.0054,4.9683,4.9492,4.9164,4.8968,4.8894,4.8894,4.8894,4.8874,4.8753,4.8465,4.7919,4.7175,4.6591,4.6591,4.6499,4.6219,4.5875,4.545,4.4606,4.4011,4.3621,4.3607,4.3544,4.3558,4.3577,4.354,4.3412,4.3191,4.2916,4.2659,4.2421,4.2201,4.1925,4.1687,4.1412,4.132,4.1136,4.1158,4.1102,4.1102,4.1066,4.0974,4.0769,4.0641,4.0644,4.0549,4.0549,4.0717,4.0956,4.1066,4.0992,4.0992,4.0956,4.1047,4.1045,4.0798,4.0435,4.0084,3.9661,3.9236,3.9362,3.9612,3.9355,3.8931,3.9373,3.9614,3.952,3.9445,3.9426,3.9373,4.6308,4.6348,4.654,4.6658,4.6697,4.6833,4.7224,4.7653,4.7871,4.8226,4.8617,4.8792,4.8926,4.8903,4.9004,4.8949,4.8597,4.8968,4.8988,4.8832,4.9156,4.9687,5.0176,5.0605,5.0991,5.1265,5.1377,5.1397,5.1377,5.1377,5.1397,5.1397,5.1397,5.1397,5.1397,5.1397,5.1397,5.1397,5.1397,5.1397,5.1284,5.1148,5.1069,5.0874,5.0269,5.0,4.9726,4.9359,4.9105,4.8929,4.8894,4.8894,4.8894,4.8871,4.8824,4.835,4.8077,4.7742,4.77,4.7442,4.7125,4.6808,4.6542,4.5811,4.5107,4.4632,4.4343,4.4121,4.4205,4.4256,4.4201,4.4109,4.3779,4.3467,4.321,4.2953,4.2678,4.2402,4.2072,4.1742,4.1503,4.1283,4.1191,4.1139,4.1102,4.1102,4.1066,4.0992,4.0864,4.0827,4.0641,4.0531,4.0717,4.0919,4.1011,4.1102,4.1084,4.1047,4.1084,4.1066,4.1008,4.073,4.0218,3.9538,3.8865,3.907,3.9314,3.9151,3.8931,3.9393,3.9558,3.93,3.9188,3.9261,3.9151,4.6191,4.6191,4.6269,4.6328,4.6345,4.6736,4.6909,4.697,4.7441,4.7832,4.8262,4.8718,4.8714,4.8672,4.8906,4.8789,4.8613,4.8848,4.8906,4.8871,4.9254,4.9703,5.0078,5.0586,5.0933,5.1226,5.1299,5.1226,5.1323,5.1362,5.1397,5.1397,5.1397,5.1397,5.1397,5.1397,5.1397,5.1397,5.1397,5.1377,5.1382,5.1362,5.1362,5.1284,5.0918,5.0508,5.0176,4.9785,4.9355,4.9125,4.8949,4.8988,4.8988,4.8913,4.8867,4.8824,4.8628,4.8585,4.8473,4.8242,4.7973,4.76,4.7213,4.6839,4.6337,4.5536,4.5125,4.4931,4.5001,4.4841,4.4763,4.4654,4.4398,4.4035,4.3724,4.3485,4.3246,4.2843,4.2329,4.1999,4.1687,4.1467,4.1176,4.1102,4.1102,4.1102,4.1102,4.1066,4.1047,4.0974,4.0845,4.0623,4.0809,4.0974,4.1029,4.1102,4.1102,4.1102,4.1102,4.1102,4.1066,4.0719,4.0281,3.9559,3.8842,3.8686,3.8738,3.8798,3.8931,3.9005,3.9078,3.8895,3.8931,3.9206,3.917,4.5311,4.5369,4.6035,4.6308,4.6348,4.6736,4.6892,4.695,4.7402,4.7812,4.8223,4.8636,4.8812,4.8714,4.8613,4.8457,4.8418,4.8652,4.8476,4.8769,4.9195,4.9644,4.9859,5.0488,5.084,5.0898,5.0933,5.103,5.1074,5.1226,5.1397,5.1397,5.1397,5.1397,5.1397,5.1397,5.1397,5.1397,5.1397,5.1377,5.1382,5.1148,5.1011,5.105,5.0859,5.0625,5.0293,4.9918,4.9824,4.9789,4.9492,4.9414,4.9352,4.9066,4.8933,4.8894,4.8874,4.8851,4.8808,4.869,4.8543,4.8523,4.8284,4.8034,4.7504,4.6573,4.6004,4.5874,4.5705,4.5522,4.5357,4.5238,4.5031,4.465,4.4237,4.4017,4.3779,4.321,4.2644,4.2256,4.1925,4.1632,4.1323,4.1115,4.1102,4.1102,4.1102,4.1102,4.1102,4.1047,4.1047,4.0919,4.0956,4.1084,4.1102,4.1102,4.1102,4.1102,4.1102,4.1102,4.1102,4.0871,4.0545,3.9606,3.8934,3.8938,3.8939,3.8963,3.904,3.9096,3.9208,3.9245,3.9373,3.961,3.9445,4.5018,4.5096,4.5742,4.6035,4.6094,4.6484,4.6618,4.6736,4.7305,4.7737,4.803,4.8538,4.8815,4.8737,4.8499,4.8301,4.832,4.8691,4.8883,4.9078,4.9277,4.9726,5.0117,5.0449,5.0703,5.082,5.1016,5.1094,5.0918,5.1167,5.1397,5.1397,5.1397,5.1397,5.1397,5.1397,5.1397,5.1397,5.1397,5.1377,5.1401,5.1226,5.1128,5.1148,5.105,5.084,5.0586,5.025,5.0078,4.9824,4.9394,4.9219,4.9144,4.9011,4.8796,4.8718,4.8695,4.8792,4.8734,4.8796,4.8894,4.8894,4.8871,4.845,4.845,4.7611,4.7178,4.7005,4.6701,4.6493,4.6377,4.6243,4.5825,4.54,4.4948,4.4586,4.4109,4.3503,4.3048,4.2644,4.2384,4.2219,4.1821,4.1241,4.1254,4.1369,4.1314,4.1115,4.1097,4.1102,4.1102,4.1102,4.1102,4.1102,4.1102,4.1102,4.1102,4.1102,4.1102,4.1102,4.1105,4.1081,4.0771,4.0077,3.9569,3.9433,3.9455,3.9426,3.9428,3.9522,3.9671,3.9781,3.9907,3.9994,3.9901,4.4842,4.4979,4.541,4.5666,4.5764,4.6133,4.6367,4.6523,4.7168,4.7578,4.7815,4.848,4.8519,4.8558,4.8558,4.8418,4.8437,4.8672,4.9039,4.9352,4.9668,4.9863,5.0137,5.0488,5.0644,5.0898,5.1148,5.1011,5.084,5.1167,5.1397,5.1397,5.1397,5.1397,5.1397,5.1397,5.1397,5.1397,5.1397,5.1397,5.1377,5.1397,5.1377,5.1377,5.1358,5.1206,5.0972,5.0625,5.0273,4.9961,4.9535,4.9379,4.932,4.9281,4.8851,4.8753,4.889,4.8792,4.8617,4.8734,4.8832,4.8894,4.8894,4.8871,4.8848,4.862,4.8208,4.793,4.7624,4.7391,4.7256,4.6966,4.6527,4.6108,4.5622,4.5146,4.4539,4.3923,4.3474,4.307,4.2846,4.27,4.2207,4.1601,4.1492,4.1607,4.1452,4.1251,4.111,4.1097,4.1102,4.1102,4.1102,4.1102,4.1102,4.1102,4.1102,4.1102,4.1102,4.1102,4.1105,4.1095,4.101,4.0815,4.0416,4.0111,3.9962,3.9913,3.995,3.9964,4.0185,4.035,4.0329,4.0398,4.039,4.4159,4.4551,4.498,4.5351,4.5725,4.6113,4.6482,4.6775,4.695,4.7422,4.793,4.8183,4.8441,4.8714,4.8398,4.8262,4.832,4.861,4.8769,4.9007,4.9476,4.9789,5.0102,5.043,5.0547,5.0816,5.1128,5.1109,5.0913,5.1187,5.1397,5.1397,5.1397,5.1397,5.1397,5.1397,5.1397,5.1397,5.1397,5.1397,5.1397,5.1397,5.1397,5.1397,5.1377,5.1338,5.1148,5.0625,5.0508,5.0371,5.0141,4.9906,4.9809,4.973,4.9398,4.8968,4.9105,4.891,4.8792,4.8714,4.8773,4.8815,4.8835,4.8894,4.8871,4.8871,4.8574,4.8528,4.8227,4.7972,4.7767,4.7423,4.7016,4.6694,4.627,4.5792,4.5235,4.4559,4.3991,4.3582,4.3225,4.2927,4.2491,4.2101,4.1992,4.1941,4.1537,4.1354,4.1314,4.1247,4.1179,4.1158,4.1158,4.1102,4.1102,4.1102,4.1102,4.1102,4.1102,4.1102,4.1102,4.1102,4.1019,4.0897,4.0893,4.0688,4.0556,4.0412,4.0409,4.046,4.0754,4.0919,4.0843,4.0743,4.0715]}]]